Wetterdaten: Montag, 26.06.2017
Datum Zeit Temp. A. Pool Temp. Feuchte A. Luftdruck Regen Wind Richtung Richtung Sonnenschein ET UV Solar Taupunkt Windchill Windben Empfang
26.06.2017 00:00 18,4 C 25,6 C 81 % 1012,9 hPa 0,0 l/m 6,7 km/h (2 Bft) SW 219 0 min 0,000 mm 0,0 UV-I 0 W/m 15,1 C 18,3 C 11,3 km/h (2 Bft) 97,87 %
26.06.2017 00:02 18,4 C 25,6 C 81 % 1012,9 hPa 0,0 l/m 8,3 km/h (2 Bft) SW 233 0 min 0,000 mm 0,0 UV-I 0 W/m 15,1 C 17,5 C 14,5 km/h (3 Bft) 95,00 %
26.06.2017 00:04 18,4 C 25,6 C 80 % 1012,9 hPa 0,0 l/m 7,6 km/h (2 Bft) S-SW 204 0 min 0,000 mm 0,0 UV-I 0 W/m 14,9 C 17,8 C 9,7 km/h (2 Bft) 94,00 %
26.06.2017 00:06 18,3 C 25,6 C 81 % 1013,0 hPa 0,0 l/m 8,5 km/h (2 Bft) SW 217 0 min 0,000 mm 0,0 UV-I 0 W/m 15,0 C 17,4 C 12,9 km/h (3 Bft) 98,00 %
26.06.2017 00:08 18,3 C 25,6 C 81 % 1013,0 hPa 0,0 l/m 6,9 km/h (2 Bft) SW 219 0 min 0,000 mm 0,0 UV-I 0 W/m 15,0 C 18,1 C 12,9 km/h (3 Bft) 95,12 %
26.06.2017 00:10 18,3 C 25,6 C 81 % 1013,0 hPa 0,0 l/m 9,5 km/h (2 Bft) S-SW 206 0 min 0,000 mm 0,0 UV-I 0 W/m 15,0 C 17,0 C 14,5 km/h (3 Bft) 94,00 %
26.06.2017 00:12 18,2 C 25,6 C 81 % 1013,0 hPa 0,0 l/m 9,5 km/h (2 Bft) SW 234 0 min 0,000 mm 0,0 UV-I 0 W/m 14,9 C 16,8 C 16,1 km/h (3 Bft) 98,00 %
26.06.2017 00:14 18,2 C 25,6 C 81 % 1013,0 hPa 0,0 l/m 8,9 km/h (2 Bft) SW 229 0 min 0,000 mm 0,0 UV-I 0 W/m 14,9 C 17,1 C 12,9 km/h (3 Bft) 94,74 %
26.06.2017 00:16 18,2 C 25,6 C 81 % 1013,0 hPa 0,0 l/m 7,9 km/h (2 Bft) SW 229 0 min 0,000 mm 0,0 UV-I 0 W/m 14,9 C 17,5 C 11,3 km/h (2 Bft) 94,00 %
26.06.2017 00:18 18,2 C 25,6 C 81 % 1013,0 hPa 0,0 l/m 8,9 km/h (2 Bft) SW 228 0 min 0,000 mm 0,0 UV-I 0 W/m 14,9 C 17,1 C 12,9 km/h (3 Bft) 97,56 %
26.06.2017 00:20 18,2 C 25,6 C 81 % 1013,0 hPa 0,0 l/m 8,7 km/h (2 Bft) W-SW 238 0 min 0,000 mm 0,0 UV-I 0 W/m 14,9 C 17,2 C 16,1 km/h (3 Bft) 94,00 %
26.06.2017 00:22 18,2 C 25,6 C 80 % 1013,1 hPa 0,0 l/m 8,7 km/h (2 Bft) SW 217 0 min 0,000 mm 0,0 UV-I 0 W/m 14,7 C 17,2 C 14,5 km/h (3 Bft) 96,00 %
26.06.2017 00:24 18,3 C 25,6 C 80 % 1013,1 hPa 0,0 l/m 10,6 km/h (2 Bft) W-SW 240 0 min 0,000 mm 0,0 UV-I 0 W/m 14,8 C 16,5 C 14,5 km/h (3 Bft) 98,00 %
26.06.2017 00:26 18,3 C 25,6 C 80 % 1013,0 hPa 0,0 l/m 9,7 km/h (2 Bft) SW 232 0 min 0,000 mm 0,0 UV-I 0 W/m 14,8 C 16,9 C 17,7 km/h (3 Bft) 97,22 %
26.06.2017 00:28 18,3 C 25,6 C 80 % 1013,0 hPa 0,0 l/m 11,6 km/h (2 Bft) W-SW 244 0 min 0,000 mm 0,0 UV-I 0 W/m 14,8 C 16,2 C 14,5 km/h (3 Bft) 98,18 %
26.06.2017 00:30 18,3 C 25,6 C 80 % 1013,0 hPa 0,0 l/m 11,8 km/h (2 Bft) W-SW 246 0 min 0,000 mm 0,0 UV-I 0 W/m 14,8 C 16,1 C 17,7 km/h (3 Bft) 100,00 %
26.06.2017 00:32 18,4 C 25,6 C 80 % 1013,0 hPa 0,0 l/m 11,3 km/h (2 Bft) S-SW 209 0 min 0,000 mm 0,0 UV-I 0 W/m 14,9 C 16,4 C 17,7 km/h (3 Bft) 96,55 %
26.06.2017 00:34 18,4 C 25,6 C 80 % 1013,1 hPa 0,0 l/m 9,1 km/h (2 Bft) SW 231 0 min 0,000 mm 0,0 UV-I 0 W/m 14,9 C 17,2 C 17,7 km/h (3 Bft) 100,00 %
26.06.2017 00:36 18,4 C 25,6 C 80 % 1013,1 hPa 0,0 l/m 10,8 km/h (2 Bft) SW 228 0 min 0,000 mm 0,0 UV-I 0 W/m 14,9 C 16,6 C 16,1 km/h (3 Bft) 98,00 %
26.06.2017 00:38 18,5 C 25,6 C 80 % 1013,0 hPa 0,0 l/m 10,2 km/h (2 Bft) SW 223 0 min 0,000 mm 0,0 UV-I 0 W/m 15,0 C 16,9 C 14,5 km/h (3 Bft) 97,87 %
26.06.2017 00:40 18,5 C 25,6 C 79 % 1013,0 hPa 0,0 l/m 11,0 km/h (2 Bft) W-SW 249 0 min 0,000 mm 0,0 UV-I 0 W/m 14,8 C 16,6 C 16,1 km/h (3 Bft) 97,37 %
26.06.2017 00:42 18,6 C 25,6 C 79 % 1013,0 hPa 0,0 l/m 11,8 km/h (2 Bft) SW 236 0 min 0,000 mm 0,0 UV-I 0 W/m 14,9 C 16,5 C 14,5 km/h (3 Bft) 100,00 %
26.06.2017 00:44 18,7 C 25,6 C 78 % 1013,0 hPa 0,0 l/m 10,6 km/h (2 Bft) S-SW 212 0 min 0,000 mm 0,0 UV-I 0 W/m 14,8 C 17,0 C 16,1 km/h (3 Bft) 100,00 %
26.06.2017 00:46 18,7 C 25,6 C 78 % 1013,0 hPa 0,0 l/m 11,0 km/h (2 Bft) W-SW 241 0 min 0,000 mm 0,0 UV-I 0 W/m 14,8 C 16,9 C 17,7 km/h (3 Bft) 100,00 %
26.06.2017 00:48 18,7 C 25,6 C 77 % 1013,0 hPa 0,0 l/m 11,2 km/h (2 Bft) W-SW 243 0 min 0,000 mm 0,0 UV-I 0 W/m 14,6 C 16,8 C 17,7 km/h (3 Bft) 97,56 %
26.06.2017 00:50 18,8 C 25,6 C 78 % 1013,0 hPa 0,0 l/m 10,2 km/h (2 Bft) S-SW 200 0 min 0,000 mm 0,0 UV-I 0 W/m 14,9 C 17,2 C 12,9 km/h (3 Bft) 100,00 %
26.06.2017 00:52 18,8 C 25,6 C 78 % 1013,0 hPa 0,0 l/m 12,2 km/h (2 Bft) SW 225 0 min 0,000 mm 0,0 UV-I 0 W/m 14,9 C 16,6 C 20,9 km/h (4 Bft) 96,23 %
26.06.2017 00:54 18,8 C 25,6 C 78 % 1013,1 hPa 0,0 l/m 11,4 km/h (2 Bft) W-SW 238 0 min 0,000 mm 0,0 UV-I 0 W/m 14,9 C 16,8 C 17,7 km/h (3 Bft) 98,00 %
26.06.2017 00:56 18,8 C 25,6 C 77 % 1013,0 hPa 0,0 l/m 9,0 km/h (2 Bft) SW 214 0 min 0,000 mm 0,0 UV-I 0 W/m 14,7 C 17,7 C 14,5 km/h (3 Bft) 100,00 %
26.06.2017 00:58 18,8 C 25,6 C 77 % 1012,9 hPa 0,0 l/m 10,3 km/h (2 Bft) SW 226 0 min 0,000 mm 0,0 UV-I 0 W/m 14,7 C 17,2 C 14,5 km/h (3 Bft) 92,45 %
26.06.2017 01:00 18,8 C 25,6 C 77 % 1012,9 hPa 0,0 l/m 11,9 km/h (2 Bft) W-SW 246 0 min 0,025 mm 0,0 UV-I 0 W/m 14,7 C 16,7 C 16,1 km/h (3 Bft) 96,30 %
26.06.2017 01:02 18,8 C 25,6 C 77 % 1012,9 hPa 0,0 l/m 12,7 km/h (3 Bft) SW 224 0 min 0,000 mm 0,0 UV-I 0 W/m 14,7 C 16,4 C 17,7 km/h (3 Bft) 94,03 %
26.06.2017 01:04 18,8 C 25,6 C 77 % 1012,9 hPa 0,0 l/m 11,6 km/h (2 Bft) W-SW 253 0 min 0,000 mm 0,0 UV-I 0 W/m 14,7 C 16,8 C 19,3 km/h (3 Bft) 95,12 %
26.06.2017 01:06 18,8 C 25,6 C 78 % 1013,0 hPa 0,0 l/m 10,3 km/h (2 Bft) W-SW 247 0 min 0,000 mm 0,0 UV-I 0 W/m 14,9 C 17,2 C 19,3 km/h (3 Bft) 97,73 %
26.06.2017 01:08 18,8 C 25,6 C 77 % 1013,0 hPa 0,0 l/m 12,8 km/h (3 Bft) SW 234 0 min 0,000 mm 0,0 UV-I 0 W/m 14,7 C 16,4 C 20,9 km/h (4 Bft) 96,23 %
26.06.2017 01:10 18,8 C 25,6 C 77 % 1013,0 hPa 0,0 l/m 12,7 km/h (3 Bft) SW 231 0 min 0,000 mm 0,0 UV-I 0 W/m 14,7 C 16,4 C 17,7 km/h (3 Bft) 97,44 %
26.06.2017 01:12 18,8 C 25,6 C 77 % 1013,0 hPa 0,0 l/m 10,5 km/h (2 Bft) SW 229 0 min 0,000 mm 0,0 UV-I 0 W/m 14,7 C 17,1 C 16,1 km/h (3 Bft) 98,00 %
26.06.2017 01:14 18,8 C 25,6 C 77 % 1013,0 hPa 0,0 l/m 10,5 km/h (2 Bft) W-SW 238 0 min 0,000 mm 0,0 UV-I 0 W/m 14,7 C 17,1 C 17,7 km/h (3 Bft) 95,45 %
26.06.2017 01:16 18,8 C 25,6 C 77 % 1013,0 hPa 0,0 l/m 8,0 km/h (2 Bft) S-SW 203 0 min 0,000 mm 0,0 UV-I 0 W/m 14,7 C 18,1 C 11,3 km/h (2 Bft) 96,23 %
26.06.2017 01:18 18,8 C 25,6 C 77 % 1013,0 hPa 0,0 l/m 9,5 km/h (2 Bft) S-SW 209 0 min 0,000 mm 0,0 UV-I 0 W/m 14,7 C 17,5 C 14,5 km/h (3 Bft) 97,56 %
26.06.2017 01:20 18,8 C 25,6 C 77 % 1012,9 hPa 0,0 l/m 7,9 km/h (2 Bft) SW 223 0 min 0,000 mm 0,0 UV-I 0 W/m 14,7 C 18,1 C 12,9 km/h (3 Bft) 96,23 %
26.06.2017 01:22 18,8 C 25,6 C 77 % 1012,9 hPa 0,0 l/m 8,1 km/h (2 Bft) SW 218 0 min 0,000 mm 0,0 UV-I 0 W/m 14,7 C 18,0 C 12,9 km/h (3 Bft) 97,37 %
26.06.2017 01:24 18,8 C 25,6 C 77 % 1013,0 hPa 0,0 l/m 8,0 km/h (2 Bft) SW 236 0 min 0,000 mm 0,0 UV-I 0 W/m 14,7 C 18,1 C 11,3 km/h (2 Bft) 96,00 %
26.06.2017 01:26 18,8 C 25,6 C 77 % 1012,9 hPa 0,0 l/m 7,7 km/h (2 Bft) S-SW 211 0 min 0,000 mm 0,0 UV-I 0 W/m 14,7 C 18,2 C 11,3 km/h (2 Bft) 98,11 %
26.06.2017 01:28 18,8 C 25,6 C 77 % 1012,9 hPa 0,0 l/m 8,9 km/h (2 Bft) SW 217 0 min 0,000 mm 0,0 UV-I 0 W/m 14,7 C 17,7 C 12,9 km/h (3 Bft) 94,74 %
26.06.2017 01:30 18,8 C 25,6 C 77 % 1012,9 hPa 0,0 l/m 8,4 km/h (2 Bft) SW 224 0 min 0,000 mm 0,0 UV-I 0 W/m 14,7 C 17,9 C 14,5 km/h (3 Bft) 96,00 %
26.06.2017 01:32 18,8 C 25,6 C 77 % 1012,9 hPa 0,0 l/m 7,6 km/h (2 Bft) SW 231 0 min 0,000 mm 0,0 UV-I 0 W/m 14,7 C 18,3 C 11,3 km/h (2 Bft) 95,45 %
26.06.2017 01:34 18,8 C 25,6 C 77 % 1013,0 hPa 0,0 l/m 8,3 km/h (2 Bft) S-SW 210 0 min 0,000 mm 0,0 UV-I 0 W/m 14,7 C 18,0 C 12,9 km/h (3 Bft) 96,23 %
26.06.2017 01:36 18,8 C 25,6 C 77 % 1013,0 hPa 0,0 l/m 7,6 km/h (2 Bft) SW 226 0 min 0,000 mm 0,0 UV-I 0 W/m 14,7 C 18,3 C 12,9 km/h (3 Bft) 94,00 %
26.06.2017 01:38 18,8 C 25,6 C 77 % 1012,9 hPa 0,0 l/m 5,2 km/h (1 Bft) SW 234 0 min 0,000 mm 0,0 UV-I 0 W/m 14,7 C 18,8 C 8,0 km/h (2 Bft) 94,74 %
26.06.2017 01:40 18,8 C 25,6 C 77 % 1012,9 hPa 0,0 l/m 6,6 km/h (2 Bft) SW 221 0 min 0,000 mm 0,0 UV-I 0 W/m 14,7 C 18,7 C 9,7 km/h (2 Bft) 96,43 %
26.06.2017 01:42 18,8 C 25,6 C 77 % 1012,9 hPa 0,0 l/m 5,9 km/h (2 Bft) SW 215 0 min 0,000 mm 0,0 UV-I 0 W/m 14,7 C 18,8 C 8,0 km/h (2 Bft) 97,56 %
26.06.2017 01:44 18,7 C 25,6 C 77 % 1012,9 hPa 0,0 l/m 6,2 km/h (2 Bft) SW 222 0 min 0,000 mm 0,0 UV-I 0 W/m 14,6 C 18,7 C 8,0 km/h (2 Bft) 96,23 %
26.06.2017 01:46 18,7 C 25,6 C 77 % 1012,8 hPa 0,0 l/m 6,5 km/h (2 Bft) S-SW 207 0 min 0,000 mm 0,0 UV-I 0 W/m 14,6 C 18,7 C 9,7 km/h (2 Bft) 95,45 %
26.06.2017 01:48 18,7 C 25,6 C 77 % 1012,8 hPa 0,0 l/m 7,8 km/h (2 Bft) SW 229 0 min 0,000 mm 0,0 UV-I 0 W/m 14,6 C 18,1 C 11,3 km/h (2 Bft) 92,59 %
26.06.2017 01:50 18,7 C 25,6 C 77 % 1012,9 hPa 0,0 l/m 7,1 km/h (2 Bft) SW 218 0 min 0,000 mm 0,0 UV-I 0 W/m 14,6 C 18,4 C 11,3 km/h (2 Bft) 96,92 %
26.06.2017 01:52 18,7 C 25,6 C 78 % 1012,9 hPa 0,0 l/m 9,7 km/h (2 Bft) SW 236 0 min 0,000 mm 0,0 UV-I 0 W/m 14,8 C 17,3 C 14,5 km/h (3 Bft) 98,00 %
26.06.2017 01:54 18,6 C 25,6 C 78 % 1012,8 hPa 0,0 l/m 8,1 km/h (2 Bft) SW 230 0 min 0,000 mm 0,0 UV-I 0 W/m 14,7 C 17,8 C 11,3 km/h (2 Bft) 92,11 %
26.06.2017 01:56 18,6 C 25,6 C 77 % 1012,8 hPa 0,0 l/m 7,7 km/h (2 Bft) SW 227 0 min 0,000 mm 0,0 UV-I 0 W/m 14,5 C 18,0 C 12,9 km/h (3 Bft) 92,45 %
26.06.2017 01:58 18,6 C 25,6 C 78 % 1012,9 hPa 0,0 l/m 8,9 km/h (2 Bft) W-SW 241 0 min 0,000 mm 0,0 UV-I 0 W/m 14,7 C 17,5 C 11,3 km/h (2 Bft) 93,62 %
26.06.2017 02:00 18,5 C 25,6 C 78 % 1012,8 hPa 0,0 l/m 7,3 km/h (2 Bft) W-SW 242 0 min 0,026 mm 0,0 UV-I 0 W/m 14,6 C 18,1 C 11,3 km/h (2 Bft) 94,00 %
26.06.2017 02:02 18,4 C 25,6 C 78 % 1012,8 hPa 0,0 l/m 8,4 km/h (2 Bft) S-SW 195 0 min 0,000 mm 0,0 UV-I 0 W/m 14,5 C 17,5 C 11,3 km/h (2 Bft) 100,00 %
26.06.2017 02:04 18,3 C 25,6 C 78 % 1012,7 hPa 0,0 l/m 10,0 km/h (2 Bft) W-SW 248 0 min 0,000 mm 0,0 UV-I 0 W/m 14,4 C 16,8 C 16,1 km/h (3 Bft) 93,67 %
26.06.2017 02:06 18,3 C 25,6 C 78 % 1012,8 hPa 0,0 l/m 6,7 km/h (2 Bft) W-SW 254 0 min 0,000 mm 0,0 UV-I 0 W/m 14,4 C 18,2 C 11,3 km/h (2 Bft) 96,00 %
26.06.2017 02:08 18,3 C 25,6 C 78 % 1012,7 hPa 0,0 l/m 7,4 km/h (2 Bft) SW 221 0 min 0,000 mm 0,0 UV-I 0 W/m 14,4 C 17,8 C 11,3 km/h (2 Bft) 93,62 %
26.06.2017 02:10 18,2 C 25,6 C 79 % 1012,7 hPa 0,0 l/m 7,1 km/h (2 Bft) SW 232 0 min 0,000 mm 0,0 UV-I 0 W/m 14,5 C 17,9 C 11,3 km/h (2 Bft) 92,68 %
26.06.2017 02:12 18,1 C 25,6 C 79 % 1012,7 hPa 0,0 l/m 7,1 km/h (2 Bft) W-SW 252 0 min 0,000 mm 0,0 UV-I 0 W/m 14,4 C 17,8 C 12,9 km/h (3 Bft) 92,00 %
26.06.2017 02:14 18,1 C 25,6 C 80 % 1012,7 hPa 0,0 l/m 8,2 km/h (2 Bft) W-SW 242 0 min 0,000 mm 0,0 UV-I 0 W/m 14,6 C 17,3 C 14,5 km/h (3 Bft) 97,73 %
26.06.2017 02:16 18,0 C 25,6 C 79 % 1012,7 hPa 0,0 l/m 6,8 km/h (2 Bft) W-SW 240 0 min 0,000 mm 0,0 UV-I 0 W/m 14,3 C 17,8 C 11,3 km/h (2 Bft) 98,00 %
26.06.2017 02:18 17,9 C 25,6 C 80 % 1012,7 hPa 0,0 l/m 8,1 km/h (2 Bft) W-SW 238 0 min 0,000 mm 0,0 UV-I 0 W/m 14,4 C 17,1 C 14,5 km/h (3 Bft) 96,00 %
26.06.2017 02:20 17,9 C 25,6 C 80 % 1012,8 hPa 0,0 l/m 7,6 km/h (2 Bft) SW 227 0 min 0,000 mm 0,0 UV-I 0 W/m 14,4 C 17,3 C 11,3 km/h (2 Bft) 95,74 %
26.06.2017 02:22 17,9 C 25,6 C 80 % 1012,8 hPa 0,0 l/m 8,4 km/h (2 Bft) W-SW 244 0 min 0,000 mm 0,0 UV-I 0 W/m 14,4 C 17,0 C 12,9 km/h (3 Bft) 94,74 %
26.06.2017 02:24 17,9 C 25,6 C 80 % 1012,8 hPa 0,0 l/m 7,4 km/h (2 Bft) W-SW 244 0 min 0,000 mm 0,0 UV-I 0 W/m 14,4 C 17,4 C 14,5 km/h (3 Bft) 97,87 %
26.06.2017 02:26 17,9 C 25,6 C 80 % 1012,8 hPa 0,0 l/m 6,7 km/h (2 Bft) W-SW 246 0 min 0,000 mm 0,0 UV-I 0 W/m 14,4 C 17,8 C 9,7 km/h (2 Bft) 98,00 %
26.06.2017 02:28 17,9 C 25,6 C 80 % 1012,8 hPa 0,0 l/m 7,7 km/h (2 Bft) SW 230 0 min 0,000 mm 0,0 UV-I 0 W/m 14,4 C 17,3 C 9,7 km/h (2 Bft) 100,00 %
26.06.2017 02:30 17,9 C 25,6 C 80 % 1012,8 hPa 0,0 l/m 9,9 km/h (2 Bft) SW 234 0 min 0,000 mm 0,0 UV-I 0 W/m 14,4 C 16,4 C 12,9 km/h (3 Bft) 98,11 %
26.06.2017 02:32 17,9 C 25,6 C 80 % 1012,8 hPa 0,0 l/m 8,4 km/h (2 Bft) SW 234 0 min 0,000 mm 0,0 UV-I 0 W/m 14,4 C 17,0 C 12,9 km/h (3 Bft) 96,55 %
26.06.2017 02:34 17,9 C 25,6 C 80 % 1012,7 hPa 0,0 l/m 8,3 km/h (2 Bft) W-SW 242 0 min 0,000 mm 0,0 UV-I 0 W/m 14,4 C 17,0 C 12,9 km/h (3 Bft) 98,46 %
26.06.2017 02:36 17,9 C 25,6 C 80 % 1012,7 hPa 0,0 l/m 9,0 km/h (2 Bft) SW 222 0 min 0,000 mm 0,0 UV-I 0 W/m 14,4 C 16,7 C 12,9 km/h (3 Bft) 97,37 %
26.06.2017 02:38 17,9 C 25,6 C 80 % 1012,8 hPa 0,0 l/m 8,3 km/h (2 Bft) SW 234 0 min 0,000 mm 0,0 UV-I 0 W/m 14,4 C 17,0 C 11,3 km/h (2 Bft) 100,00 %
26.06.2017 02:40 17,9 C 25,6 C 80 % 1012,8 hPa 0,0 l/m 10,5 km/h (2 Bft) SW 222 0 min 0,000 mm 0,0 UV-I 0 W/m 14,4 C 16,1 C 16,1 km/h (3 Bft) 93,10 %
26.06.2017 02:42 17,9 C 25,6 C 80 % 1012,7 hPa 0,0 l/m 10,2 km/h (2 Bft) SW 219 0 min 0,000 mm 0,0 UV-I 0 W/m 14,4 C 16,2 C 14,5 km/h (3 Bft) 100,00 %
26.06.2017 02:44 17,9 C 25,6 C 80 % 1012,8 hPa 0,0 l/m 9,8 km/h (2 Bft) SW 223 0 min 0,000 mm 0,0 UV-I 0 W/m 14,4 C 16,4 C 14,5 km/h (3 Bft) 97,73 %
26.06.2017 02:46 17,9 C 25,6 C 80 % 1012,7 hPa 0,0 l/m 8,5 km/h (2 Bft) SW 228 0 min 0,000 mm 0,0 UV-I 0 W/m 14,4 C 16,9 C 11,3 km/h (2 Bft) 100,00 %
26.06.2017 02:48 17,9 C 25,6 C 80 % 1012,8 hPa 0,0 l/m 8,3 km/h (2 Bft) SW 232 0 min 0,000 mm 0,0 UV-I 0 W/m 14,4 C 17,0 C 12,9 km/h (3 Bft) 98,11 %
26.06.2017 02:50 17,9 C 25,6 C 80 % 1012,8 hPa 0,0 l/m 8,4 km/h (2 Bft) SW 231 0 min 0,000 mm 0,0 UV-I 0 W/m 14,4 C 17,0 C 12,9 km/h (3 Bft) 100,00 %
26.06.2017 02:52 18,0 C 25,6 C 80 % 1012,8 hPa 0,0 l/m 8,7 km/h (2 Bft) W-SW 238 0 min 0,000 mm 0,0 UV-I 0 W/m 14,5 C 16,9 C 12,9 km/h (3 Bft) 98,11 %
26.06.2017 02:54 18,0 C 25,6 C 80 % 1012,8 hPa 0,0 l/m 8,0 km/h (2 Bft) SW 229 0 min 0,000 mm 0,0 UV-I 0 W/m 14,5 C 17,3 C 11,3 km/h (2 Bft) 100,00 %
26.06.2017 02:56 17,9 C 25,6 C 80 % 1012,8 hPa 0,0 l/m 6,6 km/h (2 Bft) SW 236 0 min 0,000 mm 0,0 UV-I 0 W/m 14,4 C 17,8 C 9,7 km/h (2 Bft) 98,00 %
26.06.2017 02:58 17,9 C 25,6 C 80 % 1012,7 hPa 0,0 l/m 7,9 km/h (2 Bft) SW 227 0 min 0,000 mm 0,0 UV-I 0 W/m 14,4 C 17,2 C 14,5 km/h (3 Bft) 97,56 %
26.06.2017 03:00 17,9 C 25,6 C 81 % 1012,7 hPa 0,0 l/m 7,3 km/h (2 Bft) SW 231 0 min 0,025 mm 0,0 UV-I 0 W/m 14,6 C 17,5 C 11,3 km/h (2 Bft) 100,00 %
26.06.2017 03:02 17,8 C 25,6 C 81 % 1012,7 hPa 0,0 l/m 7,2 km/h (2 Bft) W-SW 252 0 min 0,000 mm 0,0 UV-I 0 W/m 14,5 C 17,4 C 11,3 km/h (2 Bft) 98,11 %
26.06.2017 03:04 17,8 C 25,6 C 81 % 1012,8 hPa 0,0 l/m 7,4 km/h (2 Bft) W-SW 248 0 min 0,000 mm 0,0 UV-I 0 W/m 14,5 C 17,3 C 14,5 km/h (3 Bft) 97,87 %
26.06.2017 03:06 17,7 C 25,6 C 81 % 1012,8 hPa 0,0 l/m 9,2 km/h (2 Bft) SW 229 0 min 0,000 mm 0,0 UV-I 0 W/m 14,4 C 16,4 C 14,5 km/h (3 Bft) 100,00 %
26.06.2017 03:08 17,7 C 25,6 C 82 % 1012,7 hPa 0,0 l/m 8,1 km/h (2 Bft) W-SW 250 0 min 0,000 mm 0,0 UV-I 0 W/m 14,6 C 16,9 C 11,3 km/h (2 Bft) 97,62 %
26.06.2017 03:10 17,7 C 25,6 C 82 % 1012,7 hPa 0,0 l/m 8,4 km/h (2 Bft) SW 220 0 min 0,000 mm 0,0 UV-I 0 W/m 14,6 C 16,8 C 14,5 km/h (3 Bft) 100,00 %
26.06.2017 03:12 17,7 C 25,6 C 82 % 1012,7 hPa 0,0 l/m 7,6 km/h (2 Bft) SW 232 0 min 0,000 mm 0,0 UV-I 0 W/m 14,6 C 17,1 C 12,9 km/h (3 Bft) 97,73 %
26.06.2017 03:14 17,6 C 25,6 C 82 % 1012,8 hPa 0,0 l/m 8,5 km/h (2 Bft) SW 219 0 min 0,000 mm 0,0 UV-I 0 W/m 14,5 C 16,6 C 12,9 km/h (3 Bft) 97,73 %
26.06.2017 03:16 17,6 C 25,6 C 83 % 1012,7 hPa 0,0 l/m 8,4 km/h (2 Bft) SW 226 0 min 0,000 mm 0,0 UV-I 0 W/m 14,7 C 16,7 C 16,1 km/h (3 Bft) 100,00 %
26.06.2017 03:18 17,6 C 25,6 C 83 % 1012,7 hPa 0,0 l/m 9,4 km/h (2 Bft) SW 228 0 min 0,000 mm 0,0 UV-I 0 W/m 14,7 C 16,2 C 16,1 km/h (3 Bft) 97,37 %
26.06.2017 03:20 17,6 C 25,6 C 83 % 1012,7 hPa 0,0 l/m 9,4 km/h (2 Bft) SW 230 0 min 0,000 mm 0,0 UV-I 0 W/m 14,7 C 16,2 C 16,1 km/h (3 Bft) 97,56 %
26.06.2017 03:22 17,5 C 25,6 C 83 % 1012,7 hPa 0,0 l/m 7,0 km/h (2 Bft) SW 219 0 min 0,000 mm 0,0 UV-I 0 W/m 14,6 C 17,2 C 9,7 km/h (2 Bft) 98,11 %
26.06.2017 03:24 17,5 C 25,6 C 83 % 1012,7 hPa 0,0 l/m 8,7 km/h (2 Bft) SW 228 0 min 0,000 mm 0,0 UV-I 0 W/m 14,6 C 16,4 C 12,9 km/h (3 Bft) 98,11 %
26.06.2017 03:26 17,5 C 25,6 C 84 % 1012,7 hPa 0,0 l/m 8,6 km/h (2 Bft) SW 232 0 min 0,000 mm 0,0 UV-I 0 W/m 14,8 C 16,5 C 12,9 km/h (3 Bft) 97,56 %
26.06.2017 03:28 17,5 C 25,6 C 83 % 1012,7 hPa 0,0 l/m 9,6 km/h (2 Bft) SW 236 0 min 0,000 mm 0,0 UV-I 0 W/m 14,6 C 16,0 C 12,9 km/h (3 Bft) 97,87 %
26.06.2017 03:30 17,5 C 25,6 C 84 % 1012,6 hPa 0,0 l/m 9,8 km/h (2 Bft) SW 228 0 min 0,000 mm 0,0 UV-I 0 W/m 14,8 C 16,0 C 12,9 km/h (3 Bft) 100,00 %
26.06.2017 03:32 17,5 C 25,6 C 83 % 1012,6 hPa 0,0 l/m 7,6 km/h (2 Bft) SW 229 0 min 0,000 mm 0,0 UV-I 0 W/m 14,6 C 16,9 C 14,5 km/h (3 Bft) 100,00 %
26.06.2017 03:34 17,5 C 25,6 C 84 % 1012,6 hPa 0,0 l/m 8,6 km/h (2 Bft) SW 235 0 min 0,000 mm 0,0 UV-I 0 W/m 14,8 C 16,5 C 12,9 km/h (3 Bft) 95,74 %
26.06.2017 03:36 17,5 C 25,6 C 83 % 1012,6 hPa 0,0 l/m 7,4 km/h (2 Bft) SW 234 0 min 0,000 mm 0,0 UV-I 0 W/m 14,6 C 17,0 C 11,3 km/h (2 Bft) 98,11 %
26.06.2017 03:38 17,5 C 25,6 C 83 % 1012,6 hPa 0,0 l/m 7,3 km/h (2 Bft) SW 232 0 min 0,000 mm 0,0 UV-I 0 W/m 14,6 C 17,1 C 12,9 km/h (3 Bft) 100,00 %
26.06.2017 03:40 17,5 C 25,6 C 83 % 1012,6 hPa 0,0 l/m 8,7 km/h (2 Bft) SW 220 0 min 0,000 mm 0,0 UV-I 0 W/m 14,6 C 16,4 C 11,3 km/h (2 Bft) 96,23 %
26.06.2017 03:42 17,5 C 25,6 C 84 % 1012,6 hPa 0,0 l/m 8,2 km/h (2 Bft) SW 223 0 min 0,000 mm 0,0 UV-I 0 W/m 14,8 C 16,6 C 11,3 km/h (2 Bft) 98,11 %
26.06.2017 03:44 17,5 C 25,6 C 84 % 1012,5 hPa 0,0 l/m 6,9 km/h (2 Bft) S-SW 211 0 min 0,000 mm 0,0 UV-I 0 W/m 14,8 C 17,3 C 11,3 km/h (2 Bft) 97,73 %
26.06.2017 03:46 17,5 C 25,6 C 84 % 1012,5 hPa 0,0 l/m 8,8 km/h (2 Bft) SW 223 0 min 0,000 mm 0,0 UV-I 0 W/m 14,8 C 16,4 C 12,9 km/h (3 Bft) 100,00 %
26.06.2017 03:48 17,5 C 25,6 C 84 % 1012,5 hPa 0,0 l/m 7,8 km/h (2 Bft) SW 236 0 min 0,000 mm 0,0 UV-I 0 W/m 14,8 C 16,8 C 14,5 km/h (3 Bft) 95,74 %
26.06.2017 03:50 17,5 C 25,6 C 84 % 1012,5 hPa 0,0 l/m 7,7 km/h (2 Bft) W-SW 244 0 min 0,000 mm 0,0 UV-I 0 W/m 14,8 C 16,9 C 11,3 km/h (2 Bft) 100,00 %
26.06.2017 03:52 17,4 C 25,6 C 84 % 1012,5 hPa 0,0 l/m 8,3 km/h (2 Bft) W-SW 253 0 min 0,000 mm 0,0 UV-I 0 W/m 14,7 C 16,5 C 12,9 km/h (3 Bft) 100,00 %
26.06.2017 03:54 17,4 C 25,6 C 84 % 1012,5 hPa 0,0 l/m 7,9 km/h (2 Bft) SW 223 0 min 0,000 mm 0,0 UV-I 0 W/m 14,7 C 16,7 C 14,5 km/h (3 Bft) 98,00 %
26.06.2017 03:56 17,4 C 25,6 C 84 % 1012,6 hPa 0,0 l/m 9,2 km/h (2 Bft) SW 230 0 min 0,000 mm 0,0 UV-I 0 W/m 14,7 C 16,1 C 12,9 km/h (3 Bft) 94,34 %
26.06.2017 03:58 17,4 C 25,6 C 84 % 1012,6 hPa 0,0 l/m 10,2 km/h (2 Bft) W-SW 247 0 min 0,000 mm 0,0 UV-I 0 W/m 14,7 C 15,7 C 14,5 km/h (3 Bft) 93,18 %
26.06.2017 04:00 17,4 C 25,6 C 84 % 1012,6 hPa 0,0 l/m 9,7 km/h (2 Bft) S-SW 212 0 min 0,026 mm 0,0 UV-I 0 W/m 14,7 C 15,9 C 12,9 km/h (3 Bft) 94,00 %
26.06.2017 04:02 17,4 C 25,6 C 84 % 1012,6 hPa 0,0 l/m 9,2 km/h (2 Bft) SW 228 0 min 0,000 mm 0,0 UV-I 0 W/m 14,7 C 16,1 C 12,9 km/h (3 Bft) 90,91 %
26.06.2017 04:04 17,4 C 25,6 C 84 % 1012,6 hPa 0,0 l/m 7,8 km/h (2 Bft) SW 223 0 min 0,000 mm 0,0 UV-I 0 W/m 14,7 C 16,7 C 12,9 km/h (3 Bft) 94,29 %
26.06.2017 04:06 17,4 C 25,6 C 84 % 1012,6 hPa 0,0 l/m 7,5 km/h (2 Bft) SW 234 0 min 0,000 mm 0,0 UV-I 0 W/m 14,7 C 16,9 C 12,9 km/h (3 Bft) 94,00 %
26.06.2017 04:08 17,4 C 25,6 C 84 % 1012,6 hPa 0,0 l/m 9,6 km/h (2 Bft) SW 227 0 min 0,000 mm 0,0 UV-I 0 W/m 14,7 C 15,9 C 14,5 km/h (3 Bft) 98,21 %
26.06.2017 04:10 17,4 C 25,6 C 84 % 1012,6 hPa 0,0 l/m 9,7 km/h (2 Bft) W-SW 245 0 min 0,000 mm 0,0 UV-I 0 W/m 14,7 C 15,9 C 14,5 km/h (3 Bft) 94,74 %
26.06.2017 04:12 17,4 C 25,6 C 84 % 1012,6 hPa 0,0 l/m 8,9 km/h (2 Bft) SW 233 0 min 0,000 mm 0,0 UV-I 0 W/m 14,7 C 16,2 C 14,5 km/h (3 Bft) 92,59 %
26.06.2017 04:14 17,5 C 25,6 C 84 % 1012,6 hPa 0,0 l/m 8,6 km/h (2 Bft) W-SW 242 0 min 0,000 mm 0,0 UV-I 0 W/m 14,8 C 16,5 C 14,5 km/h (3 Bft) 95,74 %
26.06.2017 04:16 17,6 C 25,6 C 84 % 1012,6 hPa 0,0 l/m 9,3 km/h (2 Bft) SW 223 0 min 0,000 mm 0,0 UV-I 0 W/m 14,9 C 16,3 C 12,9 km/h (3 Bft) 94,03 %
26.06.2017 04:18 17,6 C 25,6 C 84 % 1012,5 hPa 0,0 l/m 9,3 km/h (2 Bft) W-SW 242 0 min 0,000 mm 0,0 UV-I 0 W/m 14,9 C 16,3 C 14,5 km/h (3 Bft) 96,00 %
26.06.2017 04:20 17,6 C 25,6 C 83 % 1012,5 hPa 0,0 l/m 8,3 km/h (2 Bft) W 272 0 min 0,000 mm 0,0 UV-I 0 W/m 14,7 C 16,7 C 11,3 km/h (2 Bft) 97,87 %
26.06.2017 04:22 17,7 C 25,6 C 83 % 1012,5 hPa 0,0 l/m 8,9 km/h (2 Bft) SW 226 0 min 0,000 mm 0,0 UV-I 0 W/m 14,8 C 16,5 C 14,5 km/h (3 Bft) 97,62 %
26.06.2017 04:24 17,7 C 25,6 C 83 % 1012,5 hPa 0,0 l/m 9,3 km/h (2 Bft) W-SW 243 0 min 0,000 mm 0,0 UV-I 0 W/m 14,8 C 16,4 C 14,5 km/h (3 Bft) 94,55 %
26.06.2017 04:26 17,7 C 25,6 C 83 % 1012,6 hPa 0,0 l/m 7,3 km/h (2 Bft) SW 231 0 min 0,000 mm 0,0 UV-I 0 W/m 14,8 C 17,3 C 11,3 km/h (2 Bft) 100,00 %
26.06.2017 04:28 17,7 C 25,6 C 83 % 1012,5 hPa 0,0 l/m 10,7 km/h (2 Bft) SW 227 0 min 0,000 mm 0,0 UV-I 0 W/m 14,8 C 15,8 C 16,1 km/h (3 Bft) 93,18 %
26.06.2017 04:30 17,8 C 25,6 C 83 % 1012,6 hPa 0,0 l/m 9,8 km/h (2 Bft) W-SW 252 0 min 0,000 mm 0,0 UV-I 0 W/m 14,9 C 16,3 C 14,5 km/h (3 Bft) 100,00 %
26.06.2017 04:32 17,8 C 25,6 C 83 % 1012,5 hPa 0,0 l/m 11,1 km/h (2 Bft) SW 220 0 min 0,000 mm 0,0 UV-I 0 W/m 14,9 C 15,8 C 16,1 km/h (3 Bft) 97,73 %
26.06.2017 04:34 17,8 C 25,6 C 83 % 1012,5 hPa 0,0 l/m 10,5 km/h (2 Bft) SW 228 0 min 0,000 mm 0,0 UV-I 0 W/m 14,9 C 16,0 C 16,1 km/h (3 Bft) 94,64 %
26.06.2017 04:36 17,8 C 25,6 C 83 % 1012,6 hPa 0,0 l/m 9,4 km/h (2 Bft) SW 236 0 min 0,000 mm 0,0 UV-I 0 W/m 14,9 C 16,4 C 14,5 km/h (3 Bft) 97,37 %
26.06.2017 04:38 17,8 C 25,6 C 83 % 1012,6 hPa 0,0 l/m 10,8 km/h (2 Bft) SW 230 0 min 0,000 mm 0,0 UV-I 0 W/m 14,9 C 15,9 C 14,5 km/h (3 Bft) 97,73 %
26.06.2017 04:40 17,8 C 25,6 C 83 % 1012,5 hPa 0,0 l/m 10,3 km/h (2 Bft) SW 225 0 min 0,000 mm 0,0 UV-I 0 W/m 14,9 C 16,1 C 14,5 km/h (3 Bft) 98,21 %
26.06.2017 04:42 17,8 C 25,6 C 83 % 1012,5 hPa 0,0 l/m 9,9 km/h (2 Bft) S-SW 208 0 min 0,000 mm 0,0 UV-I 0 W/m 14,9 C 16,2 C 16,1 km/h (3 Bft) 97,87 %
26.06.2017 04:44 17,8 C 25,6 C 83 % 1012,5 hPa 0,0 l/m 11,9 km/h (2 Bft) SW 227 0 min 0,000 mm 0,0 UV-I 0 W/m 14,9 C 15,5 C 17,7 km/h (3 Bft) 95,12 %
26.06.2017 04:46 17,8 C 25,6 C 83 % 1012,6 hPa 0,0 l/m 11,0 km/h (2 Bft) SW 223 0 min 0,000 mm 0,0 UV-I 0 W/m 14,9 C 15,8 C 16,1 km/h (3 Bft) 93,62 %
26.06.2017 04:48 17,8 C 25,6 C 83 % 1012,5 hPa 0,0 l/m 12,4 km/h (3 Bft) SW 234 0 min 0,000 mm 0,0 UV-I 0 W/m 14,9 C 15,4 C 17,7 km/h (3 Bft) 100,00 %
26.06.2017 04:50 17,8 C 25,6 C 83 % 1012,5 hPa 0,0 l/m 11,5 km/h (2 Bft) SW 236 0 min 0,000 mm 0,0 UV-I 0 W/m 14,9 C 15,7 C 16,1 km/h (3 Bft) 97,37 %
26.06.2017 04:52 17,8 C 25,6 C 83 % 1012,6 hPa 0,0 l/m 11,2 km/h (2 Bft) SW 232 0 min 0,000 mm 0,0 UV-I 0 W/m 14,9 C 15,8 C 16,1 km/h (3 Bft) 98,21 %
26.06.2017 04:54 17,8 C 25,6 C 83 % 1012,5 hPa 0,0 l/m 11,3 km/h (2 Bft) SW 223 0 min 0,000 mm 0,0 UV-I 0 W/m 14,9 C 15,7 C 19,3 km/h (3 Bft) 95,12 %
26.06.2017 04:56 17,8 C 25,6 C 83 % 1012,6 hPa 0,0 l/m 12,1 km/h (2 Bft) W-SW 243 0 min 0,000 mm 0,0 UV-I 0 W/m 14,9 C 15,5 C 16,1 km/h (3 Bft) 100,00 %
26.06.2017 04:58 17,8 C 25,6 C 83 % 1012,6 hPa 0,0 l/m 11,8 km/h (2 Bft) SW 231 0 min 0,000 mm 0,0 UV-I 0 W/m 14,9 C 15,6 C 16,1 km/h (3 Bft) 94,00 %
26.06.2017 05:00 17,8 C 25,6 C 83 % 1012,5 hPa 0,0 l/m 13,5 km/h (3 Bft) SW 227 0 min 0,025 mm 0,0 UV-I 4 W/m 14,9 C 15,0 C 20,9 km/h (4 Bft) 95,56 %
26.06.2017 05:02 17,8 C 25,6 C 83 % 1012,6 hPa 0,0 l/m 11,6 km/h (2 Bft) SW 217 0 min 0,000 mm 0,0 UV-I 5 W/m 14,9 C 15,6 C 16,1 km/h (3 Bft) 94,00 %
26.06.2017 05:04 17,8 C 25,6 C 83 % 1012,5 hPa 0,0 l/m 10,6 km/h (2 Bft) SW 234 0 min 0,000 mm 0,0 UV-I 5 W/m 14,9 C 16,0 C 14,5 km/h (3 Bft) 95,24 %
26.06.2017 05:06 17,8 C 25,6 C 83 % 1012,5 hPa 0,0 l/m 11,9 km/h (2 Bft) SW 229 0 min 0,000 mm 0,0 UV-I 5 W/m 14,9 C 15,5 C 17,7 km/h (3 Bft) 94,55 %
26.06.2017 05:08 17,8 C 25,6 C 83 % 1012,5 hPa 0,0 l/m 11,8 km/h (2 Bft) SW 228 0 min 0,000 mm 0,0 UV-I 7 W/m 14,9 C 15,6 C 17,7 km/h (3 Bft) 97,44 %
26.06.2017 05:10 17,8 C 25,6 C 83 % 1012,5 hPa 0,0 l/m 9,7 km/h (2 Bft) S-SW 213 0 min 0,000 mm 0,0 UV-I 7 W/m 14,9 C 16,3 C 14,5 km/h (3 Bft) 96,43 %
26.06.2017 05:12 17,8 C 25,6 C 83 % 1012,5 hPa 0,0 l/m 11,6 km/h (2 Bft) SW 223 0 min 0,000 mm 0,0 UV-I 8 W/m 14,9 C 15,6 C 17,7 km/h (3 Bft) 95,45 %
26.06.2017 05:14 17,7 C 25,6 C 83 % 1012,6 hPa 0,0 l/m 10,4 km/h (2 Bft) SW 229 0 min 0,000 mm 0,0 UV-I 9 W/m 14,8 C 15,9 C 16,1 km/h (3 Bft) 98,00 %
26.06.2017 05:16 17,7 C 25,6 C 83 % 1012,6 hPa 0,0 l/m 9,6 km/h (2 Bft) SW 217 0 min 0,000 mm 0,0 UV-I 9 W/m 14,8 C 16,3 C 16,1 km/h (3 Bft) 94,74 %
26.06.2017 05:18 17,7 C 25,6 C 84 % 1012,5 hPa 0,0 l/m 8,4 km/h (2 Bft) S-SW 204 2 min 0,000 mm 0,0 UV-I 11 W/m 15,0 C 16,8 C 12,9 km/h (3 Bft) 94,00 %
26.06.2017 05:20 17,7 C 25,6 C 84 % 1012,6 hPa 0,0 l/m 7,8 km/h (2 Bft) SW 226 0 min 0,000 mm 0,0 UV-I 11 W/m 15,0 C 17,0 C 12,9 km/h (3 Bft) 98,00 %
26.06.2017 05:22 17,7 C 25,6 C 84 % 1012,6 hPa 0,0 l/m 10,3 km/h (2 Bft) W-SW 249 0 min 0,000 mm 0,0 UV-I 12 W/m 15,0 C 16,0 C 14,5 km/h (3 Bft) 95,45 %
26.06.2017 05:24 17,7 C 25,6 C 83 % 1012,6 hPa 0,0 l/m 9,8 km/h (2 Bft) S-SW 213 0 min 0,000 mm 0,0 UV-I 14 W/m 14,8 C 16,2 C 16,1 km/h (3 Bft) 97,73 %
26.06.2017 05:26 17,8 C 25,6 C 83 % 1012,6 hPa 0,0 l/m 10,5 km/h (2 Bft) W-SW 239 0 min 0,000 mm 0,0 UV-I 15 W/m 14,9 C 16,0 C 16,1 km/h (3 Bft) 96,23 %
26.06.2017 05:28 17,8 C 25,6 C 83 % 1012,6 hPa 0,0 l/m 9,9 km/h (2 Bft) S 178 0 min 0,000 mm 0,0 UV-I 18 W/m 14,9 C 16,2 C 17,7 km/h (3 Bft) 97,56 %
26.06.2017 05:30 17,8 C 25,6 C 83 % 1012,6 hPa 0,0 l/m 10,0 km/h (2 Bft) SW 226 0 min 0,000 mm 0,0 UV-I 19 W/m 14,9 C 16,2 C 16,1 km/h (3 Bft) 95,74 %
26.06.2017 05:32 17,9 C 25,6 C 83 % 1012,5 hPa 0,0 l/m 9,2 km/h (2 Bft) SW 228 0 min 0,000 mm 0,0 UV-I 19 W/m 15,0 C 16,6 C 14,5 km/h (3 Bft) 94,00 %
26.06.2017 05:34 17,9 C 25,6 C 83 % 1012,6 hPa 0,0 l/m 9,6 km/h (2 Bft) SW 230 0 min 0,000 mm 0,0 UV-I 19 W/m 15,0 C 16,5 C 14,5 km/h (3 Bft) 95,45 %
26.06.2017 05:36 17,9 C 25,6 C 82 % 1012,5 hPa 0,0 l/m 8,3 km/h (2 Bft) S-SW 202 0 min 0,000 mm 0,0 UV-I 18 W/m 14,8 C 17,0 C 14,5 km/h (3 Bft) 96,00 %
26.06.2017 05:38 18,0 C 25,6 C 83 % 1012,5 hPa 0,0 l/m 7,9 km/h (2 Bft) S-SW 201 0 min 0,000 mm 0,0 UV-I 20 W/m 15,1 C 17,3 C 11,3 km/h (2 Bft) 97,44 %
26.06.2017 05:40 17,9 C 25,6 C 82 % 1012,5 hPa 0,0 l/m 8,2 km/h (2 Bft) SW 215 0 min 0,000 mm 0,0 UV-I 25 W/m 14,8 C 17,1 C 12,9 km/h (3 Bft) 96,36 %
26.06.2017 05:42 18,0 C 25,6 C 82 % 1012,5 hPa 0,0 l/m 8,1 km/h (2 Bft) SW 217 0 min 0,000 mm 0,0 UV-I 30 W/m 14,9 C 17,2 C 12,9 km/h (3 Bft) 98,00 %
26.06.2017 05:44 17,9 C 25,6 C 83 % 1012,5 hPa 0,0 l/m 8,1 km/h (2 Bft) SW 219 0 min 0,000 mm 0,0 UV-I 38 W/m 15,0 C 17,1 C 14,5 km/h (3 Bft) 97,22 %
26.06.2017 05:46 17,9 C 25,6 C 83 % 1012,4 hPa 0,0 l/m 10,1 km/h (2 Bft) SW 227 2 min 0,000 mm 0,0 UV-I 46 W/m 15,0 C 16,3 C 14,5 km/h (3 Bft) 93,18 %
26.06.2017 05:48 17,9 C 25,6 C 83 % 1012,5 hPa 0,0 l/m 8,9 km/h (2 Bft) SW 223 2 min 0,000 mm 0,0 UV-I 64 W/m 15,0 C 16,8 C 12,9 km/h (3 Bft) 96,23 %
26.06.2017 05:50 17,9 C 25,6 C 83 % 1012,5 hPa 0,0 l/m 6,9 km/h (2 Bft) SW 233 2 min 0,000 mm 0,0 UV-I 77 W/m 15,0 C 17,7 C 9,7 km/h (2 Bft) 94,34 %
26.06.2017 05:52 17,9 C 25,6 C 83 % 1012,4 hPa 0,0 l/m 8,7 km/h (2 Bft) SW 222 2 min 0,000 mm 0,0 UV-I 68 W/m 15,0 C 16,8 C 11,3 km/h (2 Bft) 95,45 %
26.06.2017 05:54 17,9 C 25,6 C 83 % 1012,5 hPa 0,0 l/m 8,6 km/h (2 Bft) W-SW 238 2 min 0,000 mm 0,0 UV-I 59 W/m 15,0 C 16,9 C 14,5 km/h (3 Bft) 97,56 %
26.06.2017 05:56 17,9 C 25,6 C 82 % 1012,5 hPa 0,0 l/m 8,9 km/h (2 Bft) W-SW 241 2 min 0,000 mm 0,0 UV-I 72 W/m 14,8 C 16,8 C 14,5 km/h (3 Bft) 87,50 %
26.06.2017 05:58 18,0 C 25,6 C 83 % 1012,5 hPa 0,0 l/m 9,3 km/h (2 Bft) W-SW 254 2 min 0,000 mm 0,0 UV-I 82 W/m 15,1 C 16,7 C 14,5 km/h (3 Bft) 92,68 %
26.06.2017 06:00 18,0 C 25,6 C 83 % 1012,5 hPa 0,0 l/m 9,3 km/h (2 Bft) SW 229 2 min 0,051 mm 0,0 UV-I 94 W/m 15,1 C 16,7 C 16,1 km/h (3 Bft) 91,49 %
26.06.2017 06:02 18,1 C 25,6 C 82 % 1012,5 hPa 0,0 l/m 8,3 km/h (2 Bft) SW 225 2 min 0,000 mm 0,0 UV-I 76 W/m 15,0 C 17,2 C 12,9 km/h (3 Bft) 94,00 %
26.06.2017 06:04 18,1 C 25,6 C 82 % 1012,5 hPa 0,0 l/m 7,4 km/h (2 Bft) SW 215 2 min 0,000 mm 0,0 UV-I 80 W/m 15,0 C 17,6 C 9,7 km/h (2 Bft) 89,47 %
26.06.2017 06:06 18,1 C 25,6 C 82 % 1012,6 hPa 0,0 l/m 9,1 km/h (2 Bft) SW 229 0 min 0,000 mm 0,0 UV-I 73 W/m 15,0 C 16,9 C 16,1 km/h (3 Bft) 96,23 %
26.06.2017 06:08 18,2 C 25,6 C 82 % 1012,6 hPa 0,0 l/m 9,7 km/h (2 Bft) S-SW 207 0 min 0,000 mm 0,0 UV-I 62 W/m 15,1 C 16,8 C 12,9 km/h (3 Bft) 95,12 %
26.06.2017 06:10 18,2 C 25,6 C 82 % 1012,6 hPa 0,0 l/m 7,6 km/h (2 Bft) W-SW 239 0 min 0,000 mm 0,0 UV-I 59 W/m 15,1 C 17,6 C 17,7 km/h (3 Bft) 96,43 %
26.06.2017 06:12 18,2 C 25,6 C 81 % 1012,7 hPa 0,0 l/m 11,2 km/h (2 Bft) S-SW 211 0 min 0,000 mm 0,0 UV-I 54 W/m 14,9 C 16,2 C 17,7 km/h (3 Bft) 94,00 %
26.06.2017 06:14 18,2 C 25,6 C 81 % 1012,7 hPa 0,0 l/m 9,4 km/h (2 Bft) SW 229 0 min 0,000 mm 0,0 UV-I 50 W/m 14,9 C 16,9 C 14,5 km/h (3 Bft) 97,56 %
26.06.2017 06:16 18,3 C 25,6 C 81 % 1012,7 hPa 0,0 l/m 10,4 km/h (2 Bft) SW 230 0 min 0,000 mm 0,0 UV-I 48 W/m 15,0 C 16,6 C 14,5 km/h (3 Bft) 97,87 %
26.06.2017 06:18 18,3 C 25,6 C 81 % 1012,7 hPa 0,0 l/m 10,5 km/h (2 Bft) SW 229 0 min 0,000 mm 0,0 UV-I 46 W/m 15,0 C 16,6 C 16,1 km/h (3 Bft) 97,73 %
26.06.2017 06:20 18,3 C 25,6 C 81 % 1012,7 hPa 0,0 l/m 10,6 km/h (2 Bft) SW 233 0 min 0,000 mm 0,0 UV-I 44 W/m 15,0 C 16,5 C 16,1 km/h (3 Bft) 94,87 %
26.06.2017 06:22 18,3 C 25,6 C 81 % 1012,8 hPa 0,0 l/m 10,1 km/h (2 Bft) W-SW 244 0 min 0,000 mm 0,0 UV-I 40 W/m 15,0 C 16,7 C 14,5 km/h (3 Bft) 98,28 %
26.06.2017 06:24 18,3 C 25,6 C 81 % 1012,7 hPa 0,0 l/m 10,1 km/h (2 Bft) SW 236 0 min 0,000 mm 0,0 UV-I 41 W/m 15,0 C 16,7 C 14,5 km/h (3 Bft) 94,87 %
26.06.2017 06:26 18,3 C 25,6 C 81 % 1012,7 hPa 0,0 l/m 9,1 km/h (2 Bft) W-SW 251 0 min 0,000 mm 0,0 UV-I 44 W/m 15,0 C 17,1 C 11,3 km/h (2 Bft) 96,61 %
26.06.2017 06:28 18,3 C 25,6 C 82 % 1012,7 hPa 0,0 l/m 9,8 km/h (2 Bft) S-SW 213 0 min 0,000 mm 0,0 UV-I 47 W/m 15,2 C 16,8 C 12,9 km/h (3 Bft) 97,87 %
26.06.2017 06:30 18,3 C 25,6 C 81 % 1012,7 hPa 0,0 l/m 11,0 km/h (2 Bft) SW 233 0 min 0,000 mm 0,0 UV-I 49 W/m 15,0 C 16,4 C 16,1 km/h (3 Bft) 97,37 %
26.06.2017 06:32 18,3 C 25,6 C 82 % 1012,7 hPa 0,0 l/m 10,0 km/h (2 Bft) SW 223 0 min 0,000 mm 0,0 UV-I 54 W/m 15,2 C 16,8 C 14,5 km/h (3 Bft) 98,00 %
26.06.2017 06:34 18,3 C 25,6 C 82 % 1012,7 hPa 0,0 l/m 7,1 km/h (2 Bft) SW 232 0 min 0,000 mm 0,0 UV-I 61 W/m 15,2 C 18,0 C 9,7 km/h (2 Bft) 97,73 %
26.06.2017 06:36 18,3 C 25,6 C 82 % 1012,7 hPa 0,0 l/m 8,6 km/h (2 Bft) SW 227 0 min 0,000 mm 0,0 UV-I 73 W/m 15,2 C 17,3 C 12,9 km/h (3 Bft) 100,00 %
26.06.2017 06:38 18,4 C 25,6 C 82 % 1012,7 hPa 0,0 l/m 9,6 km/h (2 Bft) W-SW 253 0 min 0,000 mm 0,0 UV-I 77 W/m 15,3 C 17,0 C 16,1 km/h (3 Bft) 96,77 %
26.06.2017 06:40 18,4 C 25,6 C 81 % 1012,8 hPa 0,0 l/m 8,3 km/h (2 Bft) SW 227 0 min 0,000 mm 0,0 UV-I 79 W/m 15,1 C 17,5 C 12,9 km/h (3 Bft) 100,00 %
26.06.2017 06:42 18,4 C 25,6 C 81 % 1012,8 hPa 0,0 l/m 9,4 km/h (2 Bft) SW 222 0 min 0,000 mm 0,0 UV-I 86 W/m 15,1 C 17,1 C 12,9 km/h (3 Bft) 98,00 %
26.06.2017 06:44 18,5 C 25,6 C 81 % 1012,8 hPa 0,0 l/m 9,5 km/h (2 Bft) W-SW 249 0 min 0,000 mm 0,0 UV-I 86 W/m 15,2 C 17,2 C 12,9 km/h (3 Bft) 100,00 %
26.06.2017 06:46 18,5 C 25,6 C 81 % 1012,8 hPa 0,0 l/m 8,3 km/h (2 Bft) S-SW 213 0 min 0,000 mm 0,0 UV-I 78 W/m 15,2 C 17,6 C 12,9 km/h (3 Bft) 96,61 %
26.06.2017 06:48 18,6 C 25,6 C 81 % 1012,8 hPa 0,0 l/m 8,3 km/h (2 Bft) SW 232 0 min 0,000 mm 0,0 UV-I 80 W/m 15,3 C 17,8 C 12,9 km/h (3 Bft) 97,37 %
26.06.2017 06:50 18,6 C 25,6 C 81 % 1012,8 hPa 0,0 l/m 9,9 km/h (2 Bft) S-SW 211 0 min 0,000 mm 0,0 UV-I 87 W/m 15,3 C 17,1 C 14,5 km/h (3 Bft) 93,33 %
26.06.2017 06:53 18,6 C 25,6 C 81 % 1012,8 hPa 0,0 l/m 8,9 km/h (2 Bft) W-SW 253 0 min 0,000 mm 0,0 UV-I 116 W/m 15,3 C 17,5 C 14,5 km/h (3 Bft) 100,00 %
26.06.2017 06:54 18,6 C 25,6 C 81 % 1012,8 hPa 0,0 l/m 9,3 km/h (2 Bft) SW 220 1 min 0,000 mm 0,0 UV-I 185 W/m 15,3 C 17,4 C 12,9 km/h (3 Bft) 81,82 %
26.06.2017 06:56 18,7 C 25,6 C 81 % 1012,7 hPa 0,0 l/m 10,6 km/h (2 Bft) SW 236 2 min 0,000 mm 0,0 UV-I 192 W/m 15,4 C 17,0 C 16,1 km/h (3 Bft) 100,00 %
26.06.2017 06:58 18,7 C 25,6 C 81 % 1012,8 hPa 0,0 l/m 6,8 km/h (2 Bft) W-SW 241 2 min 0,000 mm 0,0 UV-I 164 W/m 15,4 C 18,5 C 11,3 km/h (2 Bft) 95,74 %
26.06.2017 07:00 18,8 C 25,6 C 80 % 1012,7 hPa 0,0 l/m 10,6 km/h (2 Bft) SW 235 2 min 0,076 mm 0,0 UV-I 207 W/m 15,3 C 17,1 C 14,5 km/h (3 Bft) 95,74 %
26.06.2017 07:02 18,9 C 25,6 C 80 % 1012,8 hPa 0,0 l/m 9,3 km/h (2 Bft) SW 232 2 min 0,000 mm 0,0 UV-I 264 W/m 15,4 C 17,7 C 14,5 km/h (3 Bft) 97,62 %
26.06.2017 07:04 19,0 C 25,6 C 80 % 1012,7 hPa 0,0 l/m 9,1 km/h (2 Bft) W-SW 240 0 min 0,000 mm 0,0 UV-I 153 W/m 15,5 C 17,9 C 14,5 km/h (3 Bft) 94,64 %
26.06.2017 07:06 19,1 C 25,6 C 80 % 1012,8 hPa 0,0 l/m 8,6 km/h (2 Bft) S-SW 208 0 min 0,000 mm 0,0 UV-I 140 W/m 15,6 C 18,2 C 14,5 km/h (3 Bft) 100,00 %
26.06.2017 07:08 19,1 C 25,6 C 80 % 1012,8 hPa 0,0 l/m 8,8 km/h (2 Bft) SW 228 0 min 0,000 mm 0,0 UV-I 110 W/m 15,6 C 18,1 C 12,9 km/h (3 Bft) 97,56 %
26.06.2017 07:10 19,1 C 25,6 C 80 % 1012,8 hPa 0,0 l/m 8,9 km/h (2 Bft) SW 226 0 min 0,000 mm 0,0 UV-I 106 W/m 15,6 C 18,0 C 16,1 km/h (3 Bft) 96,43 %
26.06.2017 07:12 19,1 C 25,6 C 80 % 1012,8 hPa 0,0 l/m 11,8 km/h (2 Bft) W 263 0 min 0,000 mm 0,0 UV-I 93 W/m 15,6 C 17,1 C 17,7 km/h (3 Bft) 100,00 %
26.06.2017 07:14 19,1 C 25,6 C 80 % 1012,8 hPa 0,0 l/m 9,9 km/h (2 Bft) SW 235 0 min 0,000 mm 0,0 UV-I 85 W/m 15,6 C 17,7 C 14,5 km/h (3 Bft) 98,11 %
26.06.2017 07:16 19,0 C 25,6 C 80 % 1012,9 hPa 0,0 l/m 10,7 km/h (2 Bft) SW 230 0 min 0,000 mm 0,0 UV-I 89 W/m 15,5 C 17,3 C 17,7 km/h (3 Bft) 94,29 %
26.06.2017 07:18 19,0 C 25,6 C 80 % 1012,8 hPa 0,0 l/m 10,7 km/h (2 Bft) SW 219 0 min 0,000 mm 0,0 UV-I 96 W/m 15,5 C 17,3 C 16,1 km/h (3 Bft) 100,00 %
26.06.2017 07:20 19,0 C 25,6 C 80 % 1012,9 hPa 0,0 l/m 10,9 km/h (2 Bft) SW 219 0 min 0,000 mm 0,0 UV-I 101 W/m 15,5 C 17,2 C 14,5 km/h (3 Bft) 100,00 %
26.06.2017 07:22 19,0 C 25,6 C 80 % 1012,9 hPa 0,0 l/m 7,4 km/h (2 Bft) SW 224 0 min 0,000 mm 0,0 UV-I 97 W/m 15,5 C 18,6 C 9,7 km/h (2 Bft) 100,00 %
26.06.2017 07:24 19,0 C 25,6 C 80 % 1012,9 hPa 0,0 l/m 7,9 km/h (2 Bft) SW 236 0 min 0,000 mm 0,0 UV-I 84 W/m 15,5 C 18,3 C 14,5 km/h (3 Bft) 98,59 %
26.06.2017 07:26 19,0 C 25,6 C 80 % 1012,9 hPa 0,0 l/m 9,3 km/h (2 Bft) SW 236 0 min 0,000 mm 0,0 UV-I 82 W/m 15,5 C 17,8 C 12,9 km/h (3 Bft) 97,37 %
26.06.2017 07:28 19,0 C 25,6 C 80 % 1012,9 hPa 0,0 l/m 8,4 km/h (2 Bft) SW 235 0 min 0,000 mm 0,0 UV-I 87 W/m 15,5 C 18,1 C 12,9 km/h (3 Bft) 100,00 %
26.06.2017 07:30 19,0 C 25,6 C 80 % 1012,9 hPa 0,0 l/m 7,3 km/h (2 Bft) SW 232 0 min 0,000 mm 0,0 UV-I 90 W/m 15,5 C 18,6 C 11,3 km/h (2 Bft) 95,74 %
26.06.2017 07:32 19,0 C 25,6 C 80 % 1012,9 hPa 0,0 l/m 7,5 km/h (2 Bft) W-SW 240 0 min 0,000 mm 0,0 UV-I 86 W/m 15,5 C 18,5 C 11,3 km/h (2 Bft) 100,00 %
26.06.2017 07:34 19,0 C 25,6 C 80 % 1012,9 hPa 0,0 l/m 7,2 km/h (2 Bft) W-SW 242 0 min 0,000 mm 0,0 UV-I 90 W/m 15,5 C 18,6 C 14,5 km/h (3 Bft) 95,74 %
26.06.2017 07:36 19,0 C 25,6 C 80 % 1013,0 hPa 0,0 l/m 8,4 km/h (2 Bft) W-SW 244 0 min 0,000 mm 0,0 UV-I 98 W/m 15,5 C 18,1 C 12,9 km/h (3 Bft) 100,00 %
26.06.2017 07:38 19,0 C 25,6 C 80 % 1013,0 hPa 0,0 l/m 9,5 km/h (2 Bft) SW 219 0 min 0,000 mm 0,0 UV-I 115 W/m 15,5 C 17,7 C 14,5 km/h (3 Bft) 100,00 %
26.06.2017 07:40 19,1 C 25,6 C 80 % 1012,9 hPa 0,0 l/m 7,9 km/h (2 Bft) SW 225 0 min 0,000 mm 0,4 UV-I 138 W/m 15,6 C 18,4 C 11,3 km/h (2 Bft) 98,11 %
26.06.2017 07:42 19,1 C 25,6 C 80 % 1013,0 hPa 0,0 l/m 8,3 km/h (2 Bft) W-SW 238 0 min 0,000 mm 0,5 UV-I 148 W/m 15,6 C 18,3 C 12,9 km/h (3 Bft) 100,00 %
26.06.2017 07:44 19,2 C 25,6 C 79 % 1013,0 hPa 0,0 l/m 6,4 km/h (2 Bft) SW 227 0 min 0,000 mm 0,6 UV-I 182 W/m 15,5 C 19,2 C 9,7 km/h (2 Bft) 98,21 %
26.06.2017 07:46 19,2 C 25,6 C 79 % 1013,0 hPa 0,0 l/m 6,6 km/h (2 Bft) W 259 2 min 0,000 mm 0,7 UV-I 236 W/m 15,5 C 19,1 C 9,7 km/h (2 Bft) 94,74 %
26.06.2017 07:48 19,3 C 25,6 C 79 % 1013,0 hPa 0,0 l/m 7,4 km/h (2 Bft) SW 231 0 min 0,000 mm 0,7 UV-I 211 W/m 15,6 C 18,9 C 14,5 km/h (3 Bft) 96,43 %
26.06.2017 07:50 19,4 C 25,6 C 78 % 1013,0 hPa 0,0 l/m 6,9 km/h (2 Bft) S-SW 200 0 min 0,000 mm 0,7 UV-I 199 W/m 15,5 C 19,2 C 11,3 km/h (2 Bft) 97,56 %
26.06.2017 07:52 19,5 C 25,6 C 78 % 1013,0 hPa 0,0 l/m 9,8 km/h (2 Bft) W-SW 250 0 min 0,000 mm 0,7 UV-I 199 W/m 15,6 C 18,2 C 17,7 km/h (3 Bft) 93,10 %
26.06.2017 07:54 19,6 C 25,6 C 76 % 1013,0 hPa 0,0 l/m 7,5 km/h (2 Bft) SW 222 2 min 0,000 mm 0,8 UV-I 235 W/m 15,2 C 19,1 C 11,3 km/h (2 Bft) 98,59 %
26.06.2017 07:56 19,7 C 25,6 C 77 % 1013,0 hPa 0,0 l/m 8,3 km/h (2 Bft) W-SW 237 2 min 0,000 mm 0,9 UV-I 246 W/m 15,5 C 18,9 C 14,5 km/h (3 Bft) 97,56 %
26.06.2017 07:58 19,8 C 25,6 C 77 % 1013,0 hPa 0,0 l/m 6,5 km/h (2 Bft) SW 236 2 min 0,000 mm 0,9 UV-I 252 W/m 15,6 C 19,8 C 11,3 km/h (2 Bft) 96,23 %
26.06.2017 08:00 19,9 C 25,6 C 76 % 1013,0 hPa 0,0 l/m 8,2 km/h (2 Bft) S-SW 207 2 min 0,102 mm 0,9 UV-I 320 W/m 15,5 C 19,2 C 14,5 km/h (3 Bft) 95,12 %
26.06.2017 08:02 20,1 C 25,6 C 76 % 1013,0 hPa 0,0 l/m 5,8 km/h (2 Bft) SW 228 2 min 0,000 mm 0,8 UV-I 338 W/m 15,7 C 20,1 C 14,5 km/h (3 Bft) 94,00 %
26.06.2017 08:04 20,2 C 25,6 C 75 % 1013,0 hPa 0,0 l/m 9,7 km/h (2 Bft) S-SW 193 0 min 0,000 mm 0,8 UV-I 216 W/m 15,6 C 19,0 C 16,1 km/h (3 Bft) 97,56 %
26.06.2017 08:06 20,2 C 25,6 C 74 % 1013,0 hPa 0,0 l/m 10,6 km/h (2 Bft) S-SW 206 0 min 0,000 mm 0,8 UV-I 212 W/m 15,4 C 18,7 C 14,5 km/h (3 Bft) 98,11 %
26.06.2017 08:08 20,1 C 25,6 C 74 % 1013,0 hPa 0,0 l/m 10,4 km/h (2 Bft) W-SW 257 0 min 0,000 mm 0,8 UV-I 227 W/m 15,3 C 18,6 C 16,1 km/h (3 Bft) 95,12 %
26.06.2017 08:10 20,1 C 25,6 C 74 % 1013,0 hPa 0,0 l/m 13,3 km/h (3 Bft) S-SW 213 0 min 0,000 mm 0,9 UV-I 224 W/m 15,3 C 17,8 C 19,3 km/h (3 Bft) 96,23 %
26.06.2017 08:12 20,1 C 25,6 C 74 % 1013,0 hPa 0,0 l/m 9,2 km/h (2 Bft) SW 221 0 min 0,000 mm 0,9 UV-I 237 W/m 15,3 C 19,0 C 17,7 km/h (3 Bft) 97,56 %
26.06.2017 08:14 20,2 C 25,6 C 74 % 1013,0 hPa 0,0 l/m 10,8 km/h (2 Bft) W-SW 255 0 min 0,000 mm 1,0 UV-I 236 W/m 15,4 C 18,6 C 16,1 km/h (3 Bft) 95,74 %
26.06.2017 08:16 20,2 C 25,6 C 74 % 1013,0 hPa 0,0 l/m 9,3 km/h (2 Bft) SW 232 0 min 0,000 mm 0,9 UV-I 216 W/m 15,4 C 19,1 C 12,9 km/h (3 Bft) 97,62 %
26.06.2017 08:18 20,2 C 25,6 C 74 % 1013,0 hPa 0,0 l/m 9,3 km/h (2 Bft) SW 217 0 min 0,000 mm 0,9 UV-I 222 W/m 15,4 C 19,1 C 16,1 km/h (3 Bft) 93,22 %
26.06.2017 08:20 20,2 C 25,6 C 74 % 1013,0 hPa 0,0 l/m 10,4 km/h (2 Bft) W 278 0 min 0,000 mm 0,9 UV-I 227 W/m 15,4 C 18,7 C 16,1 km/h (3 Bft) 95,45 %
26.06.2017 08:22 20,2 C 25,6 C 75 % 1013,0 hPa 0,0 l/m 6,9 km/h (2 Bft) SW 215 0 min 0,000 mm 1,0 UV-I 215 W/m 15,6 C 20,0 C 8,0 km/h (2 Bft) 97,78 %
26.06.2017 08:24 20,3 C 25,6 C 74 % 1013,0 hPa 0,0 l/m 6,7 km/h (2 Bft) SW 216 0 min 0,000 mm 1,0 UV-I 206 W/m 15,5 C 20,2 C 9,7 km/h (2 Bft) 100,00 %
26.06.2017 08:26 20,3 C 25,6 C 75 % 1013,0 hPa 0,0 l/m 10,4 km/h (2 Bft) SW 225 0 min 0,000 mm 1,1 UV-I 218 W/m 15,7 C 18,8 C 16,1 km/h (3 Bft) 96,61 %
26.06.2017 08:28 20,3 C 25,6 C 73 % 1013,0 hPa 0,0 l/m 9,5 km/h (2 Bft) SW 235 0 min 0,000 mm 1,1 UV-I 227 W/m 15,3 C 19,1 C 17,7 km/h (3 Bft) 97,14 %
26.06.2017 08:30 20,3 C 25,6 C 74 % 1013,0 hPa 0,0 l/m 10,2 km/h (2 Bft) S-SW 208 0 min 0,000 mm 1,1 UV-I 242 W/m 15,5 C 18,9 C 16,1 km/h (3 Bft) 98,11 %
26.06.2017 08:32 20,3 C 25,6 C 74 % 1013,0 hPa 0,0 l/m 12,7 km/h (3 Bft) W-SW 238 0 min 0,000 mm 1,2 UV-I 232 W/m 15,5 C 18,2 C 19,3 km/h (3 Bft) 98,11 %
26.06.2017 08:34 20,4 C 25,6 C 74 % 1013,0 hPa 0,0 l/m 9,9 km/h (2 Bft) SW 223 0 min 0,000 mm 1,4 UV-I 258 W/m 15,6 C 19,1 C 16,1 km/h (3 Bft) 94,74 %
26.06.2017 08:36 20,4 C 25,6 C 74 % 1013,0 hPa 0,0 l/m 7,8 km/h (2 Bft) W 260 2 min 0,000 mm 1,4 UV-I 299 W/m 15,6 C 19,8 C 12,9 km/h (3 Bft) 98,11 %
26.06.2017 08:38 20,6 C 25,6 C 74 % 1012,9 hPa 0,0 l/m 7,7 km/h (2 Bft) W-SW 257 0 min 0,000 mm 1,3 UV-I 278 W/m 15,8 C 20,1 C 16,1 km/h (3 Bft) 95,74 %
26.06.2017 08:40 20,7 C 25,6 C 73 % 1012,9 hPa 0,0 l/m 10,0 km/h (2 Bft) SW 215 0 min 0,000 mm 1,3 UV-I 257 W/m 15,7 C 19,4 C 14,5 km/h (3 Bft) 100,00 %
26.06.2017 08:42 20,7 C 25,6 C 73 % 1013,0 hPa 0,0 l/m 10,6 km/h (2 Bft) SW 221 0 min 0,000 mm 1,5 UV-I 262 W/m 15,7 C 19,2 C 14,5 km/h (3 Bft) 94,74 %
26.06.2017 08:44 20,8 C 25,6 C 72 % 1012,9 hPa 0,0 l/m 9,0 km/h (2 Bft) SW 228 2 min 0,000 mm 1,5 UV-I 304 W/m 15,6 C 19,8 C 14,5 km/h (3 Bft) 96,61 %
26.06.2017 08:46 20,8 C 25,6 C 72 % 1013,0 hPa 0,0 l/m 10,1 km/h (2 Bft) S 189 2 min 0,000 mm 1,6 UV-I 405 W/m 15,6 C 19,5 C 14,5 km/h (3 Bft) 100,00 %
26.06.2017 08:48 20,9 C 25,6 C 73 % 1012,9 hPa 0,0 l/m 12,6 km/h (3 Bft) S-SW 206 2 min 0,000 mm 1,8 UV-I 375 W/m 15,9 C 18,9 C 17,7 km/h (3 Bft) 98,21 %
26.06.2017 08:50 21,0 C 25,6 C 71 % 1013,0 hPa 0,0 l/m 13,5 km/h (3 Bft) SW 232 2 min 0,000 mm 1,6 UV-I 331 W/m 15,5 C 18,8 C 19,3 km/h (3 Bft) 100,00 %
26.06.2017 08:52 21,0 C 25,6 C 70 % 1013,0 hPa 0,0 l/m 14,3 km/h (3 Bft) W 264 2 min 0,000 mm 1,6 UV-I 325 W/m 15,3 C 18,6 C 19,3 km/h (3 Bft) 97,87 %
26.06.2017 08:54 21,1 C 25,6 C 72 % 1013,0 hPa 0,0 l/m 9,9 km/h (2 Bft) W-SW 246 0 min 0,000 mm 1,6 UV-I 306 W/m 15,8 C 19,9 C 16,1 km/h (3 Bft) 97,44 %
26.06.2017 08:56 21,1 C 25,6 C 71 % 1013,0 hPa 0,0 l/m 11,9 km/h (2 Bft) W 263 0 min 0,000 mm 1,5 UV-I 299 W/m 15,6 C 19,3 C 17,7 km/h (3 Bft) 98,18 %
26.06.2017 08:58 21,1 C 25,6 C 71 % 1013,1 hPa 0,0 l/m 9,3 km/h (2 Bft) SW 233 0 min 0,000 mm 1,4 UV-I 301 W/m 15,6 C 20,1 C 16,1 km/h (3 Bft) 95,24 %
26.06.2017 09:00 21,1 C 25,6 C 72 % 1013,1 hPa 0,0 l/m 11,4 km/h (2 Bft) SW 215 0 min 0,000 mm 1,2 UV-I 250 W/m 15,8 C 19,5 C 19,3 km/h (3 Bft) 97,73 %
26.06.2017 09:02 21,1 C 25,6 C 71 % 1013,1 hPa 0,0 l/m 11,9 km/h (2 Bft) W-SW 244 0 min 0,203 mm 1,2 UV-I 221 W/m 15,6 C 19,3 C 16,1 km/h (3 Bft) 94,34 %
26.06.2017 09:04 20,9 C 25,6 C 71 % 1013,1 hPa 0,0 l/m 11,7 km/h (2 Bft) W-SW 255 0 min 0,000 mm 1,3 UV-I 231 W/m 15,4 C 19,1 C 22,5 km/h (4 Bft) 97,56 %
26.06.2017 09:06 21,0 C 25,6 C 73 % 1013,1 hPa 0,0 l/m 6,8 km/h (2 Bft) W-SW 241 0 min 0,000 mm 1,3 UV-I 254 W/m 16,0 C 20,9 C 11,3 km/h (2 Bft) 96,23 %
26.06.2017 09:08 21,1 C 25,6 C 73 % 1013,0 hPa 0,0 l/m 7,2 km/h (2 Bft) S-SW 213 0 min 0,000 mm 1,3 UV-I 258 W/m 16,1 C 20,8 C 14,5 km/h (3 Bft) 98,00 %
26.06.2017 09:10 21,0 C 25,6 C 72 % 1013,1 hPa 0,0 l/m 8,8 km/h (2 Bft) SW 223 0 min 0,000 mm 1,3 UV-I 253 W/m 15,8 C 20,1 C 14,5 km/h (3 Bft) 97,37 %
26.06.2017 09:12 21,0 C 25,6 C 72 % 1013,1 hPa 0,0 l/m 12,0 km/h (2 Bft) W-SW 244 0 min 0,000 mm 1,3 UV-I 247 W/m 15,8 C 19,2 C 17,7 km/h (3 Bft) 95,12 %
26.06.2017 09:14 20,9 C 25,6 C 72 % 1013,0 hPa 0,0 l/m 11,9 km/h (2 Bft) SW 225 0 min 0,000 mm 1,4 UV-I 244 W/m 15,7 C 19,1 C 17,7 km/h (3 Bft) 94,34 %
26.06.2017 09:16 20,9 C 25,6 C 72 % 1013,0 hPa 0,0 l/m 13,9 km/h (3 Bft) W-SW 238 0 min 0,000 mm 1,5 UV-I 253 W/m 15,7 C 18,6 C 17,7 km/h (3 Bft) 96,43 %
26.06.2017 09:18 21,0 C 25,6 C 72 % 1013,0 hPa 0,0 l/m 10,2 km/h (2 Bft) W-SW 249 0 min 0,000 mm 1,6 UV-I 287 W/m 15,8 C 19,7 C 16,1 km/h (3 Bft) 97,14 %
26.06.2017 09:20 21,1 C 25,6 C 72 % 1013,0 hPa 0,0 l/m 11,7 km/h (2 Bft) S-SW 207 0 min 0,000 mm 1,6 UV-I 281 W/m 15,8 C 19,4 C 17,7 km/h (3 Bft) 96,23 %
26.06.2017 09:22 21,1 C 25,6 C 73 % 1013,0 hPa 0,0 l/m 9,9 km/h (2 Bft) S-SW 208 0 min 0,000 mm 1,5 UV-I 274 W/m 16,1 C 19,9 C 16,1 km/h (3 Bft) 96,00 %
26.06.2017 09:24 21,1 C 25,6 C 73 % 1013,0 hPa 0,0 l/m 9,6 km/h (2 Bft) S 189 0 min 0,000 mm 1,4 UV-I 266 W/m 16,1 C 20,0 C 12,9 km/h (3 Bft) 91,49 %
26.06.2017 09:26 21,2 C 25,6 C 72 % 1013,0 hPa 0,0 l/m 8,8 km/h (2 Bft) S-SW 205 0 min 0,000 mm 1,4 UV-I 265 W/m 15,9 C 20,3 C 14,5 km/h (3 Bft) 97,56 %
26.06.2017 09:28 21,2 C 25,6 C 73 % 1013,0 hPa 0,0 l/m 8,7 km/h (2 Bft) SW 229 0 min 0,000 mm 1,4 UV-I 257 W/m 16,2 C 20,4 C 12,9 km/h (3 Bft) 96,23 %
26.06.2017 09:30 21,2 C 25,6 C 72 % 1012,9 hPa 0,0 l/m 11,0 km/h (2 Bft) S 178 0 min 0,000 mm 1,5 UV-I 262 W/m 15,9 C 19,7 C 17,7 km/h (3 Bft) 95,12 %
26.06.2017 09:32 21,2 C 25,6 C 71 % 1012,9 hPa 0,0 l/m 7,4 km/h (2 Bft) SW 235 0 min 0,000 mm 1,5 UV-I 264 W/m 15,7 C 20,8 C 12,9 km/h (3 Bft) 98,00 %
26.06.2017 09:34 21,3 C 25,6 C 72 % 1012,9 hPa 0,0 l/m 7,6 km/h (2 Bft) S-SW 207 0 min 0,000 mm 1,6 UV-I 278 W/m 16,0 C 20,9 C 11,3 km/h (2 Bft) 97,87 %
26.06.2017 09:36 21,4 C 25,6 C 73 % 1012,9 hPa 0,0 l/m 8,0 km/h (2 Bft) SW 221 0 min 0,000 mm 1,8 UV-I 302 W/m 16,4 C 20,8 C 16,1 km/h (3 Bft) 97,44 %
26.06.2017 09:38 21,4 C 25,6 C 70 % 1012,9 hPa 0,0 l/m 9,1 km/h (2 Bft) SW 231 0 min 0,000 mm 2,0 UV-I 338 W/m 15,7 C 20,5 C 17,7 km/h (3 Bft) 98,21 %
26.06.2017 09:40 21,6 C 25,6 C 72 % 1012,8 hPa 0,0 l/m 5,9 km/h (2 Bft) S-SW 209 0 min 0,000 mm 2,1 UV-I 351 W/m 16,3 C 21,6 C 9,7 km/h (2 Bft) 97,37 %
26.06.2017 09:42 21,7 C 25,6 C 70 % 1012,8 hPa 0,0 l/m 8,8 km/h (2 Bft) S-SO 167 0 min 0,000 mm 2,1 UV-I 352 W/m 16,0 C 20,9 C 14,5 km/h (3 Bft) 96,23 %
26.06.2017 09:44 21,8 C 25,6 C 70 % 1012,8 hPa 0,0 l/m 6,9 km/h (2 Bft) W-SW 244 0 min 0,000 mm 2,2 UV-I 355 W/m 16,1 C 21,6 C 11,3 km/h (2 Bft) 92,68 %
26.06.2017 09:46 21,8 C 25,6 C 68 % 1012,8 hPa 0,0 l/m 8,4 km/h (2 Bft) S-SO 167 2 min 0,000 mm 2,4 UV-I 395 W/m 15,6 C 21,1 C 14,5 km/h (3 Bft) 91,53 %
26.06.2017 09:48 21,9 C 25,6 C 69 % 1012,8 hPa 0,0 l/m 7,2 km/h (2 Bft) SW 227 2 min 0,000 mm 2,5 UV-I 438 W/m 15,9 C 21,6 C 11,3 km/h (2 Bft) 92,86 %
26.06.2017 09:50 22,1 C 25,6 C 69 % 1012,8 hPa 0,0 l/m 4,6 km/h (1 Bft) S-SW 192 0 min 0,000 mm 2,4 UV-I 356 W/m 16,1 C 22,1 C 9,7 km/h (2 Bft) 93,62 %
26.06.2017 09:52 22,2 C 23,9 C 67 % 1012,8 hPa 0,0 l/m 10,9 km/h (2 Bft) SW 232 0 min 0,000 mm 2,6 UV-I 318 W/m 15,8 C 20,8 C 22,5 km/h (4 Bft) 90,24 %
26.06.2017 09:54 22,3 C 24,4 C 65 % 1012,8 hPa 0,0 l/m 12,9 km/h (3 Bft) W-SW 238 2 min 0,000 mm 3,4 UV-I 509 W/m 15,4 C 20,5 C 22,5 km/h (4 Bft) 96,23 %
26.06.2017 09:56 22,4 C 24,4 C 67 % 1012,8 hPa 0,0 l/m 9,5 km/h (2 Bft) S-SW 211 2 min 0,000 mm 3,9 UV-I 770 W/m 16,0 C 21,4 C 16,1 km/h (3 Bft) 88,46 %
26.06.2017 09:58 22,6 C 24,4 C 64 % 1012,8 hPa 0,0 l/m 10,9 km/h (2 Bft) S-SW 209 2 min 0,000 mm 3,8 UV-I 727 W/m 15,4 C 21,3 C 22,5 km/h (4 Bft) 95,59 %
26.06.2017 10:00 22,8 C 24,4 C 66 % 1012,7 hPa 0,0 l/m 10,7 km/h (2 Bft) W-SW 241 2 min 0,254 mm 3,9 UV-I 738 W/m 16,1 C 21,6 C 17,7 km/h (3 Bft) 95,12 %
26.06.2017 10:02 22,9 C 24,4 C 62 % 1012,7 hPa 0,0 l/m 10,2 km/h (2 Bft) W-SW 247 2 min 0,000 mm 4,0 UV-I 754 W/m 15,2 C 21,8 C 16,1 km/h (3 Bft) 90,00 %
26.06.2017 10:04 23,1 C 24,4 C 63 % 1012,7 hPa 0,0 l/m 10,9 km/h (2 Bft) SW 234 2 min 0,000 mm 3,9 UV-I 789 W/m 15,7 C 21,8 C 19,3 km/h (3 Bft) 90,24 %
26.06.2017 10:06 23,1 C 24,4 C 63 % 1012,7 hPa 0,0 l/m 11,8 km/h (2 Bft) W-SW 248 2 min 0,000 mm 4,2 UV-I 781 W/m 15,7 C 21,6 C 19,3 km/h (3 Bft) 94,64 %
26.06.2017 10:08 23,3 C 24,4 C 64 % 1012,7 hPa 0,0 l/m 9,5 km/h (2 Bft) S-SW 206 2 min 0,000 mm 4,3 UV-I 854 W/m 16,1 C 22,4 C 16,1 km/h (3 Bft) 90,91 %
26.06.2017 10:10 23,4 C 24,4 C 62 % 1012,6 hPa 0,0 l/m 9,0 km/h (2 Bft) SW 229 2 min 0,000 mm 4,3 UV-I 894 W/m 15,7 C 22,6 C 17,7 km/h (3 Bft) 97,44 %
26.06.2017 10:12 23,7 C 24,4 C 65 % 1012,6 hPa 0,0 l/m 8,7 km/h (2 Bft) S-SW 205 2 min 0,000 mm 3,7 UV-I 950 W/m 16,7 C 23,0 C 12,9 km/h (3 Bft) 96,36 %
26.06.2017 10:14 23,7 C 24,4 C 61 % 1012,6 hPa 0,0 l/m 7,2 km/h (2 Bft) SW 227 2 min 0,000 mm 2,5 UV-I 525 W/m 15,7 C 23,5 C 11,3 km/h (2 Bft) 92,86 %
26.06.2017 10:16 23,6 C 24,4 C 60 % 1012,6 hPa 0,0 l/m 12,1 km/h (2 Bft) S-SW 202 0 min 0,000 mm 2,0 UV-I 273 W/m 15,4 C 22,2 C 17,7 km/h (3 Bft) 97,87 %
26.06.2017 10:18 23,3 C 24,4 C 61 % 1012,6 hPa 0,0 l/m 12,5 km/h (3 Bft) SW 231 0 min 0,000 mm 1,8 UV-I 247 W/m 15,3 C 21,7 C 20,9 km/h (4 Bft) 98,18 %
26.06.2017 10:20 23,1 C 24,4 C 62 % 1012,7 hPa 0,0 l/m 8,0 km/h (2 Bft) W-SW 248 0 min 0,000 mm 1,7 UV-I 236 W/m 15,4 C 22,6 C 14,5 km/h (3 Bft) 96,30 %
26.06.2017 10:22 22,9 C 24,4 C 62 % 1012,6 hPa 0,0 l/m 13,1 km/h (3 Bft) S-SW 209 0 min 0,000 mm 1,7 UV-I 237 W/m 15,2 C 21,1 C 19,3 km/h (3 Bft) 96,61 %
26.06.2017 10:24 22,8 C 24,4 C 63 % 1012,6 hPa 0,0 l/m 5,9 km/h (2 Bft) SW 224 0 min 0,000 mm 1,6 UV-I 226 W/m 15,4 C 22,8 C 12,9 km/h (3 Bft) 100,00 %
26.06.2017 10:26 22,7 C 24,4 C 62 % 1012,7 hPa 0,0 l/m 4,2 km/h (1 Bft) W 275 0 min 0,000 mm 1,5 UV-I 204 W/m 15,0 C 22,7 C 6,4 km/h (2 Bft) 96,61 %
26.06.2017 10:28 22,7 C 24,4 C 63 % 1012,6 hPa 0,0 l/m 5,4 km/h (1 Bft) W-SW 245 0 min 0,000 mm 2,0 UV-I 266 W/m 15,3 C 22,7 C 8,0 km/h (2 Bft) 97,56 %
26.06.2017 10:30 22,7 C 24,4 C 63 % 1012,6 hPa 0,0 l/m 5,3 km/h (1 Bft) W-SW 240 0 min 0,000 mm 2,5 UV-I 323 W/m 15,3 C 22,7 C 8,0 km/h (2 Bft) 100,00 %
26.06.2017 10:32 22,8 C 24,4 C 62 % 1012,7 hPa 0,0 l/m 5,1 km/h (1 Bft) W-SW 252 0 min 0,000 mm 1,9 UV-I 285 W/m 15,1 C 22,8 C 6,4 km/h (2 Bft) 96,77 %
26.06.2017 10:34 22,8 C 24,4 C 64 % 1012,7 hPa 0,0 l/m 3,0 km/h (1 Bft) W-SW 252 0 min 0,000 mm 1,7 UV-I 237 W/m 15,6 C 22,8 C 4,8 km/h (1 Bft) 100,00 %
26.06.2017 10:36 22,8 C 24,4 C 63 % 1012,7 hPa 0,0 l/m 7,5 km/h (2 Bft) W-SW 240 0 min 0,000 mm 2,0 UV-I 249 W/m 15,4 C 22,4 C 12,9 km/h (3 Bft) 95,74 %
26.06.2017 10:38 22,8 C 24,4 C 60 % 1012,7 hPa 0,0 l/m 11,1 km/h (2 Bft) W-SW 240 0 min 0,000 mm 2,4 UV-I 302 W/m 14,6 C 21,5 C 19,3 km/h (3 Bft) 98,00 %
26.06.2017 10:40 22,9 C 24,4 C 61 % 1012,7 hPa 0,0 l/m 8,9 km/h (2 Bft) SW 234 0 min 0,000 mm 2,6 UV-I 326 W/m 15,0 C 22,1 C 17,7 km/h (3 Bft) 100,00 %
26.06.2017 10:42 23,0 C 24,4 C 60 % 1012,7 hPa 0,0 l/m 8,8 km/h (2 Bft) W-SW 257 0 min 0,000 mm 3,8 UV-I 338 W/m 14,8 C 22,3 C 14,5 km/h (3 Bft) 100,00 %
26.06.2017 10:44 23,3 C 24,4 C 60 % 1012,7 hPa 0,0 l/m 10,2 km/h (2 Bft) W-SW 258 0 min 0,000 mm 4,4 UV-I 360 W/m 15,1 C 22,2 C 16,1 km/h (3 Bft) 98,00 %
26.06.2017 10:46 23,4 C 24,4 C 58 % 1012,7 hPa 0,0 l/m 9,3 km/h (2 Bft) W-NW 288 0 min 0,000 mm 3,3 UV-I 409 W/m 14,7 C 22,6 C 19,3 km/h (3 Bft) 98,11 %
26.06.2017 10:48 23,4 C 24,4 C 58 % 1012,7 hPa 0,0 l/m 11,3 km/h (2 Bft) SW 217 0 min 0,000 mm 2,4 UV-I 345 W/m 14,7 C 22,1 C 17,7 km/h (3 Bft) 100,00 %
26.06.2017 10:50 23,3 C 24,4 C 59 % 1012,7 hPa 0,0 l/m 12,8 km/h (3 Bft) SW 227 0 min 0,000 mm 2,4 UV-I 338 W/m 14,8 C 21,7 C 20,9 km/h (4 Bft) 94,00 %
26.06.2017 10:52 23,3 C 24,4 C 58 % 1012,7 hPa 0,0 l/m 10,8 km/h (2 Bft) SW 220 0 min 0,000 mm 2,4 UV-I 324 W/m 14,6 C 22,1 C 19,3 km/h (3 Bft) 98,11 %
26.06.2017 10:54 23,3 C 24,4 C 60 % 1012,7 hPa 0,0 l/m 8,8 km/h (2 Bft) SW 229 0 min 0,000 mm 2,7 UV-I 350 W/m 15,1 C 22,6 C 16,1 km/h (3 Bft) 97,22 %
26.06.2017 10:56 23,3 C 24,4 C 60 % 1012,7 hPa 0,0 l/m 11,1 km/h (2 Bft) SW 217 0 min 0,000 mm 3,3 UV-I 395 W/m 15,1 C 22,0 C 19,3 km/h (3 Bft) 96,43 %
26.06.2017 10:58 23,3 C 24,4 C 58 % 1012,6 hPa 0,0 l/m 13,9 km/h (3 Bft) W 260 0 min 0,000 mm 3,2 UV-I 367 W/m 14,6 C 21,4 C 19,3 km/h (3 Bft) 97,87 %
26.06.2017 11:00 23,4 C 24,4 C 59 % 1012,6 hPa 0,0 l/m 11,5 km/h (2 Bft) SW 220 0 min 0,330 mm 4,6 UV-I 404 W/m 14,9 C 22,1 C 16,1 km/h (3 Bft) 100,00 %
26.06.2017 11:02 23,7 C 24,4 C 58 % 1012,6 hPa 0,0 l/m 11,1 km/h (2 Bft) W-SW 243 2 min 0,000 mm 4,2 UV-I 467 W/m 14,9 C 22,5 C 16,1 km/h (3 Bft) 94,12 %
26.06.2017 11:04 23,9 C 24,4 C 58 % 1012,5 hPa 0,0 l/m 9,3 km/h (2 Bft) S 183 2 min 0,000 mm 3,6 UV-I 523 W/m 15,1 C 23,1 C 16,1 km/h (3 Bft) 100,00 %
26.06.2017 11:06 23,9 C 24,4 C 57 % 1012,5 hPa 0,0 l/m 11,3 km/h (2 Bft) W-NW 296 0 min 0,000 mm 3,4 UV-I 347 W/m 14,9 C 22,7 C 20,9 km/h (4 Bft) 97,37 %
26.06.2017 11:10 23,9 C 24,4 C 56 % 1012,5 hPa 0,0 l/m 6,4 km/h (2 Bft) W 270 0 min 0,000 mm 4,2 UV-I 291 W/m 14,6 C 23,9 C 12,9 km/h (3 Bft) 98,25 %
26.06.2017 11:15 24,1 C 24,4 C 56 % 1012,4 hPa 0,0 l/m 4,8 km/h (1 Bft) W 270 5 min 0,000 mm 5,0 UV-I 782 W/m 14,8 C 24,1 C 12,9 km/h (3 Bft) 97,37 %
26.06.2017 11:18 24,1 C 24,4 C 55 % 1012,4 hPa 0,0 l/m 11,4 km/h (2 Bft) SW 229 0 min 0,000 mm 3,0 UV-I 264 W/m 14,5 C 22,9 C 14,5 km/h (3 Bft) 100,00 %
26.06.2017 11:20 23,9 C 24,4 C 55 % 1012,4 hPa 0,0 l/m 15,2 km/h (3 Bft) SW 226 0 min 0,000 mm 3,1 UV-I 266 W/m 14,3 C 21,9 C 22,5 km/h (4 Bft) 100,00 %
26.06.2017 11:22 23,8 C 24,4 C 54 % 1012,4 hPa 0,0 l/m 13,1 km/h (3 Bft) NW 324 0 min 0,000 mm 3,5 UV-I 277 W/m 13,9 C 22,2 C 20,9 km/h (4 Bft) 96,43 %
26.06.2017 11:24 23,8 C 24,4 C 55 % 1012,3 hPa 0,0 l/m 11,3 km/h (2 Bft) W-SW 242 0 min 0,000 mm 4,5 UV-I 272 W/m 14,2 C 22,6 C 17,7 km/h (3 Bft) 95,45 %
26.06.2017 11:26 23,8 C 24,4 C 56 % 1012,3 hPa 0,0 l/m 9,7 km/h (2 Bft) SW 232 2 min 0,000 mm 5,6 UV-I 825 W/m 14,5 C 22,9 C 16,1 km/h (3 Bft) 100,00 %
26.06.2017 11:28 24,1 C 24,4 C 54 % 1012,3 hPa 0,0 l/m 8,5 km/h (2 Bft) SW 234 2 min 0,000 mm 6,2 UV-I 1046 W/m 14,2 C 23,5 C 17,7 km/h (3 Bft) 100,00 %
26.06.2017 11:30 24,3 C 24,4 C 55 % 1012,2 hPa 0,0 l/m 9,9 km/h (2 Bft) W-SW 250 2 min 0,000 mm 4,5 UV-I 1063 W/m 14,7 C 23,4 C 17,7 km/h (3 Bft) 95,12 %
26.06.2017 11:32 24,3 C 24,4 C 55 % 1012,2 hPa 0,0 l/m 15,4 km/h (3 Bft) SW 227 2 min 0,000 mm 4,7 UV-I 1063 W/m 14,7 C 22,4 C 20,9 km/h (4 Bft) 100,00 %
26.06.2017 11:34 24,4 C 24,4 C 54 % 1012,2 hPa 0,0 l/m 14,0 km/h (3 Bft) W-SW 246 2 min 0,000 mm 6,4 UV-I 1063 W/m 14,5 C 22,7 C 20,9 km/h (4 Bft) 97,62 %
26.06.2017 11:36 24,6 C 24,4 C 54 % 1012,2 hPa 0,0 l/m 13,4 km/h (3 Bft) SW 233 2 min 0,000 mm 6,1 UV-I 1063 W/m 14,7 C 23,1 C 20,9 km/h (4 Bft) 100,00 %
26.06.2017 11:38 24,7 C 24,4 C 55 % 1012,2 hPa 0,0 l/m 13,8 km/h (3 Bft) S-SW 197 2 min 0,000 mm 6,6 UV-I 1061 W/m 15,0 C 23,1 C 19,3 km/h (3 Bft) 96,00 %
26.06.2017 11:40 24,8 C 24,4 C 53 % 1012,1 hPa 0,0 l/m 12,8 km/h (3 Bft) S-SW 207 2 min 0,000 mm 6,5 UV-I 1020 W/m 14,6 C 23,4 C 19,3 km/h (3 Bft) 92,31 %
26.06.2017 11:42 25,1 C 24,4 C 55 % 1012,1 hPa 0,0 l/m 10,0 km/h (2 Bft) W 274 2 min 0,000 mm 5,3 UV-I 1027 W/m 15,4 C 24,3 C 16,1 km/h (3 Bft) 96,23 %
26.06.2017 11:44 25,1 C 24,4 C 52 % 1012,1 hPa 0,0 l/m 10,3 km/h (2 Bft) W 275 2 min 0,000 mm 6,3 UV-I 1002 W/m 14,5 C 24,2 C 22,5 km/h (4 Bft) 92,68 %
26.06.2017 11:46 25,1 C 24,4 C 52 % 1012,0 hPa 0,0 l/m 7,1 km/h (2 Bft) W-SW 250 2 min 0,000 mm 6,6 UV-I 961 W/m 14,5 C 24,9 C 12,9 km/h (3 Bft) 94,64 %
26.06.2017 11:48 25,2 C 24,4 C 55 % 1012,0 hPa 0,0 l/m 5,1 km/h (1 Bft) S-SW 206 2 min 0,000 mm 6,7 UV-I 998 W/m 15,5 C 25,2 C 8,0 km/h (2 Bft) 97,87 %
26.06.2017 11:50 25,7 C 24,4 C 52 % 1012,0 hPa 0,0 l/m 7,4 km/h (2 Bft) W 263 2 min 0,000 mm 5,7 UV-I 993 W/m 15,1 C 25,5 C 16,1 km/h (3 Bft) 97,37 %
26.06.2017 11:52 25,6 C 24,4 C 50 % 1012,1 hPa 0,0 l/m 7,8 km/h (2 Bft) W-SW 252 2 min 0,000 mm 6,9 UV-I 1033 W/m 14,4 C 25,3 C 14,5 km/h (3 Bft) 92,00 %
26.06.2017 11:54 25,3 C 24,4 C 50 % 1012,1 hPa 0,0 l/m 9,5 km/h (2 Bft) S-SW 202 2 min 0,000 mm 5,7 UV-I 1034 W/m 14,1 C 24,6 C 14,5 km/h (3 Bft) 95,12 %
26.06.2017 11:56 25,2 C 24,4 C 52 % 1012,1 hPa 0,0 l/m 5,7 km/h (1 Bft) W 267 2 min 0,000 mm 6,3 UV-I 1066 W/m 14,6 C 25,2 C 14,5 km/h (3 Bft) 96,43 %
26.06.2017 11:58 25,1 C 24,4 C 50 % 1012,1 hPa 0,0 l/m 6,1 km/h (2 Bft) W-SW 240 2 min 0,000 mm 5,2 UV-I 1063 W/m 13,9 C 25,1 C 12,9 km/h (3 Bft) 95,74 %
26.06.2017 12:00 24,9 C 24,4 C 52 % 1012,0 hPa 0,0 l/m 5,7 km/h (1 Bft) S-SW 211 2 min 0,508 mm 5,1 UV-I 1055 W/m 14,4 C 24,9 C 11,3 km/h (2 Bft) 95,45 %
26.06.2017 12:02 25,1 C 24,4 C 53 % 1012,0 hPa 0,0 l/m 12,8 km/h (3 Bft) W-SW 249 2 min 0,000 mm 5,5 UV-I 551 W/m 14,8 C 23,8 C 19,3 km/h (3 Bft) 97,56 %
26.06.2017 12:04 25,3 C 24,4 C 51 % 1012,0 hPa 0,0 l/m 12,8 km/h (3 Bft) SW 236 2 min 0,000 mm 5,3 UV-I 749 W/m 14,4 C 24,0 C 19,3 km/h (3 Bft) 96,23 %
26.06.2017 12:06 25,6 C 24,4 C 51 % 1012,0 hPa 0,0 l/m 9,8 km/h (2 Bft) W-SW 240 2 min 0,000 mm 7,0 UV-I 1024 W/m 14,7 C 24,9 C 22,5 km/h (4 Bft) 96,00 %
26.06.2017 12:08 25,8 C 24,4 C 50 % 1012,0 hPa 0,0 l/m 15,1 km/h (3 Bft) W 269 2 min 0,000 mm 5,7 UV-I 1016 W/m 14,6 C 24,3 C 29,0 km/h (5 Bft) 100,00 %
26.06.2017 12:10 25,7 C 24,4 C 49 % 1012,0 hPa 0,0 l/m 12,9 km/h (3 Bft) W-SW 254 2 min 0,000 mm 6,4 UV-I 1036 W/m 14,2 C 24,5 C 17,7 km/h (3 Bft) 100,00 %
26.06.2017 12:12 25,7 C 24,4 C 50 % 1012,0 hPa 0,0 l/m 13,2 km/h (3 Bft) S-SW 212 2 min 0,000 mm 4,9 UV-I 1044 W/m 14,5 C 24,4 C 19,3 km/h (3 Bft) 92,86 %
26.06.2017 12:14 25,8 C 24,4 C 50 % 1012,0 hPa 0,0 l/m 10,3 km/h (2 Bft) SW 216 2 min 0,000 mm 7,3 UV-I 1001 W/m 14,6 C 25,0 C 16,1 km/h (3 Bft) 100,00 %
26.06.2017 12:16 25,9 C 24,4 C 51 % 1012,0 hPa 0,0 l/m 13,3 km/h (3 Bft) SW 224 2 min 0,000 mm 7,2 UV-I 995 W/m 15,0 C 24,6 C 20,9 km/h (4 Bft) 98,18 %
26.06.2017 12:18 25,8 C 24,4 C 49 % 1012,0 hPa 0,0 l/m 11,0 km/h (2 Bft) SW 235 2 min 0,000 mm 7,4 UV-I 1011 W/m 14,3 C 24,9 C 16,1 km/h (3 Bft) 100,00 %
26.06.2017 12:20 25,8 C 24,4 C 54 % 1011,9 hPa 0,0 l/m 8,3 km/h (2 Bft) W-SW 242 2 min 0,000 mm 7,4 UV-I 1046 W/m 15,8 C 25,4 C 16,1 km/h (3 Bft) 100,00 %
26.06.2017 12:22 26,1 C 25,0 C 50 % 1012,0 hPa 0,0 l/m 11,9 km/h (2 Bft) W-SW 248 2 min 0,000 mm 7,4 UV-I 1062 W/m 14,8 C 25,1 C 17,7 km/h (3 Bft) 97,44 %
26.06.2017 12:24 26,2 C 25,0 C 50 % 1012,0 hPa 0,0 l/m 7,7 km/h (2 Bft) W-SW 248 2 min 0,000 mm 7,5 UV-I 1082 W/m 14,9 C 25,9 C 16,1 km/h (3 Bft) 100,00 %
26.06.2017 12:26 26,3 C 24,4 C 51 % 1012,0 hPa 0,0 l/m 9,7 km/h (2 Bft) SW 229 2 min 0,000 mm 6,5 UV-I 1086 W/m 15,3 C 25,7 C 17,7 km/h (3 Bft) 97,37 %
26.06.2017 12:28 26,3 C 25,0 C 49 % 1012,0 hPa 0,0 l/m 13,4 km/h (3 Bft) W-SW 254 2 min 0,000 mm 6,0 UV-I 1086 W/m 14,7 C 25,1 C 22,5 km/h (4 Bft) 98,39 %
26.06.2017 12:30 26,2 C 25,0 C 47 % 1012,1 hPa 0,0 l/m 15,0 km/h (3 Bft) W-SW 257 2 min 0,000 mm 5,2 UV-I 1086 W/m 14,0 C 24,8 C 20,9 km/h (4 Bft) 98,00 %
26.06.2017 12:32 26,0 C 25,0 C 47 % 1012,0 hPa 0,0 l/m 9,8 km/h (2 Bft) W 259 2 min 0,000 mm 5,0 UV-I 1017 W/m 13,8 C 25,3 C 19,3 km/h (3 Bft) 98,11 %
26.06.2017 12:34 26,0 C 25,0 C 48 % 1012,0 hPa 0,0 l/m 8,6 km/h (2 Bft) W 269 2 min 0,000 mm 5,9 UV-I 699 W/m 14,1 C 25,5 C 14,5 km/h (3 Bft) 97,37 %
26.06.2017 12:36 26,2 C 25,0 C 47 % 1011,9 hPa 0,0 l/m 8,4 km/h (2 Bft) W-SW 244 2 min 0,000 mm 7,7 UV-I 1089 W/m 14,0 C 25,8 C 14,5 km/h (3 Bft) 100,00 %
26.06.2017 12:38 26,3 C 25,0 C 48 % 1012,0 hPa 0,0 l/m 13,1 km/h (3 Bft) SW 236 2 min 0,000 mm 6,6 UV-I 1036 W/m 14,4 C 25,1 C 20,9 km/h (4 Bft) 100,00 %
26.06.2017 12:40 26,6 C 25,0 C 48 % 1011,9 hPa 0,0 l/m 10,3 km/h (2 Bft) S-SW 213 2 min 0,000 mm 7,4 UV-I 1058 W/m 14,7 C 25,9 C 16,1 km/h (3 Bft) 97,73 %
26.06.2017 12:42 26,6 C 25,0 C 47 % 1011,9 hPa 0,0 l/m 11,8 km/h (2 Bft) S-SW 192 2 min 0,000 mm 5,3 UV-I 853 W/m 14,3 C 25,7 C 19,3 km/h (3 Bft) 98,00 %
26.06.2017 12:44 26,6 C 25,0 C 47 % 1011,9 hPa 0,0 l/m 9,2 km/h (2 Bft) W-SW 248 0 min 0,000 mm 5,2 UV-I 345 W/m 14,3 C 26,1 C 20,9 km/h (4 Bft) 100,00 %
26.06.2017 12:46 26,3 C 25,0 C 48 % 1011,9 hPa 0,0 l/m 5,8 km/h (2 Bft) W-NW 284 0 min 0,000 mm 4,2 UV-I 336 W/m 14,4 C 26,3 C 14,5 km/h (3 Bft) 94,64 %
26.06.2017 12:48 26,1 C 25,0 C 48 % 1011,9 hPa 0,0 l/m 11,0 km/h (2 Bft) W-NW 294 0 min 0,000 mm 5,4 UV-I 348 W/m 14,2 C 25,2 C 19,3 km/h (3 Bft) 94,74 %
26.06.2017 12:50 25,8 C 25,0 C 49 % 1011,8 hPa 0,0 l/m 9,0 km/h (2 Bft) S-SW 207 0 min 0,000 mm 6,1 UV-I 348 W/m 14,3 C 25,2 C 17,7 km/h (3 Bft) 98,00 %
26.06.2017 12:52 26,1 C 25,0 C 50 % 1011,9 hPa 0,0 l/m 8,0 km/h (2 Bft) S-SW 201 0 min 0,000 mm 6,2 UV-I 412 W/m 14,8 C 25,8 C 12,9 km/h (3 Bft) 100,00 %
26.06.2017 12:54 26,3 C 25,0 C 48 % 1011,7 hPa 0,0 l/m 13,9 km/h (3 Bft) S-SW 199 2 min 0,000 mm 7,3 UV-I 1100 W/m 14,4 C 25,0 C 19,3 km/h (3 Bft) 96,43 %
26.06.2017 12:56 26,6 C 25,0 C 50 % 1011,8 hPa 0,0 l/m 12,9 km/h (3 Bft) SW 225 2 min 0,000 mm 7,5 UV-I 1090 W/m 15,3 C 25,5 C 22,5 km/h (4 Bft) 96,15 %
26.06.2017 12:58 26,9 C 25,0 C 49 % 1011,9 hPa 0,0 l/m 15,4 km/h (3 Bft) W-SW 239 2 min 0,000 mm 7,6 UV-I 1111 W/m 15,3 C 25,6 C 25,7 km/h (4 Bft) 97,78 %
26.06.2017 13:00 27,2 C 25,0 C 50 % 1011,8 hPa 0,0 l/m 10,8 km/h (2 Bft) SW 214 2 min 0,635 mm 7,8 UV-I 1110 W/m 15,9 C 26,5 C 17,7 km/h (3 Bft) 93,62 %
26.06.2017 13:02 27,4 C 25,0 C 45 % 1011,8 hPa 0,0 l/m 15,9 km/h (3 Bft) SW 214 2 min 0,000 mm 7,8 UV-I 1094 W/m 14,4 C 26,1 C 24,1 km/h (4 Bft) 97,87 %
26.06.2017 13:04 27,3 C 25,0 C 45 % 1011,8 hPa 0,0 l/m 9,7 km/h (2 Bft) SW 225 2 min 0,000 mm 7,1 UV-I 1097 W/m 14,3 C 26,7 C 16,1 km/h (3 Bft) 95,12 %
26.06.2017 13:06 27,2 C 25,0 C 46 % 1011,7 hPa 0,0 l/m 7,9 km/h (2 Bft) SW 236 2 min 0,000 mm 7,7 UV-I 1119 W/m 14,6 C 26,9 C 12,9 km/h (3 Bft) 96,00 %
26.06.2017 13:08 27,3 C 25,0 C 46 % 1011,8 hPa 0,0 l/m 11,3 km/h (2 Bft) W-NW 286 2 min 0,000 mm 7,6 UV-I 1148 W/m 14,6 C 26,5 C 22,5 km/h (4 Bft) 96,00 %
26.06.2017 13:10 27,3 C 25,0 C 45 % 1011,8 hPa 0,0 l/m 12,4 km/h (3 Bft) W-SW 250 2 min 0,000 mm 5,4 UV-I 1164 W/m 14,3 C 26,4 C 16,1 km/h (3 Bft) 95,12 %
26.06.2017 13:12 27,2 C 25,0 C 45 % 1011,8 hPa 0,0 l/m 13,4 km/h (3 Bft) W-SW 254 2 min 0,000 mm 4,6 UV-I 763 W/m 14,2 C 26,2 C 19,3 km/h (3 Bft) 97,73 %
26.06.2017 13:14 26,7 C 25,0 C 45 % 1011,7 hPa 0,0 l/m 8,0 km/h (2 Bft) W-SW 245 0 min 0,000 mm 4,6 UV-I 334 W/m 13,8 C 26,4 C 16,1 km/h (3 Bft) 96,15 %
26.06.2017 13:16 26,4 C 25,0 C 46 % 1011,7 hPa 0,0 l/m 11,3 km/h (2 Bft) W 277 0 min 0,000 mm 4,7 UV-I 348 W/m 13,8 C 25,5 C 17,7 km/h (3 Bft) 96,23 %
26.06.2017 13:18 26,5 C 25,0 C 47 % 1011,7 hPa 0,0 l/m 15,0 km/h (3 Bft) W 281 2 min 0,000 mm 7,3 UV-I 614 W/m 14,3 C 25,1 C 24,1 km/h (4 Bft) 97,14 %
26.06.2017 13:20 26,7 C 25,0 C 46 % 1011,8 hPa 0,0 l/m 16,3 km/h (3 Bft) W 263 2 min 0,000 mm 7,6 UV-I 1052 W/m 14,1 C 25,2 C 22,5 km/h (4 Bft) 94,34 %
26.06.2017 13:22 26,8 C 25,0 C 44 % 1011,6 hPa 0,0 l/m 9,7 km/h (2 Bft) SW 234 2 min 0,000 mm 7,7 UV-I 1065 W/m 13,5 C 26,2 C 16,1 km/h (3 Bft) 97,73 %
26.06.2017 13:24 26,8 C 25,0 C 45 % 1011,5 hPa 0,0 l/m 4,3 km/h (1 Bft) S 180 2 min 0,000 mm 7,5 UV-I 1058 W/m 13,9 C 26,8 C 16,1 km/h (3 Bft) 96,23 %
26.06.2017 13:26 26,9 C 25,0 C 46 % 1011,6 hPa 0,0 l/m 13,0 km/h (3 Bft) SW 234 2 min 0,000 mm 5,1 UV-I 1053 W/m 14,3 C 25,8 C 22,5 km/h (4 Bft) 96,30 %
26.06.2017 13:28 27,0 C 25,0 C 45 % 1011,5 hPa 0,0 l/m 9,4 km/h (2 Bft) SW 230 2 min 0,000 mm 7,2 UV-I 1071 W/m 14,0 C 26,5 C 14,5 km/h (3 Bft) 92,54 %
26.06.2017 13:30 27,0 C 25,0 C 46 % 1011,5 hPa 0,0 l/m 8,0 km/h (2 Bft) W-SW 246 2 min 0,000 mm 6,9 UV-I 1079 W/m 14,4 C 26,7 C 14,5 km/h (3 Bft) 97,87 %
26.06.2017 13:32 26,9 C 25,0 C 45 % 1011,4 hPa 0,0 l/m 4,7 km/h (1 Bft) O-SO 102 2 min 0,000 mm 7,6 UV-I 1050 W/m 13,9 C 26,9 C 9,7 km/h (2 Bft) 95,12 %
26.06.2017 13:34 26,9 C 25,0 C 45 % 1011,4 hPa 0,0 l/m 7,8 km/h (2 Bft) S 173 2 min 0,000 mm 7,6 UV-I 1039 W/m 13,9 C 26,6 C 16,1 km/h (3 Bft) 96,23 %
26.06.2017 13:36 27,1 C 25,0 C 46 % 1011,4 hPa 0,0 l/m 13,0 km/h (3 Bft) S-SW 201 2 min 0,000 mm 7,5 UV-I 1024 W/m 14,5 C 26,1 C 20,9 km/h (4 Bft) 94,87 %
26.06.2017 13:38 27,3 C 25,0 C 45 % 1011,4 hPa 0,0 l/m 15,4 km/h (3 Bft) S-SW 202 2 min 0,000 mm 7,3 UV-I 997 W/m 14,3 C 26,1 C 22,5 km/h (4 Bft) 94,34 %
26.06.2017 13:40 27,5 C 25,0 C 45 % 1011,3 hPa 0,0 l/m 15,2 km/h (3 Bft) SW 217 2 min 0,000 mm 7,3 UV-I 984 W/m 14,5 C 26,3 C 20,9 km/h (4 Bft) 91,49 %
26.06.2017 13:42 27,7 C 25,0 C 46 % 1011,3 hPa 0,0 l/m 16,6 km/h (3 Bft) W-SW 242 2 min 0,000 mm 7,3 UV-I 960 W/m 15,0 C 26,4 C 25,7 km/h (4 Bft) 94,00 %
26.06.2017 13:44 27,6 C 25,0 C 45 % 1011,3 hPa 0,0 l/m 13,9 km/h (3 Bft) W-SW 256 2 min 0,000 mm 6,6 UV-I 944 W/m 14,6 C 26,6 C 24,1 km/h (4 Bft) 89,36 %
26.06.2017 13:46 27,3 C 25,0 C 45 % 1011,3 hPa 0,0 l/m 12,4 km/h (3 Bft) W 281 2 min 0,000 mm 6,3 UV-I 940 W/m 14,3 C 26,4 C 20,9 km/h (4 Bft) 97,37 %
26.06.2017 13:48 27,2 C 25,0 C 45 % 1011,1 hPa 0,0 l/m 5,9 km/h (2 Bft) W-SW 248 2 min 0,000 mm 7,2 UV-I 928 W/m 14,2 C 27,2 C 14,5 km/h (3 Bft) 92,00 %
26.06.2017 13:50 27,3 C 25,0 C 48 % 1011,2 hPa 0,0 l/m 10,6 km/h (2 Bft) W-SW 243 2 min 0,000 mm 7,1 UV-I 916 W/m 15,3 C 26,6 C 16,1 km/h (3 Bft) 95,12 %
26.06.2017 13:52 27,7 C 25,0 C 45 % 1011,2 hPa 0,0 l/m 7,7 km/h (2 Bft) W 273 2 min 0,000 mm 7,1 UV-I 932 W/m 14,7 C 27,5 C 14,5 km/h (3 Bft) 96,43 %
26.06.2017 13:54 27,8 C 25,0 C 46 % 1011,2 hPa 0,0 l/m 7,5 km/h (2 Bft) W-SW 239 2 min 0,000 mm 7,2 UV-I 954 W/m 15,1 C 27,6 C 16,1 km/h (3 Bft) 94,29 %
26.06.2017 13:56 28,1 C 25,0 C 46 % 1011,1 hPa 0,0 l/m 12,1 km/h (2 Bft) SW 219 2 min 0,000 mm 7,2 UV-I 962 W/m 15,4 C 27,3 C 20,9 km/h (4 Bft) 96,61 %
26.06.2017 13:58 27,9 C 25,0 C 44 % 1011,1 hPa 0,0 l/m 15,9 km/h (3 Bft) S-SW 211 2 min 0,000 mm 7,1 UV-I 941 W/m 14,5 C 26,7 C 25,7 km/h (4 Bft) 97,87 %
26.06.2017 14:00 27,8 C 25,0 C 43 % 1011,2 hPa 0,0 l/m 16,1 km/h (3 Bft) SW 232 2 min 0,000 mm 7,0 UV-I 922 W/m 14,1 C 26,6 C 27,4 km/h (4 Bft) 94,74 %
26.06.2017 14:02 27,7 C 25,0 C 43 % 1011,1 hPa 0,0 l/m 10,5 km/h (2 Bft) S-SO 158 2 min 0,686 mm 7,0 UV-I 917 W/m 14,0 C 27,1 C 17,7 km/h (3 Bft) 92,86 %
26.06.2017 14:04 27,6 C 25,0 C 44 % 1011,1 hPa 0,0 l/m 8,4 km/h (2 Bft) W 274 2 min 0,000 mm 6,9 UV-I 914 W/m 14,2 C 27,3 C 14,5 km/h (3 Bft) 100,00 %
26.06.2017 14:06 27,6 C 25,0 C 45 % 1011,0 hPa 0,0 l/m 9,1 km/h (2 Bft) W-SW 238 2 min 0,000 mm 6,9 UV-I 915 W/m 14,6 C 27,2 C 17,7 km/h (3 Bft) 93,44 %
26.06.2017 14:08 27,7 C 25,0 C 44 % 1011,0 hPa 0,0 l/m 10,0 km/h (2 Bft) W-SW 249 2 min 0,000 mm 6,9 UV-I 913 W/m 14,3 C 27,1 C 16,1 km/h (3 Bft) 100,00 %
26.06.2017 14:10 27,7 C 25,0 C 44 % 1010,9 hPa 0,0 l/m 11,4 km/h (2 Bft) W-SW 256 2 min 0,000 mm 6,9 UV-I 904 W/m 14,3 C 27,0 C 19,3 km/h (3 Bft) 97,37 %
26.06.2017 14:13 27,8 C 25,6 C 45 % 1010,9 hPa 0,0 l/m 10,8 km/h (2 Bft) S-SW 202 3 min 0,000 mm 6,8 UV-I 898 W/m 14,8 C 27,2 C 19,3 km/h (3 Bft) 96,10 %
26.06.2017 14:14 27,8 C 25,6 C 43 % 1010,9 hPa 0,0 l/m 13,4 km/h (3 Bft) S-SW 208 1 min 0,000 mm 6,8 UV-I 893 W/m 14,1 C 26,9 C 17,7 km/h (3 Bft) 100,00 %
26.06.2017 14:16 28,1 C 25,6 C 43 % 1010,9 hPa 0,0 l/m 7,7 km/h (2 Bft) W-SW 255 2 min 0,000 mm 6,7 UV-I 888 W/m 14,3 C 27,9 C 14,5 km/h (3 Bft) 98,00 %
26.06.2017 14:18 28,0 C 25,6 C 44 % 1010,9 hPa 0,0 l/m 5,1 km/h (1 Bft) W 265 2 min 0,000 mm 6,7 UV-I 879 W/m 14,6 C 28,0 C 9,7 km/h (2 Bft) 97,87 %
26.06.2017 14:20 27,9 C 25,6 C 42 % 1010,9 hPa 0,0 l/m 7,7 km/h (2 Bft) W 279 2 min 0,000 mm 6,6 UV-I 870 W/m 13,8 C 27,7 C 16,1 km/h (3 Bft) 100,00 %
26.06.2017 14:22 27,7 C 25,6 C 44 % 1010,8 hPa 0,0 l/m 4,0 km/h (1 Bft) W-SW 244 2 min 0,000 mm 6,5 UV-I 861 W/m 14,3 C 27,7 C 8,0 km/h (2 Bft) 97,73 %
26.06.2017 14:24 27,8 C 25,6 C 44 % 1010,8 hPa 0,0 l/m 7,0 km/h (2 Bft) W 274 2 min 0,000 mm 6,6 UV-I 873 W/m 14,4 C 27,7 C 16,1 km/h (3 Bft) 100,00 %
26.06.2017 14:26 27,9 C 25,6 C 46 % 1010,7 hPa 0,0 l/m 3,5 km/h (1 Bft) NW 313 2 min 0,000 mm 6,6 UV-I 870 W/m 15,2 C 27,9 C 12,9 km/h (3 Bft) 97,56 %
26.06.2017 14:28 27,8 C 25,6 C 45 % 1010,7 hPa 0,0 l/m 2,6 km/h (1 Bft) S-SW 209 2 min 0,000 mm 6,5 UV-I 863 W/m 14,8 C 27,8 C 6,4 km/h (2 Bft) 100,00 %
26.06.2017 14:30 28,0 C 25,6 C 46 % 1010,6 hPa 0,0 l/m 3,4 km/h (1 Bft) SW 225 2 min 0,000 mm 6,5 UV-I 858 W/m 15,3 C 28,0 C 6,4 km/h (2 Bft) 97,14 %
26.06.2017 14:32 28,1 C 25,6 C 43 % 1010,6 hPa 0,0 l/m 6,4 km/h (2 Bft) W-SW 242 2 min 0,000 mm 6,4 UV-I 852 W/m 14,3 C 28,1 C 12,9 km/h (3 Bft) 100,00 %
26.06.2017 14:34 28,2 C 25,6 C 44 % 1010,7 hPa 0,0 l/m 4,9 km/h (1 Bft) W-NW 289 2 min 0,000 mm 6,4 UV-I 852 W/m 14,8 C 28,2 C 9,7 km/h (2 Bft) 100,00 %
26.06.2017 14:36 28,2 C 25,6 C 43 % 1010,7 hPa 0,0 l/m 8,0 km/h (2 Bft) SW 218 2 min 0,000 mm 6,4 UV-I 852 W/m 14,4 C 28,0 C 17,7 km/h (3 Bft) 100,00 %
26.06.2017 14:38 28,1 C 25,6 C 44 % 1010,7 hPa 0,0 l/m 5,8 km/h (2 Bft) SW 225 2 min 0,000 mm 6,4 UV-I 850 W/m 14,7 C 28,1 C 12,9 km/h (3 Bft) 98,00 %
26.06.2017 14:40 28,2 C 25,6 C 43 % 1010,6 hPa 0,0 l/m 12,6 km/h (3 Bft) SW 226 2 min 0,000 mm 6,3 UV-I 848 W/m 14,4 C 27,4 C 24,1 km/h (4 Bft) 97,56 %
26.06.2017 14:42 28,4 C 25,6 C 44 % 1010,7 hPa 0,0 l/m 4,8 km/h (1 Bft) NO 44 2 min 0,000 mm 6,3 UV-I 848 W/m 14,9 C 28,4 C 11,3 km/h (2 Bft) 100,00 %
26.06.2017 14:44 28,5 C 25,6 C 43 % 1010,6 hPa 0,0 l/m 5,6 km/h (1 Bft) W-SW 257 2 min 0,000 mm 6,3 UV-I 847 W/m 14,7 C 28,5 C 9,7 km/h (2 Bft) 95,12 %
26.06.2017 14:46 28,3 C 25,6 C 43 % 1010,6 hPa 0,0 l/m 2,2 km/h (1 Bft) S-SO 166 2 min 0,000 mm 6,2 UV-I 840 W/m 14,5 C 28,3 C 4,8 km/h (1 Bft) 100,00 %
26.06.2017 14:48 28,3 C 25,6 C 44 % 1010,6 hPa 0,0 l/m 2,7 km/h (1 Bft) N-NO 16 2 min 0,000 mm 6,1 UV-I 832 W/m 14,9 C 28,3 C 4,8 km/h (1 Bft) 97,44 %
26.06.2017 14:50 28,3 C 25,6 C 43 % 1010,5 hPa 0,0 l/m 3,6 km/h (1 Bft) N-NW 338 2 min 0,000 mm 6,0 UV-I 827 W/m 14,5 C 28,3 C 4,8 km/h (1 Bft) 98,00 %
26.06.2017 14:52 28,4 C 25,6 C 44 % 1010,5 hPa 0,0 l/m 5,3 km/h (1 Bft) W-NW 300 2 min 0,000 mm 6,0 UV-I 829 W/m 14,9 C 28,4 C 14,5 km/h (3 Bft) 96,15 %
26.06.2017 14:54 28,4 C 25,6 C 45 % 1010,5 hPa 0,0 l/m 3,8 km/h (1 Bft) W-NW 301 2 min 0,000 mm 5,9 UV-I 823 W/m 15,3 C 28,4 C 9,7 km/h (2 Bft) 97,87 %
26.06.2017 14:56 28,4 C 25,6 C 43 % 1010,5 hPa 0,0 l/m 5,5 km/h (1 Bft) W-SW 251 2 min 0,000 mm 5,9 UV-I 821 W/m 14,6 C 28,4 C 9,7 km/h (2 Bft) 100,00 %
26.06.2017 14:58 28,3 C 25,6 C 43 % 1010,5 hPa 0,0 l/m 9,0 km/h (2 Bft) W 279 2 min 0,000 mm 5,9 UV-I 822 W/m 14,5 C 27,9 C 19,3 km/h (3 Bft) 100,00 %
26.06.2017 15:00 28,2 C 25,6 C 45 % 1010,5 hPa 0,0 l/m 4,3 km/h (1 Bft) SW 217 2 min 0,635 mm 5,8 UV-I 817 W/m 15,1 C 28,2 C 11,3 km/h (2 Bft) 97,87 %
26.06.2017 15:02 28,2 C 25,6 C 43 % 1010,5 hPa 0,0 l/m 6,6 km/h (2 Bft) W-NW 286 2 min 0,000 mm 5,8 UV-I 813 W/m 14,4 C 28,2 C 11,3 km/h (2 Bft) 100,00 %
26.06.2017 15:04 28,1 C 25,6 C 43 % 1010,5 hPa 0,0 l/m 1,1 km/h (1 Bft) W-NW 286 2 min 0,000 mm 5,7 UV-I 805 W/m 14,3 C 28,1 C 3,2 km/h (1 Bft) 94,29 %
26.06.2017 15:06 27,8 C 25,6 C 44 % 1010,4 hPa 0,0 l/m 0,6 km/h (0 Bft) N-NW 344 2 min 0,000 mm 5,7 UV-I 806 W/m 14,4 C 27,8 C 3,2 km/h (1 Bft) 98,11 %
26.06.2017 15:08 28,0 C 25,6 C 44 % 1010,4 hPa 0,0 l/m 6,8 km/h (2 Bft) W 272 2 min 0,000 mm 5,7 UV-I 806 W/m 14,6 C 27,9 C 12,9 km/h (3 Bft) 100,00 %
26.06.2017 15:10 28,3 C 25,6 C 43 % 1010,3 hPa 0,0 l/m 5,4 km/h (1 Bft) W 273 2 min 0,000 mm 5,6 UV-I 802 W/m 14,5 C 28,3 C 14,5 km/h (3 Bft) 97,37 %
26.06.2017 15:12 28,4 C 25,6 C 42 % 1010,4 hPa 0,0 l/m 9,9 km/h (2 Bft) SW 230 2 min 0,000 mm 5,6 UV-I 801 W/m 14,2 C 27,9 C 16,1 km/h (3 Bft) 98,11 %
26.06.2017 15:14 28,4 C 25,6 C 42 % 1010,3 hPa 0,0 l/m 3,7 km/h (1 Bft) W 277 2 min 0,000 mm 5,6 UV-I 800 W/m 14,2 C 28,4 C 8,0 km/h (2 Bft) 100,00 %
26.06.2017 15:16 28,5 C 25,6 C 42 % 1010,3 hPa 0,0 l/m 5,8 km/h (2 Bft) W-SW 240 2 min 0,000 mm 5,5 UV-I 794 W/m 14,3 C 28,5 C 11,3 km/h (2 Bft) 97,73 %
26.06.2017 15:18 28,7 C 25,6 C 41 % 1010,3 hPa 0,0 l/m 5,8 km/h (2 Bft) W 280 2 min 0,000 mm 4,8 UV-I 788 W/m 14,1 C 28,7 C 12,9 km/h (3 Bft) 98,00 %
26.06.2017 15:20 28,6 C 25,6 C 40 % 1010,3 hPa 0,0 l/m 3,2 km/h (1 Bft) W-SW 244 2 min 0,000 mm 5,3 UV-I 785 W/m 13,7 C 28,6 C 6,4 km/h (2 Bft) 100,00 %
26.06.2017 15:22 28,4 C 25,6 C 42 % 1010,2 hPa 0,0 l/m 1,7 km/h (1 Bft) W-NW 296 2 min 0,000 mm 5,3 UV-I 785 W/m 14,2 C 28,4 C 6,4 km/h (2 Bft) 96,00 %
26.06.2017 15:24 28,5 C 25,6 C 43 % 1010,2 hPa 0,0 l/m 2,2 km/h (1 Bft) W-SW 248 2 min 0,000 mm 5,3 UV-I 782 W/m 14,7 C 28,5 C 6,4 km/h (2 Bft) 100,00 %
26.06.2017 15:26 28,6 C 25,6 C 42 % 1010,3 hPa 0,0 l/m 6,5 km/h (2 Bft) SW 215 2 min 0,000 mm 5,2 UV-I 779 W/m 14,4 C 28,6 C 12,9 km/h (3 Bft) 97,87 %
26.06.2017 15:28 28,7 C 25,6 C 42 % 1010,3 hPa 0,0 l/m 7,4 km/h (2 Bft) S-SW 213 2 min 0,000 mm 5,2 UV-I 776 W/m 14,5 C 28,6 C 14,5 km/h (3 Bft) 100,00 %
26.06.2017 15:30 28,7 C 25,6 C 41 % 1010,3 hPa 0,0 l/m 6,5 km/h (2 Bft) S-SW 196 2 min 0,000 mm 5,1 UV-I 774 W/m 14,1 C 28,7 C 12,9 km/h (3 Bft) 95,92 %
26.06.2017 15:32 28,6 C 25,6 C 41 % 1010,3 hPa 0,0 l/m 3,8 km/h (1 Bft) S-SW 205 2 min 0,000 mm 5,1 UV-I 772 W/m 14,0 C 28,6 C 11,3 km/h (2 Bft) 97,78 %
26.06.2017 15:34 28,6 C 25,6 C 42 % 1010,3 hPa 0,0 l/m 2,9 km/h (1 Bft) W 261 2 min 0,000 mm 5,1 UV-I 778 W/m 14,4 C 28,6 C 11,3 km/h (2 Bft) 97,56 %
26.06.2017 15:36 28,6 C 25,6 C 41 % 1010,2 hPa 0,0 l/m 3,0 km/h (1 Bft) NW 316 2 min 0,000 mm 4,9 UV-I 767 W/m 14,0 C 28,6 C 4,8 km/h (1 Bft) 98,28 %
26.06.2017 15:38 28,6 C 25,6 C 44 % 1010,2 hPa 0,0 l/m 2,5 km/h (1 Bft) W-NW 298 2 min 0,000 mm 4,9 UV-I 756 W/m 15,1 C 28,6 C 6,4 km/h (2 Bft) 97,37 %
26.06.2017 15:40 28,8 C 26,1 C 43 % 1010,2 hPa 0,0 l/m 3,1 km/h (1 Bft) NW 309 2 min 0,000 mm 4,8 UV-I 748 W/m 15,0 C 28,8 C 6,4 km/h (2 Bft) 98,11 %
26.06.2017 15:42 29,1 C 26,1 C 42 % 1010,2 hPa 0,0 l/m 2,1 km/h (1 Bft) W 277 2 min 0,000 mm 4,8 UV-I 746 W/m 14,9 C 29,1 C 4,8 km/h (1 Bft) 94,74 %
26.06.2017 15:44 29,1 C 26,1 C 44 % 1010,2 hPa 0,0 l/m 1,7 km/h (1 Bft) NW 312 2 min 0,000 mm 4,7 UV-I 740 W/m 15,6 C 29,1 C 4,8 km/h (1 Bft) 96,00 %
26.06.2017 15:46 29,3 C 26,1 C 40 % 1010,1 hPa 0,0 l/m 1,2 km/h (1 Bft) N 350 2 min 0,000 mm 4,7 UV-I 738 W/m 14,3 C 29,3 C 3,2 km/h (1 Bft) 97,83 %
26.06.2017 15:48 29,5 C 26,1 C 41 % 1010,1 hPa 0,0 l/m 4,5 km/h (1 Bft) W-SW 254 2 min 0,000 mm 4,7 UV-I 735 W/m 14,8 C 29,5 C 6,4 km/h (2 Bft) 94,00 %
26.06.2017 15:50 29,6 C 26,1 C 41 % 1010,1 hPa 0,0 l/m 2,8 km/h (1 Bft) SW 234 2 min 0,000 mm 4,5 UV-I 727 W/m 14,9 C 29,6 C 8,0 km/h (2 Bft) 97,87 %
26.06.2017 15:52 29,8 C 26,1 C 40 % 1010,0 hPa 0,0 l/m 5,4 km/h (1 Bft) N-NW 333 2 min 0,000 mm 4,5 UV-I 722 W/m 14,7 C 29,8 C 9,7 km/h (2 Bft) 95,12 %
26.06.2017 15:54 29,6 C 26,1 C 39 % 1010,1 hPa 0,0 l/m 4,4 km/h (1 Bft) S-SW 205 2 min 0,000 mm 4,4 UV-I 718 W/m 14,2 C 29,6 C 11,3 km/h (2 Bft) 97,87 %
26.06.2017 15:56 29,5 C 26,1 C 40 % 1010,0 hPa 0,0 l/m 2,5 km/h (1 Bft) N 355 2 min 0,000 mm 4,4 UV-I 719 W/m 14,5 C 29,5 C 12,9 km/h (3 Bft) 95,74 %
26.06.2017 15:58 29,4 C 26,1 C 41 % 1010,0 hPa 0,0 l/m 3,7 km/h (1 Bft) NW 318 2 min 0,000 mm 4,3 UV-I 712 W/m 14,7 C 29,4 C 8,0 km/h (2 Bft) 97,56 %
26.06.2017 16:00 29,3 C 26,1 C 41 % 1010,0 hPa 0,0 l/m 2,5 km/h (1 Bft) NW 324 2 min 0,533 mm 4,2 UV-I 711 W/m 14,7 C 29,3 C 4,8 km/h (1 Bft) 96,23 %
26.06.2017 16:02 29,1 C 26,1 C 40 % 1010,0 hPa 0,0 l/m 6,1 km/h (2 Bft) W-SW 255 2 min 0,000 mm 4,0 UV-I 702 W/m 14,1 C 29,1 C 12,9 km/h (3 Bft) 96,00 %
26.06.2017 16:04 28,9 C 26,1 C 42 % 1009,9 hPa 0,0 l/m 0,7 km/h (0 Bft) NW 319 2 min 0,000 mm 4,1 UV-I 697 W/m 14,7 C 28,9 C 3,2 km/h (1 Bft) 95,74 %
26.06.2017 16:06 29,0 C 26,1 C 41 % 1009,8 hPa 0,0 l/m 4,6 km/h (1 Bft) NW 326 2 min 0,000 mm 4,1 UV-I 694 W/m 14,4 C 29,0 C 11,3 km/h (2 Bft) 100,00 %
26.06.2017 16:08 29,1 C 26,1 C 39 % 1009,9 hPa 0,0 l/m 3,6 km/h (1 Bft) W 259 2 min 0,000 mm 4,0 UV-I 690 W/m 13,7 C 29,1 C 11,3 km/h (2 Bft) 97,87 %
26.06.2017 16:10 29,0 C 26,1 C 38 % 1009,9 hPa 0,0 l/m 5,2 km/h (1 Bft) W 261 2 min 0,000 mm 4,0 UV-I 687 W/m 13,2 C 29,0 C 9,7 km/h (2 Bft) 95,74 %
26.06.2017 16:12 29,0 C 26,1 C 40 % 1009,8 hPa 0,0 l/m 4,1 km/h (1 Bft) W 267 2 min 0,000 mm 4,0 UV-I 687 W/m 14,0 C 29,0 C 6,4 km/h (2 Bft) 96,00 %
26.06.2017 16:14 29,1 C 26,1 C 38 % 1009,8 hPa 0,0 l/m 4,2 km/h (1 Bft) NO 37 2 min 0,000 mm 3,9 UV-I 682 W/m 13,3 C 29,1 C 9,7 km/h (2 Bft) 98,00 %
26.06.2017 16:16 29,2 C 26,1 C 43 % 1009,8 hPa 0,0 l/m 3,0 km/h (1 Bft) NO 41 2 min 0,000 mm 3,9 UV-I 675 W/m 15,3 C 29,2 C 6,4 km/h (2 Bft) 97,50 %
26.06.2017 16:18 29,1 C 26,1 C 40 % 1009,7 hPa 0,0 l/m 3,0 km/h (1 Bft) S-SW 211 2 min 0,000 mm 3,8 UV-I 668 W/m 14,1 C 29,1 C 6,4 km/h (2 Bft) 98,00 %
26.06.2017 16:20 29,3 C 26,1 C 38 % 1009,7 hPa 0,0 l/m 2,8 km/h (1 Bft) W-SW 237 2 min 0,000 mm 3,7 UV-I 665 W/m 13,5 C 29,3 C 4,8 km/h (1 Bft) 92,68 %
26.06.2017 16:22 29,4 C 26,1 C 42 % 1009,6 hPa 0,0 l/m 1,3 km/h (1 Bft) NW 304 2 min 0,000 mm 3,7 UV-I 658 W/m 15,1 C 29,4 C 3,2 km/h (1 Bft) 96,00 %
26.06.2017 16:24 29,6 C 26,1 C 39 % 1009,7 hPa 0,0 l/m 1,4 km/h (1 Bft) NW 321 2 min 0,000 mm 3,6 UV-I 653 W/m 14,2 C 29,6 C 4,8 km/h (1 Bft) 98,18 %
26.06.2017 16:26 29,7 C 26,1 C 38 % 1009,7 hPa 0,0 l/m 4,1 km/h (1 Bft) W 273 2 min 0,000 mm 3,6 UV-I 650 W/m 13,8 C 29,7 C 6,4 km/h (2 Bft) 94,74 %
26.06.2017 16:28 29,4 C 26,1 C 38 % 1009,7 hPa 0,0 l/m 2,9 km/h (1 Bft) N-NW 327 2 min 0,000 mm 3,5 UV-I 645 W/m 13,6 C 29,4 C 4,8 km/h (1 Bft) 97,56 %
26.06.2017 16:30 29,1 C 26,1 C 38 % 1009,6 hPa 0,0 l/m 0,9 km/h (0 Bft) N-NW 333 2 min 0,000 mm 3,2 UV-I 639 W/m 13,3 C 29,1 C 4,8 km/h (1 Bft) 96,23 %
26.06.2017 16:32 29,1 C 26,1 C 39 % 1009,6 hPa 0,0 l/m 1,0 km/h (0 Bft) W 279 2 min 0,000 mm 3,4 UV-I 634 W/m 13,7 C 29,1 C 4,8 km/h (1 Bft) 96,00 %
26.06.2017 16:34 29,2 C 26,1 C 39 % 1009,7 hPa 0,0 l/m 2,4 km/h (1 Bft) NW 306 2 min 0,000 mm 3,3 UV-I 633 W/m 13,8 C 29,2 C 4,8 km/h (1 Bft) 94,34 %
26.06.2017 16:36 29,3 C 26,1 C 39 % 1009,6 hPa 0,0 l/m 4,1 km/h (1 Bft) S 187 2 min 0,000 mm 3,3 UV-I 625 W/m 13,9 C 29,3 C 6,4 km/h (2 Bft) 97,56 %
26.06.2017 16:38 29,6 C 26,1 C 40 % 1009,5 hPa 0,0 l/m 1,8 km/h (1 Bft) S-SW 209 2 min 0,000 mm 3,3 UV-I 621 W/m 14,5 C 29,6 C 4,8 km/h (1 Bft) 96,00 %
26.06.2017 16:40 29,7 C 26,1 C 40 % 1009,5 hPa 0,0 l/m 5,1 km/h (1 Bft) W-NW 288 2 min 0,000 mm 3,2 UV-I 616 W/m 14,6 C 29,7 C 12,9 km/h (3 Bft) 97,56 %
26.06.2017 16:42 29,5 C 26,1 C 38 % 1009,5 hPa 0,0 l/m 1,8 km/h (1 Bft) W-NW 285 2 min 0,000 mm 3,1 UV-I 610 W/m 13,7 C 29,5 C 6,4 km/h (2 Bft) 96,00 %
26.06.2017 16:44 29,4 C 26,1 C 39 % 1009,5 hPa 0,0 l/m 3,3 km/h (1 Bft) W-SW 239 2 min 0,000 mm 3,1 UV-I 606 W/m 14,0 C 29,4 C 12,9 km/h (3 Bft) 97,22 %
26.06.2017 16:46 29,3 C 26,1 C 39 % 1009,5 hPa 0,0 l/m 5,7 km/h (1 Bft) W-SW 239 2 min 0,000 mm 3,0 UV-I 598 W/m 13,9 C 29,3 C 11,3 km/h (2 Bft) 96,55 %
26.06.2017 16:48 29,1 C 26,1 C 40 % 1009,5 hPa 0,0 l/m 4,8 km/h (1 Bft) SW 235 2 min 0,000 mm 3,0 UV-I 595 W/m 14,1 C 29,1 C 11,3 km/h (2 Bft) 97,62 %
26.06.2017 16:50 29,1 C 26,1 C 38 % 1009,4 hPa 0,0 l/m 5,1 km/h (1 Bft) S-SW 196 2 min 0,000 mm 3,0 UV-I 592 W/m 13,3 C 29,1 C 9,7 km/h (2 Bft) 98,00 %
26.06.2017 16:52 29,1 C 26,1 C 39 % 1009,4 hPa 0,0 l/m 3,0 km/h (1 Bft) NW 315 2 min 0,000 mm 2,9 UV-I 587 W/m 13,7 C 29,1 C 4,8 km/h (1 Bft) 97,73 %
26.06.2017 16:54 28,9 C 26,1 C 40 % 1009,4 hPa 0,0 l/m 3,0 km/h (1 Bft) O-SO 102 2 min 0,000 mm 2,9 UV-I 581 W/m 13,9 C 28,9 C 6,4 km/h (2 Bft) 100,00 %
26.06.2017 16:56 28,9 C 26,1 C 39 % 1009,3 hPa 0,0 l/m 6,9 km/h (2 Bft) O-NO 78 2 min 0,000 mm 2,8 UV-I 575 W/m 13,5 C 28,8 C 12,9 km/h (3 Bft) 100,00 %
26.06.2017 16:58 28,9 C 26,1 C 39 % 1009,3 hPa 0,0 l/m 3,7 km/h (1 Bft) O-NO 78 2 min 0,000 mm 2,7 UV-I 569 W/m 13,5 C 28,9 C 6,4 km/h (2 Bft) 97,56 %
26.06.2017 17:00 29,1 C 26,1 C 39 % 1009,3 hPa 0,0 l/m 1,8 km/h (1 Bft) O-NO 78 2 min 0,000 mm 2,7 UV-I 562 W/m 13,7 C 29,1 C 4,8 km/h (1 Bft) 96,43 %
26.06.2017 17:02 29,2 C 26,1 C 40 % 1009,2 hPa 0,0 l/m 1,2 km/h (1 Bft) O-NO 78 2 min 0,457 mm 2,6 UV-I 559 W/m 14,2 C 29,2 C 3,2 km/h (1 Bft) 100,00 %
26.06.2017 17:04 29,3 C 26,1 C 38 % 1009,2 hPa 0,0 l/m 0,5 km/h (0 Bft) O-NO 75 2 min 0,000 mm 2,6 UV-I 552 W/m 13,5 C 29,3 C 1,6 km/h (1 Bft) 97,37 %
26.06.2017 17:06 29,3 C 26,1 C 38 % 1009,2 hPa 0,0 l/m 2,2 km/h (1 Bft) W-SW 247 2 min 0,000 mm 2,5 UV-I 546 W/m 13,5 C 29,3 C 8,0 km/h (2 Bft) 98,11 %
26.06.2017 17:08 29,3 C 26,1 C 39 % 1009,2 hPa 0,0 l/m 8,3 km/h (2 Bft) W-SW 237 2 min 0,000 mm 2,5 UV-I 542 W/m 13,9 C 29,1 C 12,9 km/h (3 Bft) 97,87 %
26.06.2017 17:10 29,4 C 26,1 C 37 % 1009,2 hPa 0,0 l/m 5,1 km/h (1 Bft) SW 225 2 min 0,000 mm 2,3 UV-I 538 W/m 13,2 C 29,4 C 8,0 km/h (2 Bft) 96,23 %
26.06.2017 17:12 29,3 C 26,1 C 38 % 1009,1 hPa 0,0 l/m 1,7 km/h (1 Bft) S 187 2 min 0,000 mm 2,3 UV-I 530 W/m 13,5 C 29,3 C 4,8 km/h (1 Bft) 97,56 %
26.06.2017 17:14 29,3 C 26,1 C 38 % 1009,1 hPa 0,0 l/m 2,3 km/h (1 Bft) S 188 2 min 0,000 mm 2,3 UV-I 526 W/m 13,5 C 29,3 C 6,4 km/h (2 Bft) 100,00 %
26.06.2017 17:16 29,3 C 26,1 C 38 % 1009,1 hPa 0,0 l/m 3,5 km/h (1 Bft) SW 221 2 min 0,000 mm 2,3 UV-I 521 W/m 13,5 C 29,3 C 6,4 km/h (2 Bft) 97,87 %
26.06.2017 17:18 29,2 C 26,1 C 38 % 1009,1 hPa 0,0 l/m 3,5 km/h (1 Bft) S-SW 194 2 min 0,000 mm 2,3 UV-I 517 W/m 13,4 C 29,2 C 11,3 km/h (2 Bft) 97,87 %
26.06.2017 17:20 29,2 C 26,1 C 39 % 1009,0 hPa 0,0 l/m 3,2 km/h (1 Bft) SW 230 2 min 0,000 mm 2,2 UV-I 512 W/m 13,8 C 29,2 C 6,4 km/h (2 Bft) 96,00 %
26.06.2017 17:22 29,1 C 26,1 C 40 % 1009,1 hPa 0,0 l/m 0,8 km/h (0 Bft) SW 230 2 min 0,000 mm 2,2 UV-I 509 W/m 14,1 C 29,1 C 3,2 km/h (1 Bft) 97,22 %
26.06.2017 17:24 29,1 C 26,1 C 41 % 1009,0 hPa 0,0 l/m 1,6 km/h (1 Bft) S-SW 200 2 min 0,000 mm 2,1 UV-I 501 W/m 14,5 C 29,1 C 8,0 km/h (2 Bft) 94,55 %
26.06.2017 17:26 29,3 C 26,1 C 39 % 1009,1 hPa 0,0 l/m 7,9 km/h (2 Bft) SO 146 2 min 0,000 mm 2,1 UV-I 495 W/m 13,9 C 29,1 C 14,5 km/h (3 Bft) 97,87 %
26.06.2017 17:28 29,4 C 26,1 C 39 % 1009,0 hPa 0,0 l/m 5,1 km/h (1 Bft) O-SO 114 2 min 0,000 mm 2,0 UV-I 489 W/m 14,0 C 29,4 C 9,7 km/h (2 Bft) 97,44 %
26.06.2017 17:30 29,6 C 26,1 C 39 % 1009,0 hPa 0,0 l/m 2,5 km/h (1 Bft) O-SO 112 2 min 0,000 mm 2,0 UV-I 483 W/m 14,2 C 29,6 C 6,4 km/h (2 Bft) 98,11 %
26.06.2017 17:32 29,4 C 26,1 C 37 % 1008,9 hPa 0,0 l/m 0,6 km/h (0 Bft) O-SO 112 2 min 0,000 mm 2,0 UV-I 477 W/m 13,2 C 29,4 C 3,2 km/h (1 Bft) 92,00 %
26.06.2017 17:34 29,3 C 26,1 C 38 % 1009,0 hPa 0,0 l/m 1,6 km/h (1 Bft) O-SO 112 2 min 0,000 mm 1,9 UV-I 472 W/m 13,5 C 29,3 C 3,2 km/h (1 Bft) 97,87 %
26.06.2017 17:36 29,3 C 26,1 C 37 % 1008,9 hPa 0,0 l/m 1,1 km/h (1 Bft) O-SO 112 2 min 0,000 mm 1,9 UV-I 466 W/m 13,1 C 29,3 C 4,8 km/h (1 Bft) 95,12 %
26.06.2017 17:38 29,3 C 26,1 C 40 % 1008,9 hPa 0,0 l/m 0,7 km/h (0 Bft) O-SO 112 2 min 0,000 mm 1,8 UV-I 462 W/m 14,3 C 29,3 C 3,2 km/h (1 Bft) 94,34 %
26.06.2017 17:40 29,4 C 26,1 C 39 % 1008,8 hPa 0,0 l/m 1,7 km/h (1 Bft) NO 38 2 min 0,000 mm 1,8 UV-I 457 W/m 14,0 C 29,4 C 6,4 km/h (2 Bft) 94,74 %
26.06.2017 17:42 29,6 C 26,1 C 40 % 1008,8 hPa 0,0 l/m 4,3 km/h (1 Bft) NO 47 2 min 0,000 mm 1,7 UV-I 450 W/m 14,5 C 29,6 C 6,4 km/h (2 Bft) 96,23 %
26.06.2017 17:44 29,8 C 26,1 C 40 % 1008,8 hPa 0,0 l/m 2,9 km/h (1 Bft) N 10 2 min 0,000 mm 1,7 UV-I 441 W/m 14,7 C 29,8 C 4,8 km/h (1 Bft) 96,15 %
26.06.2017 17:46 29,8 C 26,1 C 36 % 1008,9 hPa 0,0 l/m 1,4 km/h (1 Bft) N 10 2 min 0,000 mm 1,6 UV-I 434 W/m 13,1 C 29,8 C 3,2 km/h (1 Bft) 95,59 %
26.06.2017 17:48 29,6 C 26,1 C 38 % 1008,9 hPa 0,0 l/m 0,5 km/h (0 Bft) N-NW 345 2 min 0,000 mm 1,6 UV-I 430 W/m 13,8 C 29,6 C 3,2 km/h (1 Bft) 98,00 %
26.06.2017 17:50 29,6 C 26,1 C 38 % 1008,9 hPa 0,0 l/m 1,1 km/h (1 Bft) N-NW 347 2 min 0,000 mm 1,6 UV-I 426 W/m 13,8 C 29,6 C 3,2 km/h (1 Bft) 100,00 %
26.06.2017 17:52 29,6 C 26,1 C 37 % 1008,9 hPa 0,0 l/m 2,1 km/h (1 Bft) W 279 2 min 0,000 mm 1,5 UV-I 424 W/m 13,3 C 29,6 C 4,8 km/h (1 Bft) 98,46 %
26.06.2017 17:54 29,6 C 26,1 C 38 % 1008,9 hPa 0,0 l/m 1,1 km/h (1 Bft) NW 305 2 min 0,000 mm 1,5 UV-I 417 W/m 13,8 C 29,6 C 4,8 km/h (1 Bft) 96,00 %
26.06.2017 17:56 29,6 C 26,1 C 37 % 1008,8 hPa 0,0 l/m 4,1 km/h (1 Bft) W-NW 303 2 min 0,000 mm 1,5 UV-I 411 W/m 13,3 C 29,6 C 6,4 km/h (2 Bft) 100,00 %
26.06.2017 17:58 29,6 C 26,1 C 37 % 1008,8 hPa 0,0 l/m 0,8 km/h (0 Bft) NW 304 2 min 0,000 mm 1,4 UV-I 407 W/m 13,3 C 29,6 C 3,2 km/h (1 Bft) 95,12 %
26.06.2017 18:00 29,5 C 26,1 C 37 % 1008,8 hPa 0,0 l/m 1,1 km/h (1 Bft) NW 317 2 min 0,356 mm 1,4 UV-I 401 W/m 13,3 C 29,5 C 3,2 km/h (1 Bft) 98,00 %
26.06.2017 18:02 29,4 C 26,1 C 40 % 1008,8 hPa 0,0 l/m 1,7 km/h (1 Bft) N-NW 328 2 min 0,000 mm 1,4 UV-I 395 W/m 14,4 C 29,4 C 3,2 km/h (1 Bft) 97,44 %
26.06.2017 18:04 29,6 C 26,1 C 37 % 1008,8 hPa 0,0 l/m 1,3 km/h (1 Bft) W-NW 292 2 min 0,000 mm 1,3 UV-I 388 W/m 13,3 C 29,6 C 3,2 km/h (1 Bft) 98,28 %
26.06.2017 18:06 29,6 C 26,1 C 37 % 1008,7 hPa 0,0 l/m 1,1 km/h (1 Bft) W-NW 292 2 min 0,000 mm 1,3 UV-I 382 W/m 13,3 C 29,6 C 3,2 km/h (1 Bft) 95,83 %
26.06.2017 18:08 29,5 C 26,1 C 37 % 1008,7 hPa 0,0 l/m 0,8 km/h (0 Bft) W-NW 303 2 min 0,000 mm 1,3 UV-I 376 W/m 13,3 C 29,5 C 3,2 km/h (1 Bft) 97,87 %
26.06.2017 18:10 29,6 C 26,1 C 39 % 1008,7 hPa 0,0 l/m 0,3 km/h (0 Bft) W-NW 303 2 min 0,000 mm 1,2 UV-I 371 W/m 14,2 C 29,6 C 1,6 km/h (1 Bft) 97,56 %
26.06.2017 18:12 29,7 C 26,1 C 40 % 1008,7 hPa 0,0 l/m 2,6 km/h (1 Bft) N-NO 29 2 min 0,000 mm 1,2 UV-I 366 W/m 14,6 C 29,7 C 6,4 km/h (2 Bft) 97,87 %
26.06.2017 18:14 29,6 C 26,1 C 38 % 1008,6 hPa 0,0 l/m 4,0 km/h (1 Bft) O-NO 78 2 min 0,000 mm 1,2 UV-I 360 W/m 13,8 C 29,6 C 6,4 km/h (2 Bft) 98,00 %
26.06.2017 18:16 29,6 C 26,1 C 39 % 1008,7 hPa 0,0 l/m 3,7 km/h (1 Bft) O 79 2 min 0,000 mm 1,1 UV-I 354 W/m 14,2 C 29,6 C 6,4 km/h (2 Bft) 98,00 %
26.06.2017 18:18 29,5 C 26,1 C 37 % 1008,7 hPa 0,0 l/m 1,1 km/h (1 Bft) O-NO 78 2 min 0,000 mm 1,1 UV-I 348 W/m 13,3 C 29,5 C 3,2 km/h (1 Bft) 100,00 %
26.06.2017 18:20 29,5 C 26,1 C 39 % 1008,6 hPa 0,0 l/m 3,4 km/h (1 Bft) NO 53 2 min 0,000 mm 1,1 UV-I 343 W/m 14,1 C 29,5 C 6,4 km/h (2 Bft) 97,87 %
26.06.2017 18:22 29,4 C 26,1 C 39 % 1008,6 hPa 0,0 l/m 2,7 km/h (1 Bft) NO 53 2 min 0,000 mm 1,0 UV-I 338 W/m 14,0 C 29,4 C 4,8 km/h (1 Bft) 97,73 %
26.06.2017 18:24 29,4 C 26,1 C 40 % 1008,5 hPa 0,0 l/m 6,4 km/h (2 Bft) N-NO 28 2 min 0,000 mm 1,0 UV-I 334 W/m 14,4 C 29,4 C 9,7 km/h (2 Bft) 98,11 %
26.06.2017 18:26 29,4 C 26,1 C 41 % 1008,5 hPa 0,0 l/m 5,6 km/h (1 Bft) N-NO 33 2 min 0,000 mm 1,0 UV-I 326 W/m 14,7 C 29,4 C 8,0 km/h (2 Bft) 97,56 %
26.06.2017 18:28 29,3 C 26,1 C 39 % 1008,5 hPa 0,0 l/m 2,4 km/h (1 Bft) N-NO 22 2 min 0,000 mm 1,0 UV-I 321 W/m 13,9 C 29,3 C 4,8 km/h (1 Bft) 96,00 %
26.06.2017 18:30 29,3 C 26,1 C 39 % 1008,5 hPa 0,0 l/m 1,5 km/h (1 Bft) N-NW 329 2 min 0,000 mm 0,9 UV-I 314 W/m 13,9 C 29,3 C 3,2 km/h (1 Bft) 97,37 %
26.06.2017 18:32 29,3 C 26,1 C 37 % 1008,5 hPa 0,0 l/m 0,8 km/h (0 Bft) N 11 2 min 0,000 mm 0,9 UV-I 308 W/m 13,1 C 29,3 C 3,2 km/h (1 Bft) 97,87 %
26.06.2017 18:34 29,2 C 26,1 C 39 % 1008,5 hPa 0,0 l/m 2,1 km/h (1 Bft) NW 322 2 min 0,000 mm 0,9 UV-I 303 W/m 13,8 C 29,2 C 6,4 km/h (2 Bft) 98,00 %
26.06.2017 18:36 29,2 C 26,1 C 39 % 1008,4 hPa 0,0 l/m 1,8 km/h (1 Bft) N-NW 339 2 min 0,000 mm 0,8 UV-I 299 W/m 13,8 C 29,2 C 3,2 km/h (1 Bft) 97,56 %
26.06.2017 18:38 29,2 C 26,1 C 40 % 1008,4 hPa 0,0 l/m 1,2 km/h (1 Bft) N 355 2 min 0,000 mm 0,8 UV-I 294 W/m 14,2 C 29,2 C 3,2 km/h (1 Bft) 98,11 %
26.06.2017 18:40 29,2 C 26,1 C 39 % 1008,5 hPa 0,0 l/m 2,8 km/h (1 Bft) N-NO 13 2 min 0,000 mm 0,8 UV-I 252 W/m 13,8 C 29,2 C 6,4 km/h (2 Bft) 94,00 %
26.06.2017 18:42 29,1 C 26,1 C 38 % 1008,4 hPa 0,0 l/m 1,5 km/h (1 Bft) N 5 2 min 0,000 mm 0,7 UV-I 249 W/m 13,3 C 29,1 C 3,2 km/h (1 Bft) 100,00 %
26.06.2017 18:44 29,1 C 26,1 C 38 % 1008,4 hPa 0,0 l/m 0,8 km/h (0 Bft) N-NO 27 2 min 0,000 mm 0,7 UV-I 225 W/m 13,3 C 29,1 C 6,4 km/h (2 Bft) 94,87 %
26.06.2017 18:46 29,1 C 26,1 C 38 % 1008,4 hPa 0,0 l/m 3,4 km/h (1 Bft) NO 34 2 min 0,000 mm 0,7 UV-I 254 W/m 13,3 C 29,1 C 6,4 km/h (2 Bft) 98,00 %
26.06.2017 18:48 29,1 C 26,1 C 38 % 1008,4 hPa 0,0 l/m 1,9 km/h (1 Bft) NO 34 2 min 0,000 mm 0,7 UV-I 233 W/m 13,3 C 29,1 C 3,2 km/h (1 Bft) 97,87 %
26.06.2017 18:50 29,1 C 26,1 C 41 % 1008,4 hPa 0,0 l/m 2,9 km/h (1 Bft) NO 34 2 min 0,000 mm 0,7 UV-I 250 W/m 14,5 C 29,1 C 4,8 km/h (1 Bft) 96,23 %
26.06.2017 18:53 29,1 C 26,1 C 40 % 1008,3 hPa 0,0 l/m 3,3 km/h (1 Bft) N-NW 329 3 min 0,000 mm 0,6 UV-I 247 W/m 14,1 C 29,1 C 8,0 km/h (2 Bft) 96,72 %
26.06.2017 18:54 29,1 C 26,1 C 41 % 1008,3 hPa 0,0 l/m 3,8 km/h (1 Bft) N-NO 21 1 min 0,000 mm 0,6 UV-I 243 W/m 14,5 C 29,1 C 6,4 km/h (2 Bft) 95,83 %
26.06.2017 18:56 29,0 C 26,1 C 42 % 1008,3 hPa 0,0 l/m 6,4 km/h (2 Bft) NO 41 2 min 0,000 mm 0,6 UV-I 240 W/m 14,8 C 29,0 C 12,9 km/h (3 Bft) 96,00 %
26.06.2017 18:58 28,9 C 26,1 C 41 % 1008,3 hPa 0,0 l/m 7,4 km/h (2 Bft) N-NO 26 2 min 0,000 mm 0,6 UV-I 235 W/m 14,3 C 28,8 C 11,3 km/h (2 Bft) 87,80 %
26.06.2017 19:00 28,9 C 26,1 C 41 % 1008,3 hPa 0,0 l/m 8,1 km/h (2 Bft) N-NO 32 2 min 0,000 mm 0,6 UV-I 229 W/m 14,3 C 28,7 C 12,9 km/h (3 Bft) 91,49 %
26.06.2017 19:02 28,8 C 26,1 C 41 % 1008,3 hPa 0,0 l/m 6,2 km/h (2 Bft) N-NO 31 2 min 0,229 mm 0,5 UV-I 225 W/m 14,2 C 28,8 C 8,0 km/h (2 Bft) 94,34 %
26.06.2017 19:04 28,8 C 26,1 C 42 % 1008,3 hPa 0,0 l/m 7,4 km/h (2 Bft) N-NO 27 2 min 0,000 mm 0,5 UV-I 218 W/m 14,6 C 28,7 C 11,3 km/h (2 Bft) 92,68 %
26.06.2017 19:06 28,8 C 26,1 C 42 % 1008,3 hPa 0,0 l/m 5,5 km/h (1 Bft) N 9 2 min 0,000 mm 0,5 UV-I 214 W/m 14,6 C 28,8 C 9,7 km/h (2 Bft) 92,00 %
26.06.2017 19:08 28,8 C 26,1 C 43 % 1008,3 hPa 0,0 l/m 6,4 km/h (2 Bft) N-NO 32 2 min 0,000 mm 0,5 UV-I 209 W/m 15,0 C 28,8 C 11,3 km/h (2 Bft) 95,45 %
26.06.2017 19:10 28,7 C 26,1 C 43 % 1008,2 hPa 0,0 l/m 6,5 km/h (2 Bft) N-NO 19 2 min 0,000 mm 0,5 UV-I 203 W/m 14,9 C 28,7 C 9,7 km/h (2 Bft) 90,00 %
26.06.2017 19:12 28,7 C 26,1 C 42 % 1008,2 hPa 0,0 l/m 2,4 km/h (1 Bft) N-NO 13 2 min 0,000 mm 0,0 UV-I 190 W/m 14,5 C 28,7 C 11,3 km/h (2 Bft) 96,00 %
26.06.2017 19:14 28,6 C 26,1 C 43 % 1008,2 hPa 0,0 l/m 6,1 km/h (2 Bft) N-NO 30 2 min 0,000 mm 0,0 UV-I 169 W/m 14,8 C 28,6 C 11,3 km/h (2 Bft) 90,24 %
26.06.2017 19:16 28,5 C 26,1 C 43 % 1008,2 hPa 0,0 l/m 7,7 km/h (2 Bft) N-NO 15 2 min 0,000 mm 0,0 UV-I 155 W/m 14,7 C 28,3 C 11,3 km/h (2 Bft) 92,00 %
26.06.2017 19:18 28,4 C 26,1 C 43 % 1008,1 hPa 0,0 l/m 7,9 km/h (2 Bft) N-NO 31 2 min 0,000 mm 0,0 UV-I 175 W/m 14,6 C 28,2 C 9,7 km/h (2 Bft) 94,00 %
26.06.2017 19:20 28,4 C 26,1 C 43 % 1008,1 hPa 0,0 l/m 6,3 km/h (2 Bft) N-NO 32 2 min 0,000 mm 0,0 UV-I 158 W/m 14,6 C 28,4 C 12,9 km/h (3 Bft) 93,18 %
26.06.2017 19:22 28,3 C 26,1 C 44 % 1008,1 hPa 0,0 l/m 6,4 km/h (2 Bft) N-NO 25 0 min 0,000 mm 0,0 UV-I 90 W/m 14,9 C 28,3 C 11,3 km/h (2 Bft) 92,86 %
26.06.2017 19:24 28,1 C 26,1 C 45 % 1008,1 hPa 0,0 l/m 5,8 km/h (2 Bft) N-NO 26 0 min 0,000 mm 0,0 UV-I 41 W/m 15,0 C 28,1 C 11,3 km/h (2 Bft) 92,45 %
26.06.2017 19:26 27,7 C 26,1 C 44 % 1008,1 hPa 0,0 l/m 4,0 km/h (1 Bft) N-NO 21 0 min 0,000 mm 0,0 UV-I 60 W/m 14,3 C 27,7 C 8,0 km/h (2 Bft) 95,12 %
26.06.2017 19:28 27,4 C 26,1 C 46 % 1008,0 hPa 0,0 l/m 5,8 km/h (2 Bft) NO 42 0 min 0,000 mm 0,0 UV-I 83 W/m 14,7 C 27,4 C 9,7 km/h (2 Bft) 96,00 %
26.06.2017 19:30 27,3 C 26,1 C 46 % 1008,1 hPa 0,0 l/m 4,4 km/h (1 Bft) N-NO 27 2 min 0,000 mm 0,0 UV-I 148 W/m 14,6 C 27,3 C 6,4 km/h (2 Bft) 97,73 %
26.06.2017 19:32 27,3 C 26,1 C 46 % 1008,0 hPa 0,0 l/m 4,8 km/h (1 Bft) N-NO 33 2 min 0,000 mm 0,0 UV-I 149 W/m 14,6 C 27,3 C 8,0 km/h (2 Bft) 96,00 %
26.06.2017 19:34 27,4 C 26,1 C 47 % 1008,1 hPa 0,0 l/m 5,3 km/h (1 Bft) NO 40 2 min 0,000 mm 0,0 UV-I 145 W/m 15,1 C 27,4 C 8,0 km/h (2 Bft) 95,74 %
26.06.2017 19:36 27,5 C 26,1 C 47 % 1008,1 hPa 0,0 l/m 4,8 km/h (1 Bft) N-NO 28 2 min 0,000 mm 0,0 UV-I 140 W/m 15,2 C 27,5 C 6,4 km/h (2 Bft) 97,56 %
26.06.2017 19:38 27,5 C 26,1 C 46 % 1008,0 hPa 0,0 l/m 7,3 km/h (2 Bft) N-NO 32 2 min 0,000 mm 0,0 UV-I 136 W/m 14,8 C 27,3 C 9,7 km/h (2 Bft) 94,34 %
26.06.2017 19:40 27,5 C 26,1 C 47 % 1008,0 hPa 0,0 l/m 8,2 km/h (2 Bft) N-NO 24 2 min 0,000 mm 0,0 UV-I 131 W/m 15,2 C 27,2 C 14,5 km/h (3 Bft) 97,73 %
26.06.2017 19:42 27,4 C 26,1 C 47 % 1008,0 hPa 0,0 l/m 7,0 km/h (2 Bft) NO 38 2 min 0,000 mm 0,0 UV-I 127 W/m 15,1 C 27,3 C 11,3 km/h (2 Bft) 96,23 %
26.06.2017 19:44 27,4 C 26,1 C 48 % 1008,0 hPa 0,0 l/m 5,0 km/h (1 Bft) N-NO 22 2 min 0,000 mm 0,0 UV-I 123 W/m 15,4 C 27,4 C 8,0 km/h (2 Bft) 95,74 %
26.06.2017 19:46 27,3 C 26,1 C 48 % 1008,0 hPa 0,0 l/m 6,3 km/h (2 Bft) N-NO 18 2 min 0,000 mm 0,0 UV-I 119 W/m 15,3 C 27,3 C 9,7 km/h (2 Bft) 91,49 %
26.06.2017 19:48 27,3 C 26,1 C 49 % 1008,0 hPa 0,0 l/m 5,1 km/h (1 Bft) NO 38 2 min 0,000 mm 0,0 UV-I 114 W/m 15,6 C 27,3 C 8,0 km/h (2 Bft) 97,73 %
26.06.2017 19:50 27,2 C 26,1 C 49 % 1008,0 hPa 0,0 l/m 5,3 km/h (1 Bft) N-NO 19 2 min 0,000 mm 0,0 UV-I 111 W/m 15,5 C 27,2 C 8,0 km/h (2 Bft) 94,00 %
26.06.2017 19:52 27,2 C 26,1 C 49 % 1008,0 hPa 0,0 l/m 3,1 km/h (1 Bft) N-NO 19 2 min 0,000 mm 0,0 UV-I 106 W/m 15,5 C 27,2 C 4,8 km/h (1 Bft) 95,74 %
26.06.2017 19:54 27,1 C 26,1 C 50 % 1008,0 hPa 0,0 l/m 3,8 km/h (1 Bft) N-NO 29 2 min 0,000 mm 0,0 UV-I 102 W/m 15,8 C 27,1 C 6,4 km/h (2 Bft) 97,37 %
26.06.2017 19:56 27,0 C 26,1 C 50 % 1008,1 hPa 0,0 l/m 5,2 km/h (1 Bft) N-NO 32 2 min 0,000 mm 0,0 UV-I 98 W/m 15,7 C 27,0 C 8,0 km/h (2 Bft) 95,74 %
26.06.2017 19:58 26,9 C 26,1 C 50 % 1008,0 hPa 0,0 l/m 5,4 km/h (1 Bft) N-NO 27 2 min 0,000 mm 0,0 UV-I 94 W/m 15,6 C 26,9 C 9,7 km/h (2 Bft) 96,23 %
26.06.2017 20:00 26,8 C 26,1 C 50 % 1008,0 hPa 0,0 l/m 6,7 km/h (2 Bft) N-NO 32 2 min 0,000 mm 0,0 UV-I 85 W/m 15,5 C 26,7 C 12,9 km/h (3 Bft) 96,00 %
26.06.2017 20:02 26,7 C 26,1 C 50 % 1008,0 hPa 0,0 l/m 6,7 km/h (2 Bft) N-NO 32 2 min 0,152 mm 0,0 UV-I 85 W/m 15,4 C 26,6 C 9,7 km/h (2 Bft) 97,62 %
26.06.2017 20:04 26,7 C 26,1 C 50 % 1008,0 hPa 0,0 l/m 7,2 km/h (2 Bft) N-NO 30 2 min 0,000 mm 0,0 UV-I 81 W/m 15,4 C 26,5 C 9,7 km/h (2 Bft) 97,56 %
26.06.2017 20:06 26,6 C 26,1 C 51 % 1008,0 hPa 0,0 l/m 6,5 km/h (2 Bft) N-NO 32 2 min 0,000 mm 0,0 UV-I 79 W/m 15,6 C 26,6 C 9,7 km/h (2 Bft) 98,00 %
26.06.2017 20:08 26,5 C 26,1 C 51 % 1008,0 hPa 0,0 l/m 4,5 km/h (1 Bft) N-NO 28 2 min 0,000 mm 0,0 UV-I 76 W/m 15,5 C 26,5 C 6,4 km/h (2 Bft) 98,00 %
26.06.2017 20:10 26,4 C 26,1 C 51 % 1007,9 hPa 0,0 l/m 4,4 km/h (1 Bft) NO 34 2 min 0,000 mm 0,0 UV-I 73 W/m 15,4 C 26,4 C 6,4 km/h (2 Bft) 96,23 %
26.06.2017 20:12 26,3 C 26,1 C 51 % 1007,9 hPa 0,0 l/m 4,1 km/h (1 Bft) NO 34 2 min 0,000 mm 0,0 UV-I 66 W/m 15,3 C 26,3 C 6,4 km/h (2 Bft) 97,37 %
26.06.2017 20:14 26,3 C 26,1 C 52 % 1007,9 hPa 0,0 l/m 4,1 km/h (1 Bft) N-NO 27 0 min 0,000 mm 0,0 UV-I 61 W/m 15,6 C 26,3 C 6,4 km/h (2 Bft) 98,00 %
26.06.2017 20:16 26,3 C 26,1 C 51 % 1007,9 hPa 0,0 l/m 3,5 km/h (1 Bft) N-NO 28 0 min 0,000 mm 0,0 UV-I 56 W/m 15,3 C 26,3 C 4,8 km/h (1 Bft) 98,00 %
26.06.2017 20:18 26,2 C 26,1 C 52 % 1007,9 hPa 0,0 l/m 5,3 km/h (1 Bft) NO 42 0 min 0,000 mm 0,0 UV-I 54 W/m 15,6 C 26,2 C 6,4 km/h (2 Bft) 97,14 %
26.06.2017 20:20 26,2 C 26,1 C 53 % 1007,9 hPa 0,0 l/m 4,0 km/h (1 Bft) NO 42 0 min 0,000 mm 0,0 UV-I 46 W/m 15,8 C 26,2 C 6,4 km/h (2 Bft) 98,21 %
26.06.2017 20:22 26,1 C 26,1 C 53 % 1007,9 hPa 0,0 l/m 3,4 km/h (1 Bft) NO 55 0 min 0,000 mm 0,0 UV-I 43 W/m 15,8 C 26,1 C 6,4 km/h (2 Bft) 100,00 %
26.06.2017 20:24 26,0 C 26,1 C 54 % 1007,9 hPa 0,0 l/m 3,3 km/h (1 Bft) NO 55 0 min 0,000 mm 0,0 UV-I 42 W/m 16,0 C 26,0 C 4,8 km/h (1 Bft) 100,00 %
26.06.2017 20:26 25,9 C 26,1 C 54 % 1008,0 hPa 0,0 l/m 3,8 km/h (1 Bft) NO 55 0 min 0,000 mm 0,0 UV-I 39 W/m 15,9 C 25,9 C 4,8 km/h (1 Bft) 98,00 %
26.06.2017 20:28 25,8 C 26,1 C 54 % 1007,9 hPa 0,0 l/m 3,9 km/h (1 Bft) NO 55 0 min 0,000 mm 0,0 UV-I 39 W/m 15,8 C 25,8 C 4,8 km/h (1 Bft) 100,00 %
26.06.2017 20:30 25,7 C 26,1 C 54 % 1007,9 hPa 0,0 l/m 3,3 km/h (1 Bft) NO 55 0 min 0,000 mm 0,0 UV-I 38 W/m 15,7 C 25,7 C 6,4 km/h (2 Bft) 100,00 %
26.06.2017 20:32 25,6 C 26,1 C 54 % 1007,9 hPa 0,0 l/m 3,4 km/h (1 Bft) NO 55 0 min 0,000 mm 0,0 UV-I 37 W/m 15,6 C 25,6 C 4,8 km/h (1 Bft) 100,00 %
26.06.2017 20:34 25,5 C 26,1 C 54 % 1007,9 hPa 0,0 l/m 4,0 km/h (1 Bft) NO 55 0 min 0,000 mm 0,0 UV-I 35 W/m 15,5 C 25,5 C 6,4 km/h (2 Bft) 100,00 %
26.06.2017 20:36 25,4 C 26,1 C 55 % 1008,0 hPa 0,0 l/m 3,6 km/h (1 Bft) NO 55 0 min 0,000 mm 0,0 UV-I 33 W/m 15,7 C 25,4 C 6,4 km/h (2 Bft) 98,11 %
26.06.2017 20:38 25,3 C 26,1 C 55 % 1007,9 hPa 0,0 l/m 3,2 km/h (1 Bft) NO 55 0 min 0,000 mm 0,0 UV-I 30 W/m 15,6 C 25,3 C 4,8 km/h (1 Bft) 100,00 %
26.06.2017 20:40 25,2 C 26,1 C 55 % 1008,0 hPa 0,0 l/m 3,9 km/h (1 Bft) NO 53 2 min 0,000 mm 0,0 UV-I 29 W/m 15,5 C 25,2 C 4,8 km/h (1 Bft) 100,00 %
26.06.2017 20:42 25,1 C 26,1 C 55 % 1007,9 hPa 0,0 l/m 4,0 km/h (1 Bft) NO 53 2 min 0,000 mm 0,0 UV-I 26 W/m 15,4 C 25,1 C 4,8 km/h (1 Bft) 98,00 %
26.06.2017 20:44 25,1 C 26,1 C 55 % 1007,9 hPa 0,0 l/m 3,1 km/h (1 Bft) NO 53 2 min 0,000 mm 0,0 UV-I 24 W/m 15,4 C 25,1 C 4,8 km/h (1 Bft) 100,00 %
26.06.2017 20:46 25,0 C 26,1 C 55 % 1007,9 hPa 0,0 l/m 3,6 km/h (1 Bft) NO 53 2 min 0,000 mm 0,0 UV-I 22 W/m 15,3 C 25,0 C 4,8 km/h (1 Bft) 94,55 %
26.06.2017 20:48 24,9 C 26,1 C 56 % 1007,9 hPa 0,0 l/m 1,9 km/h (1 Bft) NO 53 2 min 0,000 mm 0,0 UV-I 19 W/m 15,5 C 24,9 C 3,2 km/h (1 Bft) 97,56 %
26.06.2017 20:50 24,8 C 26,1 C 56 % 1007,9 hPa 0,0 l/m 2,0 km/h (1 Bft) NO 53 2 min 0,000 mm 0,0 UV-I 18 W/m 15,4 C 24,8 C 3,2 km/h (1 Bft) 96,23 %
26.06.2017 20:52 24,7 C 26,1 C 57 % 1007,9 hPa 0,0 l/m 2,8 km/h (1 Bft) NO 53 2 min 0,000 mm 0,0 UV-I 18 W/m 15,6 C 24,7 C 4,8 km/h (1 Bft) 96,23 %
26.06.2017 20:54 24,6 C 26,1 C 58 % 1007,9 hPa 0,0 l/m 3,0 km/h (1 Bft) NO 53 2 min 0,000 mm 0,0 UV-I 16 W/m 15,8 C 24,6 C 4,8 km/h (1 Bft) 95,12 %
26.06.2017 20:56 24,4 C 26,1 C 58 % 1007,9 hPa 0,0 l/m 3,1 km/h (1 Bft) NO 53 0 min 0,000 mm 0,0 UV-I 15 W/m 15,6 C 24,4 C 4,8 km/h (1 Bft) 97,56 %
26.06.2017 20:58 24,3 C 26,1 C 59 % 1007,9 hPa 0,0 l/m 1,9 km/h (1 Bft) NO 53 0 min 0,000 mm 0,0 UV-I 14 W/m 15,8 C 24,3 C 3,2 km/h (1 Bft) 96,00 %
26.06.2017 21:00 24,2 C 26,1 C 58 % 1007,9 hPa 0,0 l/m 1,5 km/h (1 Bft) NO 53 0 min 0,000 mm 0,0 UV-I 12 W/m 15,4 C 24,2 C 3,2 km/h (1 Bft) 96,00 %
26.06.2017 21:02 24,2 C 26,1 C 59 % 1007,9 hPa 0,0 l/m 1,2 km/h (1 Bft) NO 53 0 min 0,051 mm 0,0 UV-I 11 W/m 15,7 C 24,2 C 1,6 km/h (1 Bft) 95,45 %
26.06.2017 21:04 24,1 C 26,1 C 59 % 1008,0 hPa 0,0 l/m 0,5 km/h (0 Bft) NO 53 0 min 0,000 mm 0,0 UV-I 10 W/m 15,6 C 24,1 C 1,6 km/h (1 Bft) 97,87 %
26.06.2017 21:06 24,1 C 26,1 C 60 % 1008,0 hPa 0,0 l/m 0,6 km/h (0 Bft) NO 53 0 min 0,000 mm 0,0 UV-I 9 W/m 15,8 C 24,1 C 1,6 km/h (1 Bft) 98,00 %
26.06.2017 21:08 23,9 C 26,1 C 60 % 1008,1 hPa 0,0 l/m 1,5 km/h (1 Bft) NO 53 0 min 0,000 mm 0,0 UV-I 9 W/m 15,7 C 23,9 C 3,2 km/h (1 Bft) 96,00 %
26.06.2017 21:10 23,8 C 26,1 C 61 % 1008,0 hPa 0,0 l/m 2,3 km/h (1 Bft) NO 53 0 min 0,000 mm 0,0 UV-I 7 W/m 15,8 C 23,8 C 4,8 km/h (1 Bft) 97,87 %
26.06.2017 21:12 23,7 C 26,1 C 60 % 1008,1 hPa 0,0 l/m 2,5 km/h (1 Bft) NO 53 0 min 0,000 mm 0,0 UV-I 7 W/m 15,5 C 23,7 C 3,2 km/h (1 Bft) 97,37 %
26.06.2017 21:14 23,7 C 26,1 C 60 % 1008,1 hPa 0,0 l/m 2,8 km/h (1 Bft) NO 53 0 min 0,000 mm 0,0 UV-I 7 W/m 15,5 C 23,7 C 4,8 km/h (1 Bft) 96,23 %
26.06.2017 21:16 23,6 C 26,1 C 60 % 1008,1 hPa 0,0 l/m 3,1 km/h (1 Bft) NO 53 0 min 0,000 mm 0,0 UV-I 5 W/m 15,4 C 23,6 C 6,4 km/h (2 Bft) 100,00 %
26.06.2017 21:18 23,6 C 26,1 C 61 % 1008,2 hPa 0,0 l/m 4,2 km/h (1 Bft) NO 55 0 min 0,000 mm 0,0 UV-I 5 W/m 15,6 C 23,6 C 4,8 km/h (1 Bft) 95,74 %
26.06.2017 21:20 23,5 C 26,1 C 61 % 1008,2 hPa 0,0 l/m 4,1 km/h (1 Bft) O-NO 67 0 min 0,000 mm 0,0 UV-I 5 W/m 15,5 C 23,5 C 6,4 km/h (2 Bft) 100,00 %
26.06.2017 21:23 23,4 C 26,1 C 61 % 1008,3 hPa 0,0 l/m 4,2 km/h (1 Bft) O-NO 68 0 min 0,000 mm 0,0 UV-I 5 W/m 15,4 C 23,4 C 6,4 km/h (2 Bft) 98,53 %
26.06.2017 21:24 23,4 C 26,1 C 60 % 1008,3 hPa 0,0 l/m 4,2 km/h (1 Bft) O-NO 68 0 min 0,000 mm 0,0 UV-I 5 W/m 15,2 C 23,4 C 6,4 km/h (2 Bft) 100,00 %
26.06.2017 21:26 23,4 C 26,1 C 61 % 1008,4 hPa 0,0 l/m 3,1 km/h (1 Bft) O-NO 68 0 min 0,000 mm 0,0 UV-I 2 W/m 15,4 C 23,4 C 4,8 km/h (1 Bft) 100,00 %
26.06.2017 21:28 23,5 C 26,1 C 60 % 1008,4 hPa 0,0 l/m 2,5 km/h (1 Bft) O-NO 68 0 min 0,000 mm 0,0 UV-I 0 W/m 15,3 C 23,5 C 4,8 km/h (1 Bft) 94,00 %
26.06.2017 21:30 23,6 C 26,1 C 60 % 1008,4 hPa 0,0 l/m 3,0 km/h (1 Bft) O-NO 68 0 min 0,000 mm 0,0 UV-I 0 W/m 15,4 C 23,6 C 4,8 km/h (1 Bft) 98,00 %
26.06.2017 21:32 23,6 C 26,1 C 60 % 1008,5 hPa 0,0 l/m 2,3 km/h (1 Bft) O-NO 68 0 min 0,000 mm 0,0 UV-I 0 W/m 15,4 C 23,6 C 3,2 km/h (1 Bft) 100,00 %
26.06.2017 21:34 23,6 C 26,1 C 60 % 1008,5 hPa 0,0 l/m 3,2 km/h (1 Bft) O-NO 68 0 min 0,000 mm 0,0 UV-I 0 W/m 15,4 C 23,6 C 4,8 km/h (1 Bft) 100,00 %
26.06.2017 21:36 23,4 C 26,1 C 60 % 1008,5 hPa 0,0 l/m 3,8 km/h (1 Bft) O-NO 68 0 min 0,000 mm 0,0 UV-I 0 W/m 15,2 C 23,4 C 6,4 km/h (2 Bft) 100,00 %
26.06.2017 21:38 23,4 C 26,1 C 60 % 1008,5 hPa 0,0 l/m 3,7 km/h (1 Bft) O-NO 68 0 min 0,000 mm 0,0 UV-I 0 W/m 15,2 C 23,4 C 4,8 km/h (1 Bft) 100,00 %
26.06.2017 21:40 23,5 C 26,1 C 60 % 1008,6 hPa 0,0 l/m 4,1 km/h (1 Bft) O-NO 68 0 min 0,000 mm 0,0 UV-I 0 W/m 15,3 C 23,5 C 6,4 km/h (2 Bft) 100,00 %
26.06.2017 21:42 23,5 C 26,1 C 60 % 1008,6 hPa 0,0 l/m 2,7 km/h (1 Bft) O-NO 68 0 min 0,000 mm 0,0 UV-I 0 W/m 15,3 C 23,5 C 4,8 km/h (1 Bft) 100,00 %
26.06.2017 21:44 23,5 C 26,1 C 60 % 1008,6 hPa 0,0 l/m 2,2 km/h (1 Bft) O-NO 68 0 min 0,000 mm 0,0 UV-I 0 W/m 15,3 C 23,5 C 4,8 km/h (1 Bft) 97,37 %
26.06.2017 21:46 23,5 C 26,1 C 59 % 1008,6 hPa 0,0 l/m 2,8 km/h (1 Bft) O-NO 68 0 min 0,000 mm 0,0 UV-I 0 W/m 15,0 C 23,5 C 3,2 km/h (1 Bft) 100,00 %
26.06.2017 21:48 23,6 C 26,1 C 59 % 1008,6 hPa 0,0 l/m 2,0 km/h (1 Bft) O-NO 68 0 min 0,000 mm 0,0 UV-I 0 W/m 15,1 C 23,6 C 3,2 km/h (1 Bft) 97,37 %
26.06.2017 21:50 23,6 C 26,1 C 59 % 1008,6 hPa 0,0 l/m 2,1 km/h (1 Bft) O-NO 68 0 min 0,000 mm 0,0 UV-I 0 W/m 15,1 C 23,6 C 4,8 km/h (1 Bft) 100,00 %
26.06.2017 21:52 23,6 C 26,1 C 59 % 1008,6 hPa 0,0 l/m 3,0 km/h (1 Bft) O-NO 68 0 min 0,000 mm 0,0 UV-I 0 W/m 15,1 C 23,6 C 4,8 km/h (1 Bft) 95,74 %
26.06.2017 21:54 23,6 C 26,1 C 59 % 1008,5 hPa 0,0 l/m 3,4 km/h (1 Bft) O-NO 68 0 min 0,000 mm 0,0 UV-I 0 W/m 15,1 C 23,6 C 6,4 km/h (2 Bft) 100,00 %
26.06.2017 21:56 23,6 C 26,1 C 59 % 1008,5 hPa 0,0 l/m 3,8 km/h (1 Bft) O-NO 68 0 min 0,000 mm 0,0 UV-I 0 W/m 15,1 C 23,6 C 4,8 km/h (1 Bft) 100,00 %
26.06.2017 21:58 23,5 C 26,1 C 60 % 1008,5 hPa 0,0 l/m 3,1 km/h (1 Bft) O-NO 68 0 min 0,000 mm 0,0 UV-I 0 W/m 15,3 C 23,5 C 4,8 km/h (1 Bft) 100,00 %
26.06.2017 22:00 23,4 C 26,1 C 60 % 1008,6 hPa 0,0 l/m 3,1 km/h (1 Bft) O-NO 69 0 min 0,000 mm 0,0 UV-I 0 W/m 15,2 C 23,4 C 4,8 km/h (1 Bft) 94,87 %
26.06.2017 22:02 23,3 C 26,1 C 60 % 1008,5 hPa 0,0 l/m 4,4 km/h (1 Bft) O-NO 70 0 min 0,025 mm 0,0 UV-I 0 W/m 15,1 C 23,3 C 6,4 km/h (2 Bft) 100,00 %
26.06.2017 22:04 23,3 C 26,1 C 61 % 1008,5 hPa 0,0 l/m 4,6 km/h (1 Bft) O-NO 76 0 min 0,000 mm 0,0 UV-I 0 W/m 15,3 C 23,3 C 6,4 km/h (2 Bft) 98,00 %
26.06.2017 22:06 23,2 C 26,1 C 61 % 1008,5 hPa 0,0 l/m 5,7 km/h (1 Bft) O-NO 76 0 min 0,000 mm 0,0 UV-I 0 W/m 15,3 C 23,2 C 8,0 km/h (2 Bft) 100,00 %
26.06.2017 22:08 23,1 C 26,1 C 61 % 1008,4 hPa 0,0 l/m 6,9 km/h (2 Bft) O-NO 76 0 min 0,000 mm 0,0 UV-I 0 W/m 15,2 C 22,9 C 12,9 km/h (3 Bft) 97,56 %
26.06.2017 22:10 23,1 C 26,1 C 61 % 1008,4 hPa 0,0 l/m 6,5 km/h (2 Bft) O 79 0 min 0,000 mm 0,0 UV-I 0 W/m 15,2 C 23,1 C 8,0 km/h (2 Bft) 100,00 %
26.06.2017 22:12 23,2 C 26,1 C 61 % 1008,4 hPa 0,0 l/m 6,5 km/h (2 Bft) O-NO 76 0 min 0,000 mm 0,0 UV-I 0 W/m 15,3 C 23,2 C 11,3 km/h (2 Bft) 100,00 %
26.06.2017 22:14 23,1 C 26,1 C 61 % 1008,4 hPa 0,0 l/m 5,3 km/h (1 Bft) O-NO 78 0 min 0,000 mm 0,0 UV-I 0 W/m 15,2 C 23,1 C 11,3 km/h (2 Bft) 98,00 %
26.06.2017 22:16 23,1 C 26,1 C 61 % 1008,4 hPa 0,0 l/m 5,2 km/h (1 Bft) O-NO 77 0 min 0,000 mm 0,0 UV-I 0 W/m 15,2 C 23,1 C 11,3 km/h (2 Bft) 100,00 %
26.06.2017 22:18 23,1 C 26,1 C 61 % 1008,4 hPa 0,0 l/m 4,5 km/h (1 Bft) O-NO 78 0 min 0,000 mm 0,0 UV-I 0 W/m 15,2 C 23,1 C 6,4 km/h (2 Bft) 97,37 %
26.06.2017 22:20 23,0 C 26,1 C 61 % 1008,4 hPa 0,0 l/m 5,5 km/h (1 Bft) O 80 0 min 0,000 mm 0,0 UV-I 0 W/m 15,1 C 23,0 C 11,3 km/h (2 Bft) 100,00 %
26.06.2017 22:22 22,9 C 26,1 C 61 % 1008,4 hPa 0,0 l/m 7,2 km/h (2 Bft) O 86 0 min 0,000 mm 0,0 UV-I 0 W/m 15,0 C 22,6 C 12,9 km/h (3 Bft) 97,87 %
26.06.2017 22:24 22,9 C 26,1 C 61 % 1008,3 hPa 0,0 l/m 5,4 km/h (1 Bft) O 90 0 min 0,000 mm 0,0 UV-I 0 W/m 15,0 C 22,9 C 9,7 km/h (2 Bft) 97,56 %
26.06.2017 22:26 22,8 C 26,1 C 61 % 1008,4 hPa 0,0 l/m 7,2 km/h (2 Bft) O-NO 69 0 min 0,000 mm 0,0 UV-I 0 W/m 14,9 C 22,5 C 11,3 km/h (2 Bft) 100,00 %
26.06.2017 22:28 22,9 C 26,1 C 61 % 1008,4 hPa 0,0 l/m 5,0 km/h (1 Bft) O-NO 74 0 min 0,000 mm 0,0 UV-I 0 W/m 15,0 C 22,9 C 6,4 km/h (2 Bft) 100,00 %
26.06.2017 22:30 22,9 C 26,1 C 61 % 1008,3 hPa 0,0 l/m 7,4 km/h (2 Bft) O-NO 69 0 min 0,000 mm 0,0 UV-I 0 W/m 15,0 C 22,6 C 14,5 km/h (3 Bft) 100,00 %
26.06.2017 22:32 22,9 C 26,1 C 61 % 1008,4 hPa 0,0 l/m 6,0 km/h (2 Bft) O 85 0 min 0,000 mm 0,0 UV-I 0 W/m 15,0 C 22,9 C 11,3 km/h (2 Bft) 97,73 %
26.06.2017 22:34 22,9 C 26,1 C 61 % 1008,4 hPa 0,0 l/m 7,0 km/h (2 Bft) O 92 0 min 0,000 mm 0,0 UV-I 0 W/m 15,0 C 22,7 C 11,3 km/h (2 Bft) 100,00 %
26.06.2017 22:36 23,0 C 26,1 C 60 % 1008,4 hPa 0,0 l/m 7,6 km/h (2 Bft) O 80 0 min 0,000 mm 0,0 UV-I 0 W/m 14,8 C 22,6 C 14,5 km/h (3 Bft) 98,00 %
26.06.2017 22:38 23,1 C 26,1 C 60 % 1008,4 hPa 0,0 l/m 5,4 km/h (1 Bft) O 95 0 min 0,000 mm 0,0 UV-I 0 W/m 14,9 C 23,1 C 9,7 km/h (2 Bft) 100,00 %
26.06.2017 22:40 23,1 C 26,1 C 60 % 1008,4 hPa 0,0 l/m 5,1 km/h (1 Bft) O-NO 76 0 min 0,000 mm 0,0 UV-I 0 W/m 14,9 C 23,1 C 9,7 km/h (2 Bft) 95,16 %
26.06.2017 22:42 23,0 C 26,1 C 60 % 1008,4 hPa 0,0 l/m 5,7 km/h (1 Bft) O-NO 71 0 min 0,000 mm 0,0 UV-I 0 W/m 14,8 C 23,0 C 11,3 km/h (2 Bft) 94,74 %
26.06.2017 22:44 23,0 C 26,1 C 60 % 1008,4 hPa 0,0 l/m 5,4 km/h (1 Bft) O-NO 66 0 min 0,000 mm 0,0 UV-I 0 W/m 14,8 C 23,0 C 9,7 km/h (2 Bft) 94,00 %
26.06.2017 22:46 22,9 C 26,1 C 61 % 1008,4 hPa 0,0 l/m 5,0 km/h (1 Bft) O 80 0 min 0,000 mm 0,0 UV-I 0 W/m 15,0 C 22,9 C 8,0 km/h (2 Bft) 95,45 %
26.06.2017 22:48 22,9 C 26,1 C 61 % 1008,4 hPa 0,0 l/m 5,3 km/h (1 Bft) O-NO 73 0 min 0,000 mm 0,0 UV-I 0 W/m 15,0 C 22,9 C 8,0 km/h (2 Bft) 94,64 %
26.06.2017 22:50 22,8 C 26,1 C 61 % 1008,4 hPa 0,0 l/m 5,5 km/h (1 Bft) O 86 0 min 0,000 mm 0,0 UV-I 0 W/m 14,9 C 22,8 C 9,7 km/h (2 Bft) 94,74 %
26.06.2017 22:52 22,7 C 26,1 C 62 % 1008,3 hPa 0,0 l/m 6,9 km/h (2 Bft) O 94 0 min 0,000 mm 0,0 UV-I 0 W/m 15,0 C 22,5 C 11,3 km/h (2 Bft) 96,00 %
26.06.2017 22:54 22,7 C 26,1 C 62 % 1008,3 hPa 0,0 l/m 6,8 km/h (2 Bft) O 86 0 min 0,000 mm 0,0 UV-I 0 W/m 15,0 C 22,6 C 12,9 km/h (3 Bft) 95,74 %
26.06.2017 22:56 22,6 C 26,1 C 62 % 1008,3 hPa 0,0 l/m 7,6 km/h (2 Bft) O 80 0 min 0,000 mm 0,0 UV-I 0 W/m 14,9 C 22,2 C 11,3 km/h (2 Bft) 88,68 %
26.06.2017 22:58 22,6 C 26,1 C 62 % 1008,3 hPa 0,0 l/m 5,1 km/h (1 Bft) O 94 0 min 0,000 mm 0,0 UV-I 0 W/m 14,9 C 22,6 C 6,4 km/h (2 Bft) 95,45 %
26.06.2017 23:00 22,6 C 26,1 C 62 % 1008,3 hPa 0,0 l/m 7,1 km/h (2 Bft) O-SO 103 0 min 0,000 mm 0,0 UV-I 0 W/m 14,9 C 22,4 C 11,3 km/h (2 Bft) 93,18 %
26.06.2017 23:02 22,5 C 26,1 C 62 % 1008,4 hPa 0,0 l/m 6,6 km/h (2 Bft) O-SO 115 0 min 0,051 mm 0,0 UV-I 0 W/m 14,8 C 22,4 C 11,3 km/h (2 Bft) 92,45 %
26.06.2017 23:04 22,5 C 26,1 C 62 % 1008,4 hPa 0,0 l/m 5,0 km/h (1 Bft) O 86 0 min 0,000 mm 0,0 UV-I 0 W/m 14,8 C 22,5 C 9,7 km/h (2 Bft) 95,12 %
26.06.2017 23:06 22,5 C 26,1 C 62 % 1008,4 hPa 0,0 l/m 5,8 km/h (2 Bft) O-NO 66 0 min 0,000 mm 0,0 UV-I 0 W/m 14,8 C 22,5 C 8,0 km/h (2 Bft) 92,68 %
26.06.2017 23:08 22,4 C 26,1 C 63 % 1008,3 hPa 0,0 l/m 6,3 km/h (2 Bft) O-NO 71 0 min 0,000 mm 0,0 UV-I 0 W/m 15,0 C 22,4 C 11,3 km/h (2 Bft) 94,44 %
26.06.2017 23:10 22,4 C 26,1 C 63 % 1008,3 hPa 0,0 l/m 6,4 km/h (2 Bft) O-NO 78 0 min 0,000 mm 0,0 UV-I 0 W/m 15,0 C 22,4 C 11,3 km/h (2 Bft) 93,75 %
26.06.2017 23:12 22,4 C 26,1 C 63 % 1008,3 hPa 0,0 l/m 4,8 km/h (1 Bft) O-NO 67 0 min 0,000 mm 0,0 UV-I 0 W/m 15,0 C 22,4 C 8,0 km/h (2 Bft) 95,12 %
26.06.2017 23:14 22,4 C 26,1 C 63 % 1008,3 hPa 0,0 l/m 4,8 km/h (1 Bft) O 86 0 min 0,000 mm 0,0 UV-I 0 W/m 15,0 C 22,4 C 8,0 km/h (2 Bft) 96,23 %
26.06.2017 23:16 22,4 C 26,1 C 63 % 1008,3 hPa 0,0 l/m 6,4 km/h (2 Bft) O-NO 62 0 min 0,000 mm 0,0 UV-I 0 W/m 15,0 C 22,4 C 11,3 km/h (2 Bft) 97,44 %
26.06.2017 23:18 22,3 C 26,1 C 63 % 1008,3 hPa 0,0 l/m 3,6 km/h (1 Bft) O 92 0 min 0,000 mm 0,0 UV-I 0 W/m 14,9 C 22,3 C 6,4 km/h (2 Bft) 96,43 %
26.06.2017 23:20 22,2 C 26,1 C 64 % 1008,3 hPa 0,0 l/m 5,8 km/h (2 Bft) O-SO 102 0 min 0,000 mm 0,0 UV-I 0 W/m 15,1 C 22,2 C 9,7 km/h (2 Bft) 95,92 %
26.06.2017 23:22 22,2 C 26,1 C 63 % 1008,3 hPa 0,0 l/m 6,0 km/h (2 Bft) O-NO 62 0 min 0,000 mm 0,0 UV-I 0 W/m 14,8 C 22,2 C 12,9 km/h (3 Bft) 97,44 %
26.06.2017 23:24 22,2 C 26,1 C 63 % 1008,3 hPa 0,0 l/m 6,1 km/h (2 Bft) O 87 0 min 0,000 mm 0,0 UV-I 0 W/m 14,8 C 22,2 C 9,7 km/h (2 Bft) 98,21 %
26.06.2017 23:26 22,2 C 26,1 C 63 % 1008,3 hPa 0,0 l/m 5,7 km/h (1 Bft) O 100 0 min 0,000 mm 0,0 UV-I 0 W/m 14,8 C 22,2 C 11,3 km/h (2 Bft) 97,56 %
26.06.2017 23:28 22,2 C 26,1 C 64 % 1008,3 hPa 0,0 l/m 7,3 km/h (2 Bft) O 100 0 min 0,000 mm 0,0 UV-I 0 W/m 15,1 C 21,9 C 9,7 km/h (2 Bft) 97,73 %
26.06.2017 23:30 22,1 C 26,1 C 64 % 1008,3 hPa 0,0 l/m 6,8 km/h (2 Bft) O 96 0 min 0,000 mm 0,0 UV-I 0 W/m 15,0 C 22,0 C 11,3 km/h (2 Bft) 98,11 %
26.06.2017 23:32 22,1 C 26,1 C 64 % 1008,3 hPa 0,0 l/m 5,9 km/h (2 Bft) O 94 0 min 0,000 mm 0,0 UV-I 0 W/m 15,0 C 22,1 C 11,3 km/h (2 Bft) 97,56 %
26.06.2017 23:34 21,9 C 26,1 C 64 % 1008,3 hPa 0,0 l/m 6,5 km/h (2 Bft) O 99 0 min 0,000 mm 0,0 UV-I 0 W/m 14,8 C 21,9 C 11,3 km/h (2 Bft) 98,11 %
26.06.2017 23:36 21,9 C 26,1 C 64 % 1008,3 hPa 0,0 l/m 4,5 km/h (1 Bft) O 96 0 min 0,000 mm 0,0 UV-I 0 W/m 14,8 C 21,9 C 9,7 km/h (2 Bft) 97,14 %
26.06.2017 23:38 21,9 C 26,1 C 64 % 1008,3 hPa 0,0 l/m 4,5 km/h (1 Bft) SO 140 0 min 0,000 mm 0,0 UV-I 0 W/m 14,8 C 21,9 C 9,7 km/h (2 Bft) 98,11 %
26.06.2017 23:40 21,9 C 26,1 C 65 % 1008,3 hPa 0,0 l/m 4,4 km/h (1 Bft) SO 134 0 min 0,000 mm 0,0 UV-I 0 W/m 15,0 C 21,9 C 6,4 km/h (2 Bft) 96,00 %
26.06.2017 23:42 21,9 C 26,1 C 65 % 1008,3 hPa 0,0 l/m 3,5 km/h (1 Bft) SO 134 0 min 0,000 mm 0,0 UV-I 0 W/m 15,0 C 21,9 C 4,8 km/h (1 Bft) 97,56 %
26.06.2017 23:44 21,7 C 26,1 C 67 % 1008,2 hPa 0,0 l/m 3,7 km/h (1 Bft) SO 134 0 min 0,000 mm 0,0 UV-I 0 W/m 15,3 C 21,7 C 6,4 km/h (2 Bft) 96,23 %
26.06.2017 23:46 21,5 C 26,1 C 67 % 1008,2 hPa 0,0 l/m 4,8 km/h (1 Bft) O-SO 113 0 min 0,000 mm 0,0 UV-I 0 W/m 15,1 C 21,5 C 6,4 km/h (2 Bft) 97,56 %
26.06.2017 23:48 21,4 C 26,1 C 67 % 1008,2 hPa 0,0 l/m 3,9 km/h (1 Bft) O-SO 114 0 min 0,000 mm 0,0 UV-I 0 W/m 15,0 C 21,4 C 4,8 km/h (1 Bft) 100,00 %
26.06.2017 23:50 21,4 C 26,1 C 67 % 1008,2 hPa 0,0 l/m 4,1 km/h (1 Bft) SO 134 0 min 0,000 mm 0,0 UV-I 0 W/m 15,0 C 21,4 C 6,4 km/h (2 Bft) 100,00 %
26.06.2017 23:52 21,5 C 26,1 C 67 % 1008,2 hPa 0,0 l/m 3,9 km/h (1 Bft) O-SO 122 0 min 0,000 mm 0,0 UV-I 0 W/m 15,1 C 21,5 C 6,4 km/h (2 Bft) 100,00 %
26.06.2017 23:54 21,4 C 26,1 C 67 % 1008,2 hPa 0,0 l/m 3,6 km/h (1 Bft) O-SO 122 0 min 0,000 mm 0,0 UV-I 0 W/m 15,0 C 21,4 C 4,8 km/h (1 Bft) 98,00 %
26.06.2017 23:56 21,4 C 26,1 C 67 % 1008,2 hPa 0,0 l/m 3,0 km/h (1 Bft) O-SO 122 0 min 0,000 mm 0,0 UV-I 0 W/m 15,0 C 21,4 C 4,8 km/h (1 Bft) 100,00 %
26.06.2017 23:58 21,3 C 26,1 C 67 % 1008,1 hPa 0,0 l/m 2,6 km/h (1 Bft) O-SO 113 0 min 0,000 mm 0,0 UV-I 0 W/m 14,9 C 21,3 C 6,4 km/h (2 Bft) 96,15 %
_ Min-Zeit 03:52 09:52 17:46 20:10 - 18:10 - - - - - - 17:36 05:00 17:04 06:54
Minimum _ 17,4 C 23,9 C 36 % 1007,9 hPa - 0,3 km/h (0 Bft) - - - - - - 13,1 C 15,0 C 1,6 km/h (1 Bft) 81,82 %
_ Max-Zeit 15:52 15:40 03:26 00:22 00:00 13:42 - - 11:15 14:02 13:00 13:10 10:12 15:52 12:08 00:30
Maximum _ 29,8 C 26,1 C 84 % 1013,1 hPa 0,0 l/m 16,6 km/h
W-SW (3 Bft)
- - 5 min 0,686 mm 7,8 UV-I 1164 W/m 16,7 C 29,8 C 29,0 km/h
W-SW (5 Bft)
100,00 %
Durchschnitt _ 23,1 C 25,6 C 62 % 1011,1 hPa #0,0 l/m 7,3 km/h (2 Bft) SW - #10:12 h #5,461 mm 3,7 UV-I 434 W/m 14,8 C 22,5 C 12,2 km/h (2 Bft) 96,89 %